[[{"header":{"parameterUnit":"m.s-1","parameterCategory":1,"la1":31.0,"la2":29.5877,"lo1":-88.7671,"lo2":-86.6584,"dx":0.0162,"dy":0.0185,"nx":115,"ny":88,"refTime":"2022-11-22T18:00:00:Z","depth":0,"parameterNumber":2,"parameterNumberName":"U-component_of_WINDS"},"data":[0.0,0.0,0.0,0.0,0.0,0.0,0.0,0.0,0.0,0.0,0.0,0.0,0.0,0.0,0.0,0.0,0.0,0.0,0.0,0.0,0.0,0.0,0.0,0.0,0.0,0.0,0.0,0.0,0.0,0.0,0.0,0.0,0.0,0.0,0.0,0.0,0.0,0.0,0.0,0.0,0.0,0.0,0.0,0.0,0.0,0.0,0.0,0.0,0.0,0.0,0.0,0.0,0.0,0.0,0.0,0.0,0.0,0.0,0.0,0.0,0.0,0.0,0.0,0.0,0.0,0.0,0.0,0.0,0.0,0.0,0.0,0.0,0.0,0.0,0.0,0.0,0.0,0.0,0.0,0.0,0.0,0.0,0.0,0.0,0.0,0.0,0.0,0.0,0.0,0.0,0.0,0.0,0.0,0.0,0.0,0.0,0.0,0.0,0.0,0.0,0.0,0.0,0.0,0.0,0.0,0.0,0.0,0.0,0.0,0.0,0.0,0.0,0.0,0.0,0.0,0.0,0.0,0.0,0.0,0.0,0.0,0.0,0.0,0.0,0.0,0.0,0.0,0.0,0.0,0.0,0.0,0.0,0.0,0.0,0.0,0.0,0.0,0.0,0.0,0.0,0.0,0.0,0.0,0.0,0.0,0.0,0.0,0.0,0.0,0.0,0.0,0.0,0.0,0.0,0.0,0.0,0.0,0.0,0.0,0.0,0.0,0.0,0.0,0.0,0.0,0.0,0.0,0.0,0.0,0.0,0.0,0.0,0.0,0.0,0.0,0.0,0.0,0.0,0.0,0.0,0.0,0.0,0.0,0.0,0.0,0.0,0.0,0.0,0.0,0.0,0.0,0.0,0.0,0.0,0.0,0.0,0.0,0.0,0.0,0.0,0.0,0.0,0.0,0.0,0.0,0.0,0.0,0.0,0.0,0.0,0.0,0.0,0.0,0.0,0.0,0.0,0.0,0.0,0.0,0.0,0.0,0.0,0.0,0.0,0.0,0.0,0.0,0.0,0.0,0.0,0.0,0.0,0.0,0.0,0.0,0.0,0.0,0.0,0.0,0.0,0.0,0.0,0.0,0.0,0.0,0.0,0.0,0.0,0.0,0.0,0.0,0.0,0.0,0.0,0.0,0.0,0.0,0.0,0.0,0.0,0.0,0.0,0.0,0.0,0.0,0.0,0.0,0.0,0.0,0.0,0.0,0.0,0.0,0.0,0.0,0.0,0.0,0.0,0.0,0.0,0.0,0.0,0.0,0.0,0.0,0.0,0.0,0.0,0.0,0.0,0.0,0.0,0.0,0.0,0.0,0.0,0.0,0.0,0.0,0.0,0.0,0.0,0.0,0.0,0.0,0.0,0.0,0.0,0.0,0.0,0.0,0.0,0.0,0.0,0.0,0.0,0.0,0.0,0.0,0.0,0.0,0.0,0.0,0.0,0.0,0.0,0.0,0.0,0.0,0.0,0.0,0.0,0.0,0.0,0.0,0.0,0.0,0.0,0.0,0.0,0.0,0.0,0.0,0.0,0.0,0.0,0.0,0.0,0.0,0.0,0.0,0.0,0.0,0.0,0.0,0.0,0.0,0.0,0.0,0.0,0.0,0.0,0.0,0.0,0.0,0.0,0.0,0.0,0.0,0.0,0.0,0.0,0.0,0.0,0.0,0.0,0.0,0.0,0.0,0.0,0.0,0.0,0.0,0.0,0.0,0.0,0.0,0.0,0.0,0.0,0.0,0.0,0.0,0.0,0.0,0.0,0.0,0.0,0.0,0.0,0.0,0.0,0.0,0.0,0.0,0.0,0.0,0.0,0.0,0.0,0.0,0.0,0.0,0.0,0.0,0.0,0.0,0.0,0.0,0.0,0.0,0.0,0.0,0.0,0.0,0.0,0.0,0.0,0.0,0.0,0.0,0.0,0.0,0.0,0.0,0.0,0.0,0.0,0.0,0.0,0.0,0.0,0.0,0.0,0.0,0.0,0.0,0.0,0.0,0.0,0.0,0.0,0.0,0.0,0.0,0.0,0.0,0.0,0.0,0.0,0.0,0.0,0.0,0.0,0.0,0.0,0.0,0.0,0.0,0.0,0.0,0.0,0.0,0.0,0.0,0.0,0.0,0.0,0.0,0.0,0.0,0.0,0.0,0.0,0.0,0.0,0.0,0.0,0.0,0.0,0.0,0.0,0.0,0.0,0.0,0.0,0.0,0.0,0.0,0.0,0.0,0.0,0.0,0.0,0.0,0.0,0.0,0.0,0.0,0.0,0.0,0.0,0.0,0.0,0.0,0.0,0.0,0.0,0.0,0.0,0.0,0.0,0.0,0.0,0.0,0.0,0.0,0.0,0.0,0.0,0.0,0.0,0.0,0.0,0.0,0.0,0.0,0.0,0.0,0.0,0.0,0.0,0.0,0.0,0.0,0.0,0.0,0.0,0.0,0.0,0.0,0.0,0.0,0.0,0.0,0.0,0.0,0.0,0.0,0.0,0.0,0.0,0.0,0.0,0.0,0.0,0.0,0.0,0.0,0.0,0.0,0.0,0.0,0.0,0.0,0.0,0.0,0.0,0.0,0.0,0.0,0.0,0.0,0.0,0.0,0.0,0.0,0.0,0.0,0.0,0.0,0.0,0.0,0.0,0.0,0.0,0.0,0.0,0.0,0.0,0.0,0.0,0.0,0.0,0.0,0.0,0.0,0.0,0.0,0.0,0.0,0.0,0.0,0.0,0.0,0.0,0.0,0.0,0.0,0.0,0.0,0.0,0.0,0.0,0.0,0.0,0.0,0.0,0.0,0.0,0.0,0.0,0.0,0.0,0.0,0.0,0.0,0.0,0.0,0.0,0.0,0.0,0.0,0.0,0.0,0.0,0.0,0.0,0.0,0.0,0.0,0.0,0.0,0.0,0.0,0.0,0.0,0.0,0.0,0.0,0.0,0.0,0.0,0.0,0.0,0.0,0.0,0.0,0.0,0.0,0.0,0.0,0.0,0.0,0.0,0.0,0.0,0.0,0.0,0.0,0.0,0.0,0.0,0.0,0.0,0.0,0.0,0.0,0.0,0.0,0.0,0.0,0.0,0.0,0.0,0.0,0.0,0.0,0.0,0.0,0.0,0.0,0.0,0.0,0.0,0.0,0.0,0.0,0.0,0.0,0.0,0.0,0.0,0.0,0.0,0.0,0.0,0.0,0.0,0.0,0.0,0.0,0.0,0.0,0.0,0.0,0.0,0.0,0.0,0.0,0.0,0.0,0.0,0.0,0.0,0.0,0.0,0.0,0.0,0.0,0.0,0.0,0.0,0.0,0.0,0.0,0.0,0.0,0.0,0.0,0.0,0.0,0.0,0.0,0.0,0.0,0.0,0.0,0.0,0.0,0.0,0.0,0.0,0.0,0.0,0.0,0.0,0.0,0.0,0.0,0.0,0.0,0.0,0.0,0.0,0.0,0.0,0.0,0.0,0.0,0.0,0.0,0.0,0.0,0.0,0.0,0.0,0.0,0.0,0.0,0.0,0.0,0.0,0.0,0.0,0.0,0.0,0.0,0.0,0.0,0.0,0.0,0.0,0.0,0.0,0.0,0.0,0.0,0.0,0.0,0.0,0.0,0.0,0.0,0.0,0.0,0.0,0.0,0.0,0.0,0.0,0.0,0.0,0.0,0.0,0.0,0.0,0.0,0.0,0.0,0.0,0.0,0.0,0.0,0.0,0.0,0.0,0.0,0.0,0.0,0.0,0.0,0.0,0.0,0.0,0.0,0.0,0.0,0.0,0.0,0.0,0.0,0.0,0.0,0.0,0.0,0.0,0.0,0.0,0.0,0.0,0.0,0.0,0.0,0.0,0.0,0.0,0.0,0.0,0.0,0.0,0.0,0.0,0.0,0.0,0.0,0.0,0.0,0.0,0.0,0.0,0.0,0.0,0.0,0.0,0.0,0.0,0.0,0.0,0.0,0.0,0.0,0.0,0.0,0.0,0.0,0.0,0.0,0.0,0.0,0.0,0.0,0.0,0.0,0.0,0.0,0.0,0.0,0.0,0.0,0.0,0.0,0.0,0.0,0.0,0.0,0.0,0.0,0.0,0.0,0.0,0.0,0.0,0.0,0.0,0.0,0.0,0.0,0.0,0.0,0.0,0.0,0.0,0.0,0.0,0.0,0.0,0.0,0.0,0.0,0.0,0.0,0.0,0.0,0.0,0.0,0.0,0.0,0.0,0.0,0.0,0.0,0.0,0.0,0.0,0.0,0.0,0.0,0.0,0.0,0.0,0.0,1.43,0.0,0.0,0.0,1.4097,0.0,0.0,0.0,0.0,0.0,0.0,0.0,0.0,0.0,0.0,0.0,0.0,0.0,0.0,0.0,0.0,0.0,0.0,0.0,0.0,0.0,0.0,0.0,0.0,0.0,0.0,0.0,0.0,0.0,0.0,0.0,0.0,0.0,0.0,0.0,0.0,0.0,0.0,0.0,0.0,0.0,0.0,0.0,0.0,0.0,0.0,0.0,0.0,0.0,0.0,0.0,0.0,0.0,0.0,0.0,0.0,0.0,0.0,0.0,0.0,0.0,0.0,0.0,0.0,0.0,0.0,0.0,0.0,0.0,0.0,0.0,0.0,0.0,0.0,0.0,0.0,0.0,0.0,0.0,0.0,0.0,0.0,0.0,0.0,0.0,0.0,0.0,0.0,0.0,0.0,0.0,0.0,0.0,0.0,0.0,0.0,0.0,0.0,0.0,0.0,0.0,0.0,0.0,0.0,0.0,0.0,0.0,0.0,0.0,0.0,1.43,1.43,1.4209,1.4151,1.4084,0.0,0.0,0.0,0.0,0.0,0.0,0.0,0.0,0.0,0.0,0.0,0.0,0.0,0.0,0.0,0.0,0.0,0.0,0.0,0.0,0.0,0.0,0.0,0.0,0.0,0.0,0.0,0.0,0.0,0.0,0.0,0.0,0.0,0.0,0.0,0.0,0.0,0.0,0.0,0.0,0.0,0.0,0.0,0.0,0.0,0.0,0.0,0.0,0.0,0.0,0.0,0.0,0.0,0.0,0.0,0.0,0.0,0.0,0.0,0.0,0.0,0.0,0.0,0.0,0.0,0.0,0.0,0.0,0.0,0.0,0.0,0.0,0.0,0.0,0.0,0.0,0.0,0.0,0.0,0.0,0.0,0.0,0.0,0.0,0.0,0.0,0.0,0.0,0.0,0.0,0.0,0.0,0.0,0.0,0.0,0.0,0.0,0.0,0.0,0.0,0.0,0.0,0.0,0.0,0.0,0.0,0.0,0.0,0.0,0.0,0.0,0.0,1.4678,1.4594,1.4303,0.0,0.0,0.0,0.0,0.0,0.0,0.0,0.0,0.0,0.0,0.0,0.0,0.0,0.0,0.0,0.0,0.0,0.0,0.0,0.0,0.0,0.0,0.0,0.0,0.0,0.0,0.0,0.0,0.0,0.0,0.0,0.0,0.0,0.0,0.0,0.0,0.0,0.0,0.0,0.0,0.0,0.0,0.0,0.0,0.0,0.0,0.0,0.0,0.0,0.0,0.0,0.0,0.0,0.0,0.0,0.0,0.0,0.0,0.0,0.0,0.0,0.0,0.0,0.0,0.0,0.0,0.0,0.0,0.0,0.0,0.0,0.0,0.0,0.0,0.0,0.0,0.0,0.0,0.0,0.0,0.0,0.0,0.0,0.0,0.0,0.0,0.0,0.0,0.0,0.0,0.0,0.0,0.0,0.0,0.0,0.0,0.0,0.0,0.0,0.0,0.0,0.0,0.0,0.0,0.0,0.0,0.0,0.0,0.0,0.0,1.5379,1.5376,1.6045,0.0,1.496,0.0,0.0,0.0,0.0,0.0,0.0,0.0,0.0,0.0,0.0,0.0,0.0,0.0,0.0,0.0,0.0,0.0,0.0,0.0,0.0,0.0,0.0,0.0,0.0,0.0,0.0,0.0,0.0,0.0,0.0,0.0,0.0,0.0,0.0,0.0,0.0,0.0,0.0,0.0,0.0,0.0,0.0,0.0,0.0,0.0,0.0,0.0,0.0,0.0,0.0,0.0,0.0,0.0,0.0,0.0,0.0,0.0,0.0,0.0,0.0,0.0,0.0,0.0,0.0,0.0,0.0,0.0,0.0,0.0,0.0,0.0,0.0,0.0,0.0,0.0,0.0,0.0,0.0,0.0,0.0,0.0,0.0,0.0,0.0,0.0,0.0,0.0,0.0,0.0,0.0,0.0,0.0,0.0,0.0,0.0,0.0,0.0,0.0,0.0,0.0,0.0,0.0,0.0,0.0,0.0,0.0,0.0,0.0,0.0,0.0,1.5748,1.6193,1.6406,1.5991,0.0,0.0,0.0,0.0,0.0,0.0,0.0,0.0,0.0,0.0,0.0,0.0,0.0,0.0,0.0,0.0,0.0,0.0,0.0,0.0,0.0,0.0,0.0,0.0,0.0,0.0,0.0,0.0,0.0,0.0,0.0,0.0,0.0,0.0,0.0,0.0,0.0,0.0,0.0,0.0,0.0,0.0,0.0,0.0,0.0,0.0,0.0,0.0,0.0,0.0,0.0,0.0,0.0,0.0,0.0,0.0,0.0,0.0,0.0,0.0,0.0,0.0,0.0,0.0,0.0,0.0,0.0,0.0,0.0,0.0,0.0,0.0,0.0,0.0,0.0,0.0,0.0,0.0,0.0,0.0,0.0,0.0,0.0,0.0,0.0,0.0,0.0,0.0,0.0,0.0,0.0,0.0,0.0,0.0,0.0,0.0,0.0,0.0,0.0,0.0,0.0,0.0,0.0,0.0,0.0,0.0,0.0,0.0,0.0,0.0,1.5712,1.6316,1.7226,1.6685,1.5967,1.5163,0.0,0.0,0.0,0.0,0.0,0.0,0.0,0.0,0.0,0.0,0.0,0.0,0.0,0.0,0.0,0.0,0.0,0.0,0.0,0.0,0.0,0.0,0.0,0.0,0.0,0.0,0.0,0.0,0.0,0.0,0.0,0.0,0.0,0.0,0.0,0.0,0.0,0.0,0.0,0.0,0.0,0.0,0.0,0.0,0.0,0.0,0.0,0.0,0.0,0.0,0.0,0.0,0.0,0.0,0.0,0.0,0.0,0.0,0.0,0.0,0.0,0.0,0.0,0.0,0.0,0.0,0.0,0.0,0.0,0.0,0.0,0.0,0.0,0.0,0.0,0.0,0.0,0.0,0.0,0.0,0.0,0.0,0.0,0.0,0.0,0.0,0.0,0.0,0.0,0.0,0.0,0.0,0.0,0.0,0.0,0.0,0.0,0.0,0.0,0.0,0.0,0.0,0.0,0.0,0.0,0.0,0.0,0.0,1.5491,1.6269,1.7338,1.8681,1.7185,1.6197,0.0,0.0,0.0,0.0,0.0,0.0,0.0,0.0,0.0,0.0,0.0,0.0,0.0,0.0,0.0,0.0,0.0,0.0,0.0,0.0,0.0,0.0,0.0,0.0,0.0,0.0,0.0,0.0,0.0,0.0,0.0,0.0,0.0,0.0,0.0,0.0,0.0,0.0,0.0,0.0,0.0,0.0,0.0,0.0,0.0,0.0,0.0,0.0,0.0,0.0,0.0,0.0,0.0,0.0,0.0,0.0,0.0,0.0,0.0,0.0,0.0,0.0,0.0,0.0,0.0,0.0,0.0,0.0,0.0,0.0,0.0,0.0,0.0,0.0,0.0,0.0,0.0,0.0,0.0,0.0,0.0,0.0,0.0,0.0,0.0,0.0,0.0,0.0,0.0,0.0,0.0,0.0,0.0,0.0,0.0,0.0,0.0,0.0,0.0,0.0,0.0,0.0,0.0,0.0,0.0,0.0,0.0,0.0,0.0,1.6269,1.7577,1.8197,1.8131,1.7456,1.6557,0.0,0.0,0.0,0.0,0.0,0.0,0.0,0.0,0.0,0.0,0.0,0.0,0.0,0.0,0.0,0.0,0.0,0.0,0.0,0.0,0.0,0.0,0.0,0.0,0.0,0.0,0.0,0.0,0.0,0.0,0.0,0.0,0.0,0.0,0.0,0.0,0.0,0.0,0.0,0.0,0.0,0.0,0.0,0.0,0.0,0.0,0.0,0.0,0.0,0.0,0.0,0.0,0.0,0.0,0.0,0.0,0.0,0.0,0.0,0.0,0.0,0.0,0.0,0.0,0.0,0.0,0.0,0.0,0.0,0.0,0.0,0.0,0.0,0.0,0.0,0.0,0.0,0.0,0.0,0.0,0.0,0.0,0.0,0.0,0.0,0.0,0.0,0.0,0.0,0.0,0.0,0.0,0.0,0.0,0.0,0.0,0.0,0.0,0.0,0.0,0.0,0.0,0.0,0.0,0.0,0.0,0.0,0.0,0.0,1.7409,1.8483,1.8845,1.8427,1.7608,1.6544,0.0,0.0,0.0,0.0,0.0,0.0,0.0,0.0,0.0,0.0,0.0,0.0,0.0,0.0,0.0,0.0,0.0,0.0,0.0,0.0,0.0,0.0,0.0,0.0,0.0,0.0,0.0,0.0,0.0,0.0,0.0,0.0,0.0,0.0,0.0,0.0,0.0,0.0,0.0,0.0,0.0,0.0,0.0,0.0,0.0,0.0,0.0,0.0,0.0,0.0,0.0,0.0,0.0,0.0,0.0,0.0,0.0,0.0,0.0,0.0,0.0,0.0,0.0,0.0,0.0,0.0,0.0,0.0,0.0,0.0,0.0,0.0,0.0,0.0,0.0,0.0,0.0,0.0,0.0,0.0,0.0,0.0,0.0,0.0,0.0,0.0,0.0,0.0,0.0,0.0,0.0,0.0,0.0,0.0,0.0,0.0,0.0,0.0,0.0,0.0,0.0,0.0,0.0,0.0,0.0,0.0,0.0,0.0,1.6751,1.8862,1.9012,1.9367,1.9908,1.7622,1.6251,0.0,0.0,0.0,0.0,0.0,0.0,0.0,0.0,0.0,0.0,0.0,0.0,0.0,0.0,0.0,0.0,0.0,0.0,0.0,0.0,0.0,0.0,0.0,0.0,0.0,0.0,0.0,0.0,0.0,0.0,0.0,0.0,0.0,0.0,0.0,0.0,0.0,0.0,0.0,0.0,0.0,0.0,0.0,0.0,0.0,0.0,0.0,0.0,0.0,0.0,0.0,0.0,0.0,0.0,0.0,0.0,0.0,0.0,0.0,0.0,0.0,0.0,0.0,0.0,0.0,0.0,0.0,0.0,0.0,0.0,0.0,0.0,0.0,0.0,0.0,0.0,0.0,0.0,0.0,0.0,0.0,0.0,0.0,0.0,0.0,0.0,0.0,0.0,0.0,0.0,0.0,0.0,0.0,0.0,0.0,0.0,0.0,0.0,0.0,0.0,0.0,0.0,0.0,0.0,0.0,0.0,0.0,0.0,0.0,1.9753,2.0697,2.0998,2.0615,1.9225,1.77,0.0,0.0,0.0,0.0,0.0,0.0,0.0,0.0,0.0,0.0,0.0,0.0,0.0,0.0,0.0,0.0,0.0,0.0,0.0,0.0,0.0,0.0,0.0,0.0,0.0,0.0,0.0,0.0,0.0,0.0,0.0,0.0,0.0,0.0,0.0,0.0,0.0,0.0,0.0,0.0,0.0,0.0,0.0,0.0,0.0,0.0,0.0,0.0,0.0,0.0,0.0,0.0,0.0,0.0,0.0,0.0,0.0,0.0,0.0,0.0,0.0,0.0,0.0,0.0,0.0,0.0,0.0,0.0,0.0,0.0,0.0,0.0,0.0,0.0,0.0,0.0,0.0,0.0,0.0,0.0,0.0,0.0,0.0,0.0,0.0,0.0,0.0,0.0,0.0,0.0,0.0,0.0,0.0,0.0,0.0,0.0,0.0,0.0,0.0,0.0,0.0,0.0,0.0,0.0,0.0,0.0,0.0,0.0,0.0,2.2659,2.2937,2.2955,2.2772,2.1193,1.9304,1.7164,0.0,0.0,0.0,0.0,0.0,0.0,0.0,0.0,0.0,0.0,0.0,0.0,0.0,0.0,0.0,0.0,0.0,0.0,0.0,0.0,0.0,0.0,0.0,0.0,0.0,0.0,0.0,0.0,0.0,0.0,0.0,0.0,0.0,0.0,0.0,0.0,0.0,0.0,0.0,0.0,0.0,0.0,0.0,0.0,0.0,0.0,0.0,0.0,0.0,0.0,0.0,0.0,0.0,0.0,0.0,0.0,0.0,0.0,0.0,0.0,0.0,0.0,0.0,0.0,0.0,0.0,0.0,0.0,0.0,0.0,0.0,0.0,0.0,0.0,0.0,0.0,0.0,0.0,0.0,0.0,0.0,0.0,0.0,0.0,0.0,0.0,0.0,0.0,0.0,0.0,0.0,0.0,0.0,0.0,0.0,0.0,0.0,0.0,0.0,0.0,0.0,0.0,0.0,0.0,0.0,0.0,0.0,0.0,2.7245,2.5839,2.5378,2.596,2.3345,2.0962,0.0,0.0,0.0,0.0,0.0,0.0,0.0,0.0,0.0,0.0,0.0,0.0,0.0,0.0,0.0,0.0,0.0,0.0,0.0,0.0,0.0,0.0,0.0,0.0,0.0,0.0,0.0,0.0,0.0,0.0,0.0,0.0,0.0,0.0,0.0,0.0,0.0,0.0,0.0,0.0,0.0,0.0,0.0,0.0,0.0,0.0,0.0,0.0,0.0,0.0,0.0,0.0,0.0,0.0,0.0,0.0,0.0,0.0,0.0,0.0,0.0,0.0,0.0,0.0,0.0,0.0,0.0,0.0,0.0,0.0,0.0,0.0,0.0,0.0,0.0,0.0,0.0,0.0,0.0,0.0,0.0,0.0,0.0,0.0,0.0,0.0,0.0,0.0,0.0,0.0,0.0,0.0,0.0,0.0,0.0,0.0,0.0,0.0,0.0,0.0,0.0,0.0,0.0,0.0,0.0,0.0,0.0,0.0,0.0,3.0708,3.1364,3.0465,2.7951,2.5294,2.2875,0.0,0.0,0.0,0.0,0.0,0.0,0.0,0.0,0.0,0.0,0.0,0.0,0.0,0.0,0.0,0.0,0.0,0.0,0.0,0.0,0.0,0.0,0.0,0.0,0.0,0.0,0.0,0.0,0.0,0.0,0.0,0.0,0.0,0.0,0.0,0.0,0.0,0.0,0.0,0.0,0.0,0.0,0.0,0.0,0.0,0.0,0.0,0.0,0.0,0.0,0.0,0.0,0.0,0.0,0.0,0.0,0.0,0.0,0.0,0.0,0.0,0.0,0.0,0.0,0.0,0.0,0.0,0.0,0.0,0.0,0.0,0.0,0.0,0.0,0.0,0.0,0.0,0.0,0.0,0.0,0.0,0.0,0.0,0.0,0.0,0.0,0.0,0.0,0.0,0.0,0.0,0.0,0.0,0.0,0.0,0.0,0.0,0.0,0.0,0.0,0.0,0.0,0.0,0.0,0.0,0.0,0.0,0.0,2.9839,3.2196,3.3742,3.3374,3.0923,2.7997,2.5034,0.0,0.0,0.0,0.0,0.0,0.0,0.0,0.0,0.0,0.0,0.0,0.0,0.0,0.0,0.0,0.0,0.0,0.0,0.0,0.0,0.0,0.0,0.0,0.0,0.0,0.0,0.0,0.0,0.0,0.0,0.0,0.0,0.0,0.0,0.0,0.0,0.0,0.0,0.0,0.0,0.0,0.0,0.0,0.0,0.0,0.0,0.0,0.0,0.0,0.0,0.0,0.0,0.0,0.0,0.0,0.0,0.0,0.0,0.0,0.0,0.0,0.0,0.0,0.0,0.0,0.0,0.0,0.0,0.0,0.0,0.0,0.0,0.0,0.0,0.0,0.0,0.0,0.0,0.0,0.0,0.0,0.0,0.0,0.0,0.0,0.0,0.0,0.0,0.0,0.0,0.0,0.0,0.0,0.0,0.0,0.0,0.0,0.0,0.0,0.0,0.0,0.0,0.0,0.0,0.0,0.0,0.0,0.0,3.1072,3.261,3.4359,3.4908,3.4015,3.0722,2.7162,0.0,0.0,0.0,0.0,0.0,0.0,0.0,0.0,0.0,0.0,0.0,0.0,0.0,0.0,0.0,0.0,0.0,0.0,0.0,0.0,0.0,0.0,0.0,0.0,0.0,0.0,0.0,0.0,0.0,0.0,0.0,0.0,0.0,0.0,0.0,0.0,0.0,0.0,0.0,0.0,0.0,0.0,0.0,0.0,0.0,0.0,0.0,0.0,0.0,0.0,0.0,0.0,0.0,0.0,0.0,0.0,0.0,0.0,0.0,0.0,0.0,0.0,0.0,0.0,0.0,0.0,0.0,0.0,0.0,0.0,0.0,0.0,0.0,0.0,0.0,0.0,0.0,0.0,0.0,0.0,0.0,0.0,0.0,0.0,0.0,0.0,0.0,0.0,0.0,0.0,0.0,0.0,0.0,0.0,0.0,0.0,0.0,0.0,0.0,0.0,0.0,0.0,0.0,0.0,0.0,0.0,0.0,0.0,3.3599,3.4659,3.6372,3.6399,3.4589,3.1127,2.8064,0.0,0.0,0.0,0.0,0.0,0.0,0.0,0.0,0.0,0.0,0.0,0.0,0.0,0.0,0.0,0.0,0.0,0.0,0.0,0.0,0.0,0.0,0.0,0.0,0.0,0.0,0.0,0.0,0.0,0.0,0.0,0.0,0.0,0.0,0.0,0.0,0.0,0.0,0.0,0.0,0.0,0.0,0.0,0.0,0.0,0.0,0.0,0.0,1.9556,0.0,0.0,0.0,0.0,0.0,0.0,0.0,0.0,0.0,0.0,0.0,0.0,0.0,0.0,0.0,0.0,0.0,0.0,0.0,0.0,0.0,0.0,0.0,0.0,0.0,0.0,0.0,0.0,0.0,0.0,0.0,0.0,0.0,0.0,0.0,0.0,0.0,0.0,0.0,0.0,0.0,0.0,0.0,0.0,0.0,0.0,0.0,0.0,0.0,0.0,0.0,0.0,0.0,0.0,0.0,0.0,0.0,0.0,0.0,3.4598,3.5949,3.7188,3.7109,3.5613,3.2871,2.9679,0.0,0.0,0.0,0.0,0.0,0.0,0.0,0.0,0.0,0.0,0.0,0.0,0.0,0.0,0.0,0.0,0.0,0.0,0.0,0.0,0.0,0.0,0.0,0.0,0.0,0.0,0.0,0.0,0.0,0.0,0.0,0.0,0.0,0.0,0.0,0.0,0.0,0.0,0.0,0.0,0.0,0.0,0.0,0.0,0.0,0.0,0.0,0.0,0.0,0.0,0.0,0.0,0.0,0.0,0.0,0.0,0.0,0.0,0.0,0.0,0.0,0.0,0.0,0.0,0.0,0.0,0.0,0.0,0.0,0.0,0.0,0.0,0.0,0.0,0.0,0.0,0.0,0.0,0.0,0.0,0.0,0.0,0.0,0.0,0.0,0.0,0.0,0.0,0.0,0.0,0.0,0.0,0.0,0.0,0.0,0.0,0.0,0.0,0.0,0.0,0.0,0.0,0.0,0.0,0.0,0.0,0.0,3.2467,3.5109,3.6878,3.751,3.7395,3.6497,3.4528,3.113,2.6195,0.0,0.0,0.0,0.0,0.0,0.0,0.0,0.0,0.0,0.0,0.0,0.0,0.0,0.0,0.0,0.0,0.0,0.0,0.0,0.0,0.0,0.0,0.0,0.0,0.0,0.0,0.0,0.0,0.0,0.0,0.0,0.0,0.0,0.0,0.0,0.0,0.0,0.0,1.7124,1.9267,0.0,0.0,0.0,0.0,0.0,0.0,0.0,0.0,2.0741,0.0,0.0,0.0,0.0,0.0,0.0,0.0,0.0,0.0,0.0,0.0,0.0,0.0,0.0,0.0,0.0,0.0,0.0,0.0,0.0,0.0,0.0,0.0,0.0,0.0,0.0,0.0,0.0,0.0,0.0,0.0,0.0,0.0,0.0,0.0,0.0,0.0,0.0,0.0,0.0,0.0,0.0,0.0,0.0,0.0,0.0,0.0,0.0,0.0,0.0,0.0,0.0,0.0,0.0,0.0,0.0,3.1296,3.4439,3.6567,3.7532,3.806,3.7389,3.5575,3.39,3.0944,2.6607,0.0,0.0,0.0,0.0,0.0,0.0,0.0,0.0,0.0,0.0,0.0,0.0,0.0,0.0,0.0,0.0,0.0,0.0,0.0,0.0,0.0,0.0,0.0,0.0,0.0,0.0,0.0,0.0,0.0,0.0,0.0,0.0,0.0,0.0,0.0,0.0,0.0,0.0,0.0,2.0745,2.1448,0.0,0.0,0.0,0.0,0.0,0.0,0.0,0.0,2.2465,0.0,0.0,0.0,0.0,0.0,0.0,0.0,0.0,0.0,0.0,0.0,0.0,0.0,0.0,0.0,0.0,0.0,0.0,0.0,0.0,0.0,0.0,0.0,0.0,0.0,0.0,0.0,0.0,0.0,0.0,0.0,0.0,0.0,0.0,0.0,0.0,0.0,0.0,0.0,0.0,0.0,0.0,0.0,0.0,0.0,0.0,0.0,0.0,0.0,0.0,0.0,0.0,0.0,0.0,0.0,3.2064,3.5307,3.7479,3.8532,3.8394,3.7673,3.6304,3.4028,3.093,0.0,0.0,0.0,0.0,0.0,0.0,0.0,0.0,0.0,0.0,0.0,0.0,0.0,0.0,0.0,0.0,0.0,0.0,0.0,0.0,0.0,0.0,0.0,0.0,0.0,0.0,0.0,0.0,0.0,0.0,0.0,0.0,0.0,0.0,0.0,0.0,0.0,0.0,0.0,0.0,2.2151,2.3486,2.4531,0.0,0.0,0.0,0.0,0.0,0.0,2.4533,2.4347,0.0,0.0,0.0,0.0,0.0,0.0,0.0,0.0,0.0,0.0,0.0,0.0,0.0,0.0,0.0,0.0,0.0,0.0,0.0,0.0,0.0,0.0,0.0,0.0,0.0,0.0,0.0,0.0,0.0,0.0,0.0,0.0,0.0,0.0,0.0,0.0,0.0,0.0,0.0,0.0,0.0,0.0,0.0,0.0,0.0,0.0,0.0,0.0,0.0,0.0,0.0,0.0,0.0,0.0,0.0,3.2698,3.5946,3.8088,3.9073,3.8519,3.7734,3.6726,3.3936,3.0736,0.0,0.0,0.0,0.0,0.0,0.0,0.0,0.0,0.0,0.0,0.0,0.0,0.0,0.0,0.0,0.0,0.0,0.0,0.0,0.0,0.0,0.0,0.0,0.0,0.0,0.0,0.0,0.0,0.0,0.0,0.0,0.0,0.0,0.0,0.0,0.0,0.0,0.0,0.0,0.0,0.0,2.5498,2.6756,2.5926,0.0,0.0,0.0,0.0,2.5375,2.6294,0.0,0.0,0.0,0.0,0.0,0.0,0.0,0.0,0.0,0.0,0.0,0.0,0.0,0.0,0.0,0.0,0.0,0.0,0.0,0.0,0.0,0.0,0.0,0.0,0.0,0.0,0.0,0.0,0.0,0.0,0.0,0.0,0.0,0.0,0.0,0.0,0.0,0.0,0.0,0.0,0.0,0.0,0.0,0.0,0.0,0.0,0.0,0.0,0.0,0.0,0.0,0.0,0.0,0.0,0.0,0.0,3.408,3.6801,3.8237,3.832,3.8258,3.7196,3.5131,3.2806,2.9919,0.0,0.0,0.0,0.0,0.0,0.0,0.0,0.0,0.0,0.0,0.0,0.0,0.0,0.0,0.0,0.0,0.0,0.0,0.0,0.0,0.0,0.0,0.0,0.0,0.0,0.0,0.0,0.0,0.0,0.0,0.0,0.0,0.0,0.0,0.0,0.0,0.0,0.0,0.0,0.0,0.0,2.6355,2.8554,2.775,2.6665,0.0,0.0,2.8538,2.8334,2.8866,0.0,0.0,0.0,0.0,0.0,0.0,0.0,0.0,0.0,0.0,0.0,0.0,0.0,0.0,0.0,0.0,0.0,0.0,0.0,0.0,0.0,0.0,0.0,0.0,0.0,0.0,0.0,0.0,0.0,0.0,0.0,0.0,0.0,0.0,0.0,0.0,0.0,0.0,0.0,0.0,0.0,0.0,0.0,0.0,0.0,0.0,0.0,0.0,0.0,0.0,0.0,0.0,0.0,0.0,0.0,3.0384,3.4108,3.6879,3.8255,3.8173,3.728,3.6235,3.5109,3.2573,2.991,0.0,0.0,0.0,0.0,0.0,0.0,0.0,0.0,0.0,0.0,0.0,0.0,0.0,0.0,0.0,0.0,0.0,0.0,0.0,0.0,0.0,0.0,0.0,0.0,0.0,0.0,0.0,0.0,0.0,0.0,0.0,0.0,0.0,0.0,0.0,0.0,0.0,0.0,0.0,0.0,0.0,0.0,2.999,2.9892,0.0,0.0,0.0,2.9969,2.9165,0.0,0.0,0.0,0.0,0.0,0.0,0.0,0.0,0.0,0.0,0.0,0.0,0.0,0.0,0.0,0.0,0.0,0.0,0.0,0.0,0.0,0.0,0.0,0.0,0.0,0.0,0.0,0.0,0.0,0.0,0.0,0.0,0.0,0.0,0.0,0.0,0.0,0.0,0.0,0.0,0.0,0.0,0.0,0.0,0.0,0.0,0.0,0.0,0.0,0.0,0.0,0.0,0.0,0.0,0.0,0.0,0.0,3.3878,3.6738,3.8014,3.7567,3.6354,3.5514,3.5054,3.2626,0.0,0.0,0.0,0.0,0.0,0.0,0.0,0.0,0.0,0.0,0.0,0.0,0.0,0.0,0.0,0.0,0.0,0.0,0.0,0.0,0.0,0.0,0.0,0.0,0.0,0.0,0.0,1.245,0.0,0.0,0.0,0.0,0.0,0.0,0.0,0.0,0.0,0.0,0.0,0.0,0.0,0.0,2.9247,3.121,3.1678,3.1839,0.0,0.0,3.1247,3.0291,3.1108,3.0915,0.0,0.0,0.0,0.0,0.0,0.0,0.0,0.0,0.0,0.0,0.0,0.0,0.0,0.0,0.0,0.0,0.0,0.0,0.0,0.0,0.0,0.0,0.0,0.0,0.0,0.0,0.0,0.0,0.0,0.0,0.0,0.0,0.0,0.0,0.0,0.0,0.0,0.0,0.0,0.0,0.0,0.0,0.0,0.0,0.0,0.0,0.0,0.0,0.0,0.0,0.0,0.0,0.0,0.0,0.0,3.3681,3.6669,3.7462,3.5964,3.5756,3.5298,3.4475,3.2824,3.0672,0.0,0.0,0.0,0.0,0.0,0.0,0.0,0.0,0.0,0.0,0.0,0.0,0.0,0.0,0.0,0.0,0.0,0.0,0.0,0.0,0.0,0.0,0.0,0.0,0.0,0.0,0.0,0.0,0.0,0.0,0.0,0.0,0.0,0.0,0.0,0.0,0.0,0.0,0.0,0.0,0.0,2.9763,3.2171,3.2551,3.2669,0.0,0.0,3.2613,3.2716,3.3065,3.2373,2.9457,0.0,0.0,0.0,0.0,0.0,0.0,0.0,0.0,0.0,0.0,0.0,0.0,0.0,0.0,0.0,0.0,0.0,0.0,0.0,0.0,0.0,0.0,0.0,0.0,0.0,0.0,0.0,0.0,0.0,0.0,0.0,0.0,0.0,0.0,0.0,0.0,0.0,0.0,0.0,0.0,0.0,0.0,0.0,0.0,0.0,0.0,0.0,0.0,0.0,0.0,0.0,0.0,0.0,3.0687,3.3842,3.6409,3.7386,3.6774,3.623,3.5537,3.4734,3.3634,3.1815,0.0,0.0,0.0,0.0,0.0,0.0,0.0,0.0,0.0,0.0,0.0,0.0,0.0,0.0,0.0,0.0,0.0,0.0,0.0,0.0,0.0,0.0,0.0,0.0,0.0,0.0,0.0,0.0,2.1548,2.2635,2.2084,0.0,0.0,0.0,0.0,0.0,0.0,0.0,0.0,0.0,0.0,3.0785,3.323,3.3783,0.0,0.0,3.3988,3.3599,3.2705,3.3184,3.2678,2.9769,2.7935,0.0,0.0,0.0,0.0,0.0,0.0,0.0,0.0,0.0,0.0,0.0,0.0,0.0,0.0,0.0,0.0,0.0,0.0,0.0,0.0,0.0,0.0,0.0,0.0,0.0,0.0,0.0,0.0,0.0,0.0,0.0,0.0,0.0,0.0,0.0,0.0,0.0,0.0,0.0,0.0,0.0,0.0,0.0,0.0,0.0,0.0,0.0,0.0,0.0,0.0,0.0,0.0,3.0746,3.3778,3.6195,3.7261,3.7005,3.6401,3.5826,3.5284,3.4434,3.2896,0.0,0.0,0.0,0.0,0.0,0.0,0.0,0.0,0.0,0.0,0.0,0.0,0.0,0.0,0.0,0.0,0.0,0.0,0.0,0.0,0.0,0.0,0.0,0.0,0.0,0.0,0.0,0.0,2.3237,2.3419,2.1335,0.0,0.0,0.0,0.0,0.0,0.0,0.0,0.0,0.0,0.0,3.1625,3.3589,3.4168,3.4376,3.4376,3.4323,3.3891,3.2746,3.3083,3.2631,3.015,0.0,0.0,0.0,0.0,0.0,0.0,0.0,0.0,0.0,0.0,0.0,0.0,0.0,0.0,0.0,0.0,0.0,0.0,0.0,0.0,0.0,0.0,0.0,0.0,0.0,0.0,0.0,0.0,0.0,0.0,0.0,0.0,0.0,0.0,0.0,0.0,0.0,0.0,0.0,0.0,0.0,0.0,0.0,0.0,0.0,0.0,0.0,0.0,0.0,0.0,0.0,0.0,0.0,3.0571,3.3385,3.6049,3.7011,3.621,3.6123,3.6123,3.6048,3.5115,3.3788,3.2033,0.0,0.0,0.0,0.0,0.0,0.0,0.0,0.0,0.0,0.0,0.0,0.0,0.0,0.0,0.0,0.0,0.0,0.0,0.0,0.0,0.0,0.0,0.0,0.0,0.0,0.0,2.221,2.388,2.3924,0.0,0.0,0.0,0.0,0.0,0.0,0.0,0.0,0.0,0.0,3.0843,3.2164,3.3008,3.3406,3.3665,3.3665,3.3504,3.332,3.3201,3.2988,3.2317,0.0,0.0,0.0,0.0,0.0,0.0,0.0,0.0,0.0,0.0,0.0,0.0,0.0,0.0,0.0,0.0,0.0,0.0,0.0,0.0,0.0,0.0,0.0,0.0,0.0,0.0,0.0,1.7855,1.7035,0.0,0.0,0.0,0.0,0.0,0.0,0.0,0.0,0.0,0.0,0.0,2.9482,2.9103,0.0,0.0,0.0,0.0,0.0,0.0,0.0,0.0,0.0,0.0,0.0,0.0,3.1204,3.3591,3.6348,3.7591,3.7299,3.7299,3.7116,3.6724,3.607,3.4461,3.1785,0.0,0.0,0.0,0.0,0.0,0.0,0.0,0.0,0.0,0.0,0.0,0.0,0.0,0.0,0.0,0.0,0.0,0.0,0.0,0.0,0.0,0.0,0.0,0.0,0.0,2.3748,0.0,0.0,0.0,0.0,0.0,0.0,0.0,0.0,0.0,0.0,0.0,2.8294,3.042,3.1209,3.2028,3.3241,3.3434,3.366,0.0,0.0,0.0,0.0,0.0,0.0,0.0,0.0,0.0,0.0,0.0,0.0,0.0,0.0,2.7584,2.5772,2.5927,2.6215,2.5774,0.0,0.0,0.0,0.0,0.0,0.0,0.0,0.0,0.0,0.0,0.0,0.0,0.0,0.0,0.0,0.0,2.0838,0.0,0.0,0.0,0.0,0.0,0.0,0.0,0.0,2.9766,3.1523,3.2391,3.2203,3.2464,0.0,3.1142,2.9172,0.0,0.0,0.0,0.0,0.0,0.0,0.0,0.0,3.2113,3.4506,3.7103,3.8501,3.8501,3.8292,3.7958,3.7475,3.6605,3.5131,3.2946,3.085,2.8695,0.0,0.0,0.0,0.0,0.0,0.0,0.0,0.0,0.0,0.0,0.0,0.0,0.0,0.0,0.0,0.0,0.0,0.0,0.0,0.0,0.0,0.0,0.0,2.5199,0.0,0.0,0.0,0.0,0.0,0.0,0.0,0.0,0.0,2.6342,2.8218,3.0124,3.1793,3.2332,3.2796,3.3492,0.0,0.0,0.0,0.0,0.0,0.0,0.0,3.3173,3.1257,3.1815,3.2335,3.1783,3.1962,3.2342,3.2799,0.0,0.0,2.9504,2.946,2.9752,2.9327,2.9875,3.0391,3.0262,3.1232,3.2177,0.0,0.0,0.0,0.0,0.0,0.0,0.0,0.0,2.8351,2.7304,0.0,2.6119,0.0,0.0,0.0,0.0,0.0,0.0,0.0,0.0,3.5502,3.7032,3.5041,3.6025,3.6657,3.6585,3.4204,3.3296,3.352,2.9311,0.0,0.0,0.0,0.0,0.0,0.0,3.3257,3.6018,3.8368,3.9575,3.9549,3.9,3.8619,3.8331,3.6808,3.578,3.541,3.2798,3.1326,3.1193,2.64,0.0,0.0,0.0,0.0,0.0,0.0,0.0,0.0,0.0,0.0,0.0,0.0,0.0,0.0,0.0,0.0,0.0,0.0,0.0,0.0,2.5118,0.0,0.0,0.0,0.0,0.0,0.0,0.0,0.0,0.0,0.0,2.8921,3.0217,3.1648,3.3177,0.0,0.0,0.0,0.0,3.4529,3.4131,3.3831,3.3642,3.3359,3.3598,3.3848,3.3953,0.0,0.0,3.4674,3.4739,3.4793,3.486,3.5587,3.5487,3.3183,3.27,3.2645,3.2645,3.3239,3.3753,3.3734,3.449,3.533,3.2586,0.0,0.0,0.0,0.0,2.9187,3.0593,3.2807,3.2822,3.2276,3.1306,3.0976,0.0,0.0,0.0,0.0,0.0,0.0,3.2646,3.437,3.6331,3.7026,3.6648,3.6398,3.6601,3.7139,3.5861,3.5814,3.6865,3.5016,3.2445,2.9232,0.0,0.0,0.0,0.0,3.4745,3.7235,3.882,3.9503,3.9334,3.9346,3.8941,3.8148,3.7026,3.6248,3.5805,3.459,3.3275,3.1768,2.9372,0.0,0.0,0.0,0.0,0.0,0.0,0.0,0.0,0.0,0.0,0.0,0.0,0.0,0.0,0.0,0.0,0.0,0.0,0.0,2.5406,2.7596,2.8076,0.0,0.0,0.0,0.0,0.0,0.0,0.0,0.0,0.0,3.2566,3.2665,3.2928,0.0,0.0,3.3801,3.4131,3.4438,3.4984,3.6098,0.0,0.0,0.0,3.5521,3.53,3.4789,3.5695,3.6625,3.7085,3.755,3.7867,3.789,3.8297,3.8355,3.7726,3.6527,3.578,3.5754,3.622,3.6666,3.6702,3.7105,3.7427,3.7635,3.4651,3.2736,3.2572,3.3665,3.3833,3.5186,3.7361,3.7361,3.685,3.6012,3.5829,3.412,3.1342,3.063,0.0,0.0,0.0,3.5415,3.7058,3.7512,3.7779,3.7896,3.7535,3.764,3.8225,3.7382,3.7543,3.8641,3.7764,3.6049,3.3614,0.0,0.0,3.3532,3.5123,3.6682,3.8227,3.9814,4.0316,3.9739,3.9679,3.9267,3.8506,3.7763,3.721,3.6908,3.6047,3.5013,3.3685,3.1889,2.9608,0.0,0.0,0.0,0.0,0.0,0.0,0.0,0.0,0.0,0.0,0.0,1.9877,1.9937,0.0,0.0,0.0,2.4439,2.5683,2.8832,2.9588,0.0,0.0,0.0,0.0,0.0,0.0,0.0,2.9511,3.1711,3.3574,3.4651,3.4685,3.469,3.5101,3.4994,3.4994,3.5309,0.0,3.6229,3.7153,3.688,3.6573,3.6708,3.6725,3.6567,3.624,3.6941,3.7733,3.8186,3.8643,3.8946,3.9139,3.9262,3.931,3.9407,3.8839,3.8293,3.8089,3.8225,3.839,3.8439,3.8799,3.915,4.1443,4.1222,3.7444,3.6827,3.8329,3.8472,3.9576,4.1279,4.1279,4.064,3.9631,4.0144,3.8417,3.5091,3.4551,0.0,0.0,3.7187,3.7828,3.8521,3.8996,3.9043,3.8765,3.9051,3.9336,3.9579,3.8795,3.8728,3.9319,3.8548,3.8218,3.84,3.7055,3.623,3.6122,3.7726,3.8777,3.921,4.1163,4.167,4.0644,4.0081,3.9591,3.9267,3.873,3.845,3.8366,3.716,3.6463,3.6288,3.3993,3.226,3.1269,0.0,0.0,0.0,0.0,0.0,0.0,0.0,0.0,0.0,0.0,0.0,0.0,0.0,0.0,0.0,2.9601,0.0,3.2562,3.1272,0.0,0.0,0.0,2.8663,2.9151,3.062,3.1837,3.234,0.0,0.0,0.0,0.0,3.6867,3.7277,3.7285,3.7206,3.692,3.7423,3.7851,3.7606,3.7439,3.7324,3.7479,3.7667,3.7906,3.8139,3.8216,3.8416,3.8491,3.8565,3.8738,3.8962,3.891,3.8837,3.9106,3.9626,4.0134,3.9458,3.9376,3.9277,3.9307,3.9801,4.021,4.2052,4.2797,4.1323,4.0292,3.9585,3.9594,3.9877,4.0305,4.0315,4.0536,4.0898,4.0341,3.9584,3.8756,3.905,3.9293,3.9517,4.0027,4.0318,4.0354,4.0287,3.9844,3.9103,3.8943,3.9154,3.9564,3.9387,3.9798,4.0773,4.0794,4.0692,4.0542,4.0454,3.9784,3.8608,3.9102,4.0077,4.1399,4.1924,4.2083,4.1799,4.0823,4.0083,3.9591,3.9243,3.8864,3.8402,3.7697,3.7186,3.6906,3.574,3.4268,3.2457,2.9588,0.0,0.0,0.0,0.0,0.0,0.0,0.0,0.0,0.0,2.4145,2.4286,0.0,2.9072,0.0,3.2263,3.3539,3.2721,3.3076,0.0,0.0,3.224,3.2025,3.248,3.3747,3.4653,3.4871,3.6035,3.72,3.8201,3.8456,3.8967,4.0053,3.8456,3.726,3.7563,3.799,3.8406,3.8736,3.8943,3.907,3.902,3.9498,3.9722,3.9898,4.0197,4.0235,3.9309,3.936,3.9306,3.853,3.8421,3.8503,3.8593,3.8772,3.8848,3.8794,3.9391,4.0028,4.0053,4.0038,4.0021,4.1925,4.2479,4.1725,4.084,4.0131,4.1053,4.1308,4.1076,4.1186,4.138,4.155,4.0871,4.0591,4.0599,4.0941,4.0935,4.0764,4.0916,4.0838,4.0561,4.0564,4.0412,4.0153,4.0108,4.0389,4.0901,4.0645,4.0951,4.1669,4.1721,4.1692,4.1734,4.1868,4.1593,4.0824,4.0585,4.0738,4.126,4.1389,4.1621,4.1957,4.1126,4.0437,3.9905,3.9599,3.8937,3.7868,3.7416,3.6803,3.5987,3.5539,3.4615,3.3048,3.0968,2.8794,0.0,0.0,0.0,0.0,0.0,0.0,0.0,0.0,0.0,0.0,0.0,3.1952,0.0,3.4543,0.0,3.4647,3.5034,3.5336,3.5157,3.5102,3.5145,3.5367,3.6716,3.7577,3.7552,3.8511,3.9449,4.0054,3.9637,3.9567,4.0345,3.91,3.8416,3.9247,3.955,3.9802,4.0079,4.0303,4.0163,3.9689,3.9802,3.9837,3.9373,3.9454,3.9375,3.8712,3.874,3.8657,3.8129,3.8016,3.8073,3.8213,3.8315,3.825,3.7816,3.8321,3.8958,3.9229,3.9264,3.9258,4.1567,4.1637,4.0766,4.0478,4.0777,4.2466,4.2773,4.2109,4.236,4.2144,4.163,4.1419,4.1263,4.1152,4.1285,4.1168,4.0857,4.0727,4.0552,4.03,4.0515,4.0875,4.1413,4.1557,4.1969,4.2523,4.2019,4.1938,4.2281,4.2067,4.2002,4.2187,4.224,4.2324,4.2413,4.1715,4.1053,4.0389,4.0634,4.1088,4.1759,4.1173,4.059,4.0032,3.9726,3.8829,3.7298,3.6904,3.6141,3.4871,3.4733,3.435,3.3555,3.2045,3.0556,0.0,2.6832,0.0,0.0,0.0,0.0,0.0,0.0,0.0,0.0,3.3558,3.4676,3.4929,3.6432,3.7338,3.7297,3.7083,3.7126,3.7468,3.782,3.7992,3.8002,3.9297,4.0131,3.9924,4.0725,4.13,4.1326,4.043,3.9778,4.0034,3.9823,3.9925,4.0968,4.117,4.1152,4.1275,4.1141,4.0373,3.9389,3.9209,3.8946,3.8014,3.8016,3.7737,3.7639,3.7611,3.7617,3.7594,3.7381,3.7359,3.7634,3.7814,3.7589,3.66,3.6793,3.7287,3.7861,3.8137,3.8238,4.1931,4.2823,4.2172,4.2482,4.3348,4.275,4.1755,4.0557,4.058,4.0541,4.0509,4.1155,4.1037,4.0425,4.1073,4.0914,4.023,4.0872,4.1372,4.1771,4.1338,4.1439,4.1977,4.1573,4.1663,4.2254,4.2171,4.237,4.2854,4.3019,4.2787,4.2213,4.2404,4.2202,4.1559,0.0,0.0,0.0,4.2065,4.2166,4.2076,4.1119,4.0231,3.9474,3.9372,0.0,3.7885,3.717,3.6631,3.6278,3.5618,0.0,0.0,0.0,0.0,0.0,0.0,0.0,0.0,0.0,0.0,0.0,3.4136,3.4314,3.3038,3.4656,3.6258,3.7369,3.7637,3.8008,3.8699,3.8933,3.9048,3.9178,3.9802,4.0287,4.0285,4.0708,4.1054,4.1001,4.115,4.1451,4.1823,4.1791,4.1748,4.1846,4.1407,4.0901,4.0991,4.1142,4.1272,4.1248,4.0461,3.9371,3.8147,3.8325,3.8493,3.8309,3.863,3.8403,3.7517,3.7309,3.6905,3.6212,3.583,3.587,3.5931,3.5915,3.6027,3.5672,3.5704,3.6103,3.7188,3.7449,3.7515,4.1679,0.0,4.1955,4.219,0.0,4.2074,4.1379,4.0691,4.0595,4.0592,4.0753,4.1484,4.1541,4.112,4.1533,4.1487,4.1055,4.1364,4.1673,4.193,4.1817,4.1884,4.219,4.2143,4.2366,4.2783,4.267,4.2821,4.3184,4.3212,4.2977,4.2587,4.2725,4.2572,4.2158,4.2158,4.2143,4.219,4.2332,4.2486,4.2544,4.1767,4.1032,4.0331,0.0,0.0,0.0,0.0,0.0,0.0,0.0,0.0,0.0,0.0,0.0,3.4403,3.3773,3.3697,3.4266,3.4794,3.5609,3.6827,3.7985,3.785,3.5966,3.7448,3.8807,3.9644,3.981,4.0125,4.0566,4.0645,4.0386,3.9865,3.9996,3.9942,3.9422,3.9637,3.9842,3.989,4.0082,4.0399,4.0667,4.0126,3.9904,4.0111,3.9663,3.9252,3.9317,3.9844,4.025,4.025,3.9803,3.8867,3.7762,3.7627,3.7562,3.716,3.7156,3.7037,3.6481,3.6359,3.6114,3.551,3.5387,3.5387,3.5387,3.5387,3.5387,3.5387,3.5387,3.5572,3.6237,3.6359,3.6359,4.1603,4.1603,4.1603,4.1603,4.1603,4.1503,4.1403,4.1282,0.0,0.0,0.0,4.1766,4.197,4.1944,4.2023,4.205,4.2023,4.1864,4.1809,4.1936,4.2149,4.2318,4.2418,4.2816,4.3101,4.3323,4.3101,4.3101,4.3298,4.3101,4.3014,4.3014,4.3014,4.3014,4.3014,4.3014,4.2788,4.2336,4.2263,4.2386,4.2838,4.2311,4.1756,4.1177,4.0937,4.0158,3.8764,3.8562,3.7999,3.6954,3.6798,3.663,3.6418,3.6772,3.6766,3.6354,3.6437,3.6933,3.7759,3.7736,3.8267,3.9651,4.0592,4.0492,3.8994,4.0255,4.1132,4.1126,4.1478,4.1705,4.1705,4.1326,4.0728,3.974,3.9479,3.8967,3.8085,3.8257,3.8654,3.8584,3.8999,3.9216,3.9252,3.8484,3.764,3.767,3.7738,3.7158,3.7188,3.8372,3.9212,3.8925,3.8755,3.8372,3.7287,3.6902,3.6542,3.5746,3.552,3.5387,3.5387,3.5387,3.5387,3.5418,3.5387,3.5387,3.5387,3.5387,3.5387,3.5387,3.5387,3.5387,3.5387,3.5418,3.5448,4.2735,4.2735,4.2763,4.2788,4.2738,4.2261,4.1781,4.1302,4.1291,4.1266,4.1309,4.1385,4.141,4.141,4.1651,4.1759,4.1784,4.197,4.2332,0.0,4.2651,4.2793,4.3224,4.3075,4.3014,4.307,4.3042,4.3042,4.307,4.3014,4.3014,4.2986,4.3014,4.3014,4.3014,4.3014,4.2964,4.2889,4.2411,4.2238,4.2313,4.1731,4.1177,4.065,4.0602,4.0356,3.988,3.9222,3.9068,3.9477,3.8867,3.8606,3.9033,3.9128,3.9214,3.9364,3.939,3.9577,3.99,3.942,3.8971,3.8704,3.9737,4.0335,4.0116,4.1219,4.1529,4.0564,4.0335,4.0196,4.0166,3.9474,3.894,3.8677,3.8989,3.9127,3.8794,3.8857,3.8873,3.8873,3.9141,3.9098,3.8921,3.8833,3.8566,3.8655,3.767,3.6885,3.6359,3.77,3.8566,3.7858,3.7558,3.7006,3.6135,3.5695,3.5665,3.5448,3.5387,3.5387,3.5387,3.5387,3.5387,3.5387,3.5387,3.5387,3.5387,3.5387,3.5387,3.5387,3.5387,3.5387,3.5387,3.5387,3.5387,4.3014,4.3014,4.3014,4.3014,4.2989,4.2738,4.2487,4.2233,4.2206,4.2057,4.1831,4.2082,4.2233,4.2233,4.2345,4.24,4.24,4.2509,4.2743,4.2971,4.2886,4.2957,4.3156,4.307,4.3014,4.3014,4.3014,4.2653,4.2093,4.2653,4.2653,4.2065,4.2653,4.3014,4.3014,4.3014,4.3014,4.2989,4.2763,4.2612,4.2612,4.2359,4.2108,4.1856,4.1856,4.1686,4.1266,4.104,4.0946,4.1029,4.0952,4.0975,4.1202,4.1228,4.1282,4.1363,4.0617,4.0198,4.0344,3.9549,3.8966,3.8666,3.9287,3.9395,3.8712,3.9678,4.0126,3.9741,3.959,3.9504,3.9504,3.9082,3.855,3.7873,3.8045,3.7858,3.727,3.7149,3.7149,3.7149,3.7149,3.7149,3.7149,3.7149,3.7149,3.7089,3.6542,3.6013,3.551,3.635,3.6998,3.6389,3.6267,3.6043,3.551,3.5387,3.5387,3.5387,3.5387,3.5387,3.5387,3.5387,3.5387,3.5387,3.5387,3.5387,3.5387,3.5387,3.5387,3.5387,3.5387,3.5387,3.5387,3.5387,3.5387,4.3014,4.3014,4.3014,4.3014,4.3014,4.3014,4.3014,4.3014,4.2989,4.2763,4.2462,4.2813,4.3014,4.3014,4.3014,4.3014,4.3014,4.3014,4.3014,4.3014,4.3014,4.3014,4.2958,4.2737,4.2569,4.2541,4.2316,4.1615,4.0899,4.1696,4.181,4.1301,4.2375,4.3014,4.3014,4.3014,4.3014,4.3014,4.3014,4.3014,4.3014,4.3014,4.3014,4.3014,4.2989,4.2869,4.2606,4.2715,4.2649,4.2404,4.27,4.2835,4.268,4.2415,4.2229,4.2069,4.078,3.9844,3.9627,3.9169,3.8625,3.8073,3.8465,3.8216,3.7114,3.7584,3.8261,3.8676,3.8757,3.8728,3.8646,3.8395,3.794,3.7006,3.6855,3.6542,3.5603,3.5387,3.5387,3.5387,3.5387,3.5448,3.5387,3.5387,3.551,3.5572,3.5387,3.5387,3.5387,3.5387,3.5387,3.5387,3.5387,3.5448,3.5387,3.5387,3.5387,3.5387,3.5387,3.5387,3.5387,3.5387,3.5387,3.5387,3.5387,3.5387,3.5387,3.5387,3.5449,3.5562,3.5593,3.5614,3.5759,3.578,3.5614,4.3014,4.3014,4.3014,4.3014,4.3014,4.3014,4.3014,4.3014,4.3014,4.2989,4.2914,4.2989,4.3014,4.3014,4.3014,4.3014,4.3014,4.3014,4.3014,4.3014,4.3014,4.2986,4.2843,4.1834,4.1272,4.1153,4.0252,3.9749,3.9455,3.9638,4.0118,4.1129,4.2372,4.3014,4.3014,4.3014,4.3014,4.3014,4.3014,4.3014,4.3014,4.3014,4.3014,4.3014,4.3014,4.324,4.3606,4.3494,4.3553,4.3994,4.3831,4.3517,4.2922,4.1898,4.1155,4.0877,3.9651,3.855,3.7777,3.8542,3.8119,3.6103,3.6864,3.6946,3.5767,3.5694,3.6255,3.7158,3.7459,3.7489,3.7399,3.6542,3.5951,3.5828,3.5705,3.551,3.5448,3.5387,3.5387,3.5387,3.5387,3.5387,3.5387,3.5387,3.5387,3.5387,3.5387,3.5387,3.5387,3.5387,3.5387,3.5387,3.5387,3.5387,3.5387,3.5387,3.5387,3.5387,3.5387,3.5407,3.5428,3.5449,3.5407,3.5656,3.5511,3.5531,3.549,3.5407,3.5593,3.5956,3.608,3.6163,3.6535,3.6597,3.6328,4.3014,4.3014,4.3014,4.3014,4.3014,4.3014,4.3014,4.3014,4.3014,4.3014,4.3014,4.3014,4.3014,4.3014,4.3014,4.3014,4.3014,4.3014,4.3014,4.2955,4.2523,4.2274,4.2184,4.1277,4.0824,4.0795,4.0255,3.9628,3.9173,3.9696,4.0578,4.1552,4.2814,4.3341,4.3039,4.3014,4.3014,4.3014,4.3014,4.3014,4.3014,4.3014,4.3014,4.3014,4.3014,4.3098,4.3348,4.3379,4.3517,4.3766,4.3819,4.3441,4.2446,4.1727,4.0967,4.0111,3.8726,3.7419,3.6246,3.6664,3.6481,3.5448,3.5859,3.5921,3.5479,3.5387,3.5665,3.6043,3.6175,3.6197,3.6166,3.5675,3.5387,3.5387,3.5387,3.5387,3.5387,3.5387,3.5387,3.5387,3.5387,3.5387,3.5387,3.5387,3.5387,3.5387,3.5387,3.5387,3.5387,3.5387,3.5387,3.5387,3.5387,3.5387,3.5407,3.5387,3.5407,3.5407,3.5387,3.5428,3.5738,3.5832,3.5914,3.6163,3.6163,3.6183,3.6287,3.6246,3.6328,3.6515,3.6535,3.6597,3.6784,3.6804,3.6577,4.3014,4.3014,4.3014,4.3014,4.3014,4.3014,4.3014,4.3014,4.3014,4.3014,4.3014,4.3014,4.3014,4.3014,4.3014,4.3014,4.3014,4.3165,4.299,4.2673,4.219,4.1845,4.1419,4.0517,4.0056,4.0048,3.9654,3.9054,3.8458,3.9918,4.091,4.1496,4.2963,4.3514,4.3065,4.3014,4.3014,4.3014,4.3014,4.3014,4.3014,4.3014,4.3014,4.3014,4.3014,4.3042,4.3101,4.2964,4.2883,4.2908,4.2796,4.2319,4.1309,4.0707,3.9785,3.8602,3.7459,3.6389,3.5448,3.5387,3.5387,3.5387,3.5387,3.5387,3.5407,3.5511,3.5573,3.5625,3.5697,3.5801,3.5407,3.5387,3.5387,3.5387,3.5469,3.5552,3.5438,3.55,3.5562,3.5428,3.5387,3.5387,3.5387,3.5387,3.5387,3.5387,3.5387,3.5387,3.5387,3.5387,3.5387,3.5407,3.549,3.5593,3.5573,3.5614,3.5593,3.5759,3.5842,3.5966,3.6246,3.6287,3.6328,3.6515,3.6722,3.6763,3.6639,3.6701,3.6887,3.6991,3.7074,3.7156,3.7301,3.7218,3.7198,4.3014,4.3014,4.3014,4.3014,4.3014,4.3014,4.3014,4.3014,4.3014,4.3014,4.3014,4.3014,4.3014,4.2955,4.2925,4.2986,4.3062,4.3457,4.3,4.2064,4.2275,4.1831,4.0586,3.9375,3.8794,3.884,3.7933,3.7273,3.7199,3.9521,4.0456,4.0223,4.2632,4.3564,4.3165,4.309,4.3039,4.3037,4.3039,4.2958,4.2958,4.2958,4.2902,4.2793,4.2958,4.2989,4.3075,4.2157,4.1566,4.159,4.0645,3.9803,3.9304,3.8216,3.7006,3.589,3.5603,3.551,3.5418,3.5428,3.5428,3.5428,3.549,3.5428,3.5583,3.5842,3.6048,3.608,3.6411,3.6328,3.5666,3.5573,3.5511,3.5531,3.5852,3.5842,3.549,3.5894,3.5852,3.5583,3.5469,3.5511,3.5449,3.5387,3.5407,3.5428,3.5407,3.5407,3.5469,3.5449,3.5449,3.5573,3.58,3.6048,3.6101,3.6048,3.6266,3.639,3.6453,3.668,3.6742,3.6784,3.6825,3.6867,3.6991,3.7011,3.6867,3.6929,3.7136,3.7363,3.7736,3.7914,3.7777,3.8059,3.7984,4.3014,4.3014,4.3014,4.3014,4.3014,4.3014,4.3014,4.3014,4.3014,4.3014,4.3014,4.3014,4.2715,4.2237,4.2237,4.2696,4.34,4.286,4.2438,4.2156,4.1084,4.028,3.9791,3.882,3.8373,3.8276,3.7904,3.7695,3.8002,4.037,4.1389,4.1406,4.353,4.4593,4.4066,4.3689,4.3489,4.3463,4.3162,4.2625,4.1866,4.181,4.1415,4.0645,4.1386,4.1444,4.0731,4.0245,4.0036,4.0065,3.9598,3.8951,3.7999,3.6785,3.589,3.5479,3.5387,3.5387,3.5428,3.5676,3.5852,3.5842,3.6142,3.6287,3.6328,3.6453,3.6556,3.6597,3.668,3.6597,3.6432,3.6308,3.6276,3.6297,3.6432,3.6494,3.637,3.6453,3.6473,3.6287,3.608,3.5976,3.608,3.5759,3.5511,3.5738,3.5593,3.5573,3.5759,3.5873,3.5924,3.6246,3.6453,3.666,3.6991,3.6701,3.6618,3.6701,3.6804,3.6991,3.7094,3.7218,3.7281,3.7508,3.755,3.7529,3.7508,3.7529,3.7674,3.7711,3.8117,3.815,3.8204,3.8191,3.8191,4.3014,4.3014,4.3014,4.3014,4.3039,4.3215,4.3291,4.3263,4.3438,4.3262,4.2949,4.2892,4.2316,4.152,4.1425,4.1959,4.2876,4.2072,4.164,4.1467,4.0256,3.9444,3.8958,3.8456,3.8225,3.8204,3.8225,3.8225,3.8437,4.0452,4.1443,4.156,4.3754,4.4758,4.4556,4.4242,4.3894,4.3478,4.3065,4.2164,4.0925,4.0892,4.0188,3.9012,3.9722,4.0011,3.921,3.8803,3.8566,3.8536,3.8209,3.758,3.6724,3.589,3.5469,3.5593,3.5614,3.5697,3.5842,3.6131,3.6297,3.6349,3.6597,3.6804,3.6804,3.6949,3.7011,3.7053,3.7198,3.726,3.726,3.726,3.7136,3.6929,3.6929,3.6949,3.6846,3.6929,3.6929,3.6763,3.6515,3.6515,3.666,3.6225,3.6101,3.6308,3.6039,3.6039,3.6246,3.6317,3.6379,3.6742,3.6908,3.7115,3.7363,3.7281,3.7281,3.7363,3.7301,3.7425,3.7455,3.7579,3.7724,3.8067,3.8191,3.8191,3.8191,3.8191,3.8137,3.8037,3.8104,3.8171,3.8158,3.8125,3.8125,4.3039,4.3087,4.3039,4.314,4.3187,4.3472,4.3704,4.3719,4.4032,4.3374,4.2441,4.2472,4.173,4.0785,4.0601,4.0892,4.1173,4.1148,4.0639,3.9824,3.9887,3.9354,3.8329,3.825,3.8225,3.8225,3.8225,3.8225,3.8304,3.9659,4.0669,4.1487,4.2735,4.3783,4.4494,4.4202,4.3747,4.2842,4.2478,4.1638,4.0172,4.0289,3.9476,3.7736,3.8266,3.8803,3.9006,3.7924,3.7374,3.7201,3.627,3.55,3.5707,3.5573,3.5635,3.6007,3.609,3.6328,3.668,3.6763,3.6804,3.6825,3.6846,3.6949,3.7053,3.7301,3.7508,3.755,3.7819,3.8088,3.8067,3.808,3.7757,3.7053,3.7281,3.7322,3.7094,3.7239,3.7343,3.6991,3.6867,3.6825,3.6825,3.6722,3.668,3.6742,3.6701,3.668,3.6763,3.6804,3.6804,3.6949,3.7239,3.755,3.7695,3.7839,3.8005,3.8142,3.8005,3.7984,3.7823,3.7852,3.7731,3.7937,3.787,3.787,3.7837,3.7837,3.7803,3.775,3.7904,3.7971,3.7837,3.777,3.7971,4.3765,4.4062,4.4116,4.4116,4.3973,4.331,4.2978,4.286,4.2227,4.1583,4.1273,4.1242,4.0692,3.9935,3.9759,3.9569,3.9216,3.9237,3.9444,3.9758,3.919,3.8669,3.8271,3.8225,3.8225,3.8225,3.8225,3.8225,3.8437,3.955,4.0364,4.0778,4.1908,4.2654,4.2969,4.2593,4.2129,4.1807,4.1405,4.0487,3.9214,3.9246,3.8504,3.7202,3.7245,3.7445,3.7494,3.6853,3.6497,3.6497,3.6113,3.6039,3.6287,3.637,3.6432,3.6556,3.6597,3.6618,3.6804,3.7094,3.7281,3.7343,3.755,3.7736,3.7757,3.786,3.7976,3.7964,3.8142,3.8225,3.8225,3.8225,3.8026,3.7777,3.7881,3.7902,3.7736,3.786,3.7881,3.7757,3.7488,3.7446,3.7529,3.7322,3.7011,3.7198,3.7053,3.6949,3.7198,3.7281,3.7446,3.7695,3.7902,3.7902,3.7964,3.8005,3.8055,3.8125,3.8071,3.8037,3.7937,3.7803,3.7703,3.7636,3.7569,3.7536,3.7536,3.7502,3.7448,3.7448,3.7549,3.7482,3.7348,3.7415,3.767,4.4288,4.4531,4.4065,4.3835,4.3742,4.2616,4.2138,4.207,4.1492,4.0933,4.0527,4.0486,3.9885,3.9121,3.8969,3.8704,3.8237,3.8225,3.8648,3.9287,3.8681,3.8225,3.8225,3.8225,3.8225,3.8225,3.8225,3.8225,3.8258,3.9045,3.9692,4.0289,4.1043,4.1756,4.2115,4.1863,4.1522,4.1004,4.0621,3.9715,3.8614,3.8434,3.7953,3.7037,3.7136,3.7136,3.6846,3.666,3.6535,3.6379,3.637,3.6515,3.6784,3.6784,3.6867,3.7032,3.7074,3.7136,3.7322,3.7612,3.7757,3.7819,3.8059,3.8204,3.8204,3.8225,3.8225,3.8225,3.8225,3.8225,3.8225,3.8225,3.8225,3.8225,3.8204,3.8225,3.8225,3.8225,3.8204,3.81,3.7935,3.7976,3.7922,3.7798,3.7425,3.7653,3.7508,3.7363,3.7674,3.7736,3.7964,3.8088,3.8142,3.8142,3.8183,3.8171,3.8104,3.8004,3.7904,3.7837,3.7716,3.7515,3.7381,3.7348,3.7301,3.7301,3.7301,3.7213,3.718,3.7213,3.7146,3.7112,3.7079,3.7213,3.7348,4.449,4.4315,4.3111,4.2676,4.2543,4.1731,4.1356,4.1394,4.1547,4.0963,4.0159,3.9953,3.9366,3.8416,3.8341,3.8262,3.8225,3.8225,3.8258,3.8337,3.8225,3.8225,3.8225,3.8225,3.8225,3.8225,3.8225,3.8225,3.8225,3.8337,3.8814,3.9855,4.0051,4.0646,4.1373,4.1852,4.1094,4.0105,3.9996,3.9151,3.7767,3.8034,3.7876,3.7032,3.7653,3.7736,3.7177,3.7301,3.7281,3.6908,3.6887,3.697,3.6929,3.6887,3.7156,3.7508,3.7529,3.7736,3.808,3.8121,3.8129,3.8142,3.8183,3.8225,3.8225,3.8225,3.8225,3.8225,3.8225,3.8225,3.8225,3.8225,3.8225,3.8225,3.8225,3.8225,3.8225,3.8225,3.8225,3.8225,3.8204,3.8225,3.8225,3.8109,3.8121,3.8142,3.81,3.808,3.8067,3.8034,3.8117,3.8125,3.8004,3.7904,3.7803,3.7803,3.7737,3.7636,3.7536,3.7381,3.7314,3.7112,3.6944,3.691,3.6964,3.6978,3.6944,3.6843,3.6742,3.664,3.6674,3.6722,3.6823,3.691,3.6944,4.3359,4.2809,4.2459,4.2311,4.2116,4.1043,4.0511,4.0405,3.9595,3.9221,3.8781,3.8714,3.8603,3.8258,3.8225,3.8225,3.8225,3.8225,3.8225,3.8225,3.8225,3.8225,3.8225,3.8225,3.8225,3.8225,3.8225,3.8225,3.8225,3.8225,3.8404,3.8681,3.8847,3.8913,3.9221,3.9418,3.909,3.8781,3.8747,3.8627,3.8179,3.8121,3.8088,3.7922,3.8067,3.81,3.7819,3.7922,3.7798,3.7384,3.7653,3.7852,3.7757,3.7757,3.7819,3.7922,3.7984,3.8059,3.8183,3.8225,3.8225,3.8225,3.8225,3.8225,3.8225,3.8225,3.8225,3.8225,3.8225,3.8225,3.8225,3.8225,3.8225,3.8225,3.8225,3.8225,3.8225,3.8225,3.8225,3.8225,3.8225,3.8225,3.8225,3.8225,3.8225,3.8225,3.8225,3.8191,3.8104,3.7937,3.787,3.7703,3.7569,3.7415,3.7348,3.7348,3.7314,3.7213,3.7045,3.6775,3.6674,3.6505,3.6355,3.6253,3.6423,3.6491,3.6389,3.6253,3.6152,3.62,3.6369,3.6519,3.6403,3.6403,3.6437,4.2607,4.2138,4.1619,4.1364,4.1171,3.9921,3.9353,3.9221,3.8603,3.8225,3.8225,3.8225,3.8225,3.8225,3.8225,3.8225,3.8225,3.8225,3.8225,3.8225,3.8225,3.8225,3.8225,3.8225,3.8225,3.8225,3.8225,3.8225,3.8225,3.8225,3.8225,3.8258,3.8225,3.8225,3.8337,3.8225,3.8225,3.8225,3.8225,3.8225,3.8225,3.8225,3.8225,3.8191,3.8225,3.8225,3.8204,3.8225,3.808,3.7881,3.8046,3.8225,3.8225,3.8225,3.8225,3.8225,3.8225,3.8225,3.8225,3.8225,3.8225,3.8225,3.8225,3.8225,3.8225,3.8225,3.8225,3.8225,3.8225,3.8225,3.8225,3.8225,3.8225,3.8225,3.8225,3.8225,3.8225,3.8225,3.8225,3.8225,3.8225,3.8225,3.8225,3.8225,3.8225,3.8225,3.8225,3.8071,3.7937,3.7716,3.7515,3.7348,3.7247,3.7146,3.7112,3.7112,3.6978,3.6843,3.666,3.6369,3.6302,3.6152,3.6118,3.605,3.6016,3.6035,3.6035,3.6035,3.605,3.6152,3.6234,3.6268,3.6132,3.6152,3.6132,4.1906,4.1683,4.0484,3.9964,3.9823,3.8714,3.8337,3.8237,3.8258,3.8225,3.8225,3.8225,3.8225,3.8225,3.8225,3.8225,3.8225,3.8225,3.8225,3.8225,3.8225,3.8225,3.8225,3.8225,3.8225,3.8225,3.8225,3.8225,3.8225,3.8225,3.8225,3.8225,3.8225,3.8225,3.8225,3.8225,3.8225,3.8225,3.8225,3.8225,3.8225,3.8225,3.8225,3.8225,3.8225,3.8225,3.8225,3.8225,3.8183,3.8204,3.8225,3.8225,3.8225,3.8225,3.8225,3.8225,3.8225,3.8225,3.8225,3.8225,3.8225,3.8225,3.8225,3.8225,3.8225,3.8225,3.8225,3.8225,3.8225,3.8225,3.8225,3.8225,3.8225,3.8191,3.8191,3.8104,3.8137,3.8191,3.8225,3.8225,3.8225,3.8225,3.8225,3.8225,3.8225,3.8191,3.8125,3.7937,3.7683,3.7415,3.7213,3.7011,3.6978,3.6944,3.691,3.691,3.6708,3.6539,3.6321,3.6118,3.6152,3.605,3.6016,3.6035,3.6035,3.6035,3.6035,3.6035,3.6035,3.6016,3.6118,3.6084,3.6035,3.605,3.605,4.0018,3.9045,3.8747,3.8636,3.8603,3.8304,3.8225,3.8225,3.8225,3.8225,3.8225,3.8225,3.8225,3.8225,3.8225,3.8225,3.8225,3.8225,3.8225,3.8225,3.8225,3.8225,3.8225,3.8225,3.8225,3.8225,3.8225,3.8225,3.8225,3.8225,3.8225,3.8225,3.8225,3.8225,3.8225,3.8225,3.8225,3.8225,3.8225,3.8225,3.8225,3.8225,3.8225,3.8225,3.8225,3.8225,3.8225,3.8225,3.8225,3.8225,3.8225,3.8225,3.8225,3.8225,3.8225,3.8225,3.8225,3.8225,3.8225,3.8225,3.8225,3.8225,3.8225,3.8225,3.8225,3.8225,3.8225,3.8225,3.8225,3.8225,3.8191,3.8225,3.8158,3.8091,3.7904,3.7737,3.777,3.8004,3.8125,3.8158,3.8158,3.8191,3.8191,3.8158,3.8158,3.8158,3.7971,3.7716,3.7415,3.7079,3.6876,3.6708,3.6573,3.6525,3.6525,3.6525,3.6437,3.6302,3.6118,3.6035,3.6035,3.6035,3.6035,3.6035,3.6035,3.6035,3.6035,3.6035,3.6035,3.6035,3.6035,3.6055,3.6074,3.6055,3.6113,3.8847,3.8225,3.8225,3.8225,3.8225,3.8225,3.8225,3.8225,3.8225,3.8225,3.8225,3.8225,3.8225,3.8225,3.8225,3.8225,3.8225,3.8225,3.8225,3.8225,3.8225,3.8225,3.8225,3.8225,3.8225,3.8225,3.8225,3.8225,3.8225,3.8225,3.8225,3.8225,3.8225,3.8225,3.8225,3.8225,3.8225,3.8225,3.8225,3.8225,3.8225,3.8225,3.8225,3.8225,3.8225,3.8225,3.8225,3.8225,3.8225,3.8225,3.8225,3.8225,3.8225,3.8225,3.8225,3.8225,3.8225,3.8225,3.8225,3.8225,3.8225,3.8225,3.8225,3.8225,3.8225,3.8225,3.8225,3.8225,3.8225,3.8225,3.8191,3.7803,3.7803,3.7837,3.7582,3.7381,3.7381,3.7549,3.7703,3.7737,3.7803,3.777,3.777,3.787,3.777,3.767,3.7536,3.7314,3.7025,3.6688,3.6539,3.6336,3.6186,3.6084,3.6084,3.6084,3.6152,3.6084,3.605,3.6035,3.6035,3.6035,3.6035,3.6035,3.6035,3.6035,3.6035,3.6035,3.6074,3.6094,3.6113,3.6133,3.6191,3.6289,3.6367,3.8225,3.8225,3.8225,3.8225,3.8225,3.8225,3.8225,3.8225,3.8225,3.8225,3.8225,3.8225,3.8225,3.8225,3.8225,3.8225,3.8225,3.8225,3.8225,3.8225,3.8225,3.8225,3.8225,3.8225,3.8225,3.8225,3.8225,3.8225,3.8225,3.8225,3.8225,3.8225,3.8225,3.8225,3.8225,3.8225,3.8225,3.8225,3.8225,3.8225,3.8225,3.8225,3.8225,3.8225,3.8225,3.8225,3.8225,3.8225,3.8225,3.8225,3.8225,3.8225,3.8225,3.8225,3.8225,3.8225,3.8225,3.8225,3.8225,3.8225,3.8225,3.8225,3.8225,3.8225,3.8225,3.8225,3.8225,3.8137,3.8137,3.8071,3.8071,3.7603,3.7348,3.7381,3.7213,3.7045,3.7011,3.6978,3.6944,3.7213,3.7415,3.7448,3.7381,3.7381,3.728,3.718,3.7045,3.691,3.662,3.6403,3.6268,3.6166,3.605,3.6016,3.6035,3.6035,3.6035,3.6035,3.6035,3.6035,3.6035,3.6035,3.6035,3.6035,3.6035,3.6074,3.6152,3.625,3.6269,3.623,3.6387,3.6601,3.6621,3.6582,3.666,3.8225,3.8225,3.8225,3.8225,3.8225,3.8225,3.8225,3.8225,3.8225,3.8225,3.8225,3.8225,3.8225,3.8225,3.8225,3.8225,3.8225,3.8225,3.8225,3.8225,3.8225,3.8225,3.8225,3.8225,3.8225,3.8225,3.8225,3.8225,3.8225,3.8225,3.8225,3.8225,3.8225,3.8225,3.8225,3.8225,3.8225,3.8225,3.8225,3.8225,3.8225,3.8225,3.8225,3.8225,3.8233,3.8245,3.8191,3.8225,3.8225,3.8225,3.8225,3.8225,3.8225,3.8225,3.8225,3.8225,3.8225,3.8225,3.8225,3.8225,3.8225,3.8225,3.8225,3.8225,3.8225,3.8191,3.8191,3.8071,3.787,3.7703,3.7683,3.7247,3.7112,3.7079,3.6876,3.664,3.6573,3.6471,3.6491,3.6876,3.7045,3.7146,3.7011,3.6978,3.6978,3.6843,3.6708,3.664,3.6471,3.6268,3.6084,3.605,3.6016,3.6035,3.6035,3.6035,3.6035,3.6035,3.6035,3.6035,3.6035,3.6035,3.6035,3.6152,3.6211,3.625,3.6348,3.6538,3.666,3.6758,3.6953,3.7168,3.7051,3.6973,3.7109,3.8225,3.8225,3.8225,3.8225,3.8225,3.8225,3.8225,3.8225,3.8225,3.8225,3.8225,3.8225,3.8225,3.8225,3.8225,3.8225,3.8225,3.8225,3.8225,3.8225,3.8225,3.8225,3.8225,3.8225,3.8225,3.8225,3.8225,3.8225,3.8225,3.8225,3.8225,3.8225,3.8225,3.8225,3.8225,3.8225,3.8225,3.8225,3.8225,3.8225,3.8225,3.8225,3.8225,3.8233,3.8378,3.8398,3.8253,3.846,3.8398,3.8233,3.8225,3.8225,3.8245,3.8245,3.8245,3.8245,3.8225,3.8225,3.8225,3.8225,3.8225,3.8225,3.8245,3.8225,3.8225,3.8191,3.8091,3.787,3.7603,3.7348,3.7314,3.6863,3.6674,3.6708,3.6471,3.6302,3.62,3.6084,3.6287,3.6592,3.6674,3.6674,3.6525,3.6539,3.664,3.6539,3.6369,3.6302,3.6268,3.6186,3.6035,3.6035,3.6035,3.6035,3.6035,3.6035,3.6113,3.6113,3.6113,3.6113,3.6191,3.6269,3.6328,3.6406,3.6465,3.6582,3.6777,3.6992,3.7148,3.7305,3.7461,3.7559,3.7441,3.7402,3.7559,3.8225,3.8225,3.8225,3.8225,3.8225,3.8225,3.8225,3.8225,3.8225,3.8225,3.8225,3.8225,3.8225,3.8225,3.8225,3.8225,3.8225,3.8225,3.8225,3.8225,3.8225,3.8225,3.8225,3.8225,3.8225,3.8225,3.8225,3.8225,3.8225,3.8225,3.8225,3.8225,3.8225,3.8225,3.8225,3.8225,3.8225,3.8225,3.8225,3.8225,3.8225,3.8225,3.8253,3.8316,3.8634,3.8675,3.8626,3.8677,3.8731,3.8559,3.8455,3.8401,3.8481,3.846,3.846,3.844,3.8328,3.8233,3.8316,3.8357,3.844,3.8585,3.8502,3.8448,3.8305,3.8212,3.7893,3.7556,3.718,3.6978,3.691,3.6389,3.6234,3.6268,3.6186,3.6035,3.605,3.6016,3.6016,3.6219,3.6302,3.6321,3.6273,3.6219,3.6355,3.6355,3.6186,3.6152,3.6118,3.6118,3.6035,3.6035,3.6035,3.6035,3.6035,3.6035,3.6152,3.6309,3.6348,3.6367,3.6504,3.6621,3.6719,3.6894,3.7012,3.7168,3.7324,3.7461,3.7598,3.7754,3.791,3.7969,3.793,3.793,3.8027,3.8225,3.8225,3.8225,3.8225,3.8225,3.8225,3.8225,3.8225,3.8225,3.8225,3.8225,3.8225,3.8225,3.8225,3.8225,3.8225,3.8225,3.8225,3.8225,3.8225,3.8225,3.8225,3.8225,3.8225,3.8225,3.8225,3.8225,3.8225,3.8225,3.8225,3.8225,3.8225,3.8225,3.8225,3.8225,3.8225,3.8225,3.8225,3.8225,3.8225,3.8266,3.8266,3.844,3.8621,3.8827,3.8904,3.9034,3.9006,3.9006,3.9172,3.9,3.9041,3.9289,3.9337,3.9337,3.9109,3.875,3.8357,3.8654,3.8737,3.8827,3.9055,3.9179,3.9144,3.8719,3.818,3.7725,3.72,3.6863,3.6606,3.6559,3.6253,3.6084,3.605,3.605,3.6035,3.6035,3.6035,3.6035,3.6094,3.6264,3.623,3.6128,3.6089,3.605,3.6016,3.6035,3.6035,3.6035,3.6035,3.6035,3.6035,3.6035,3.6035,3.6035,3.6035,3.623,3.6445,3.6523,3.6621,3.6836,3.7031,3.7344,3.75,3.7598,3.7676,3.7793,3.793,3.8047,3.8164,3.8262,3.8379,3.8513,3.8532,3.8418,3.8225,3.8225,3.8225,3.8225,3.8225,3.8225,3.8225,3.8225,3.8225,3.8225,3.8225,3.8225,3.8225,3.8225,3.8225,3.8225,3.8225,3.8225,3.8225,3.8225,3.8225,3.8225,3.8225,3.8225,3.8225,3.8225,3.8225,3.8225,3.8225,3.8225,3.8225,3.8225,3.8225,3.8225,3.8225,3.8225,3.8225,3.8225,3.8245,3.8316,3.8481,3.8572,3.869,3.8918,3.9109,3.9128,3.8975,3.9074,3.9083,3.9204,3.9053,3.9157,3.9399,3.9447,3.9413,3.915,3.8897,3.8842,3.9137,3.9179,3.922,3.9199,3.9212,3.9012,3.8665,3.8315,3.7771,3.7214,3.7038,3.6748,3.6346,3.6084,3.605,3.6035,3.6035,3.6021,3.6021,3.6035,3.6055,3.6133,3.6191,3.6152,3.6133,3.6074,3.6035,3.6035,3.6035,3.6035,3.6035,3.6035,3.6035,3.6035,3.6035,3.6035,3.6035,3.6035,3.6328,3.6523,3.666,3.6851,3.7168,3.7441,3.7754,3.7969,3.8047,3.8144,3.8242,3.8281,3.834,3.8437,3.8611,3.8611,3.8611,3.8611,3.8552,3.8225,3.8225,3.8225,3.8225,3.8225,3.8225,3.8225,3.8225,3.8225,3.8225,3.8225,3.8225,3.8225,3.8225,3.8225,3.8225,3.8225,3.8225,3.8225,3.8225,3.8225,3.8225,3.8225,3.8225,3.8225,3.8225,3.8225,3.8225,3.8233,3.8295,3.8336,3.8225,3.8225,3.8225,3.8225,3.8225,3.8233,3.8419,3.8543,3.8716,3.8889,3.8883,3.8979,3.9175,3.9307,3.9252,3.8884,3.8924,3.9101,3.9403,3.9166,3.9277,3.9643,3.9663,3.9502,3.9327,3.919,3.926,3.938,3.9374,3.9333,3.9199,3.9044,3.8935,3.8523,3.8342,3.8022,3.7272,3.704,3.6725,3.6372,3.6113,3.6016,3.6035,3.6035,3.606,3.6099,3.6113,3.6191,3.6309,3.6328,3.6191,3.6152,3.6094,3.6055,3.6035,3.6035,3.6055,3.6055,3.6094,3.6191,3.6211,3.6094,3.6211,3.6445,3.6445,3.6621,3.6719,3.6855,3.7203,3.7637,3.7871,3.8105,3.8301,3.8398,3.8418,3.8418,3.8532,3.8611,3.8611,3.8611,3.8611,3.8611,3.8611,3.8611,3.8225,3.8225,3.8225,3.8225,3.8225,3.8225,3.8225,3.8225,3.8225,3.8225,3.8225,3.8225,3.8225,3.8225,3.8225,3.8225,3.8225,3.8225,3.8225,3.8225,3.8225,3.8225,3.8225,3.8225,3.8225,3.8225,3.8225,3.8225,3.8295,3.8484,3.8448,3.8274,3.8419,3.8274,3.8328,3.844,3.853,3.8745,3.8979,3.9227,3.9247,3.9171,3.9132,3.9353,3.9303,3.9247,3.9537,3.9253,3.9342,3.983,3.9437,3.9417,3.9821,3.977,3.9607,3.9484,3.9448,3.9484,3.9444,3.9369,3.9358,3.9437,3.9282,3.8923,3.8557,3.8141,3.7747,3.741,3.721,3.6901,3.6597,3.6328,3.6269,3.6152,3.6211,3.6289,3.6309,3.6211,3.6289,3.6484,3.6543,3.6523,3.6504,3.6523,3.6309,3.6269,3.6387,3.6406,3.625,3.6269,3.6445,3.6465,3.625,3.6445,3.7012,3.7109,3.6992,3.7207,3.7441,3.7832,3.8317,3.8437,3.8379,3.8437,3.8552,3.8591,3.8611,3.8611,3.8611,3.8611,3.8611,3.8611,3.8611,3.8611,3.8611,3.8225,3.8225,3.8225,3.8225,3.8225,3.8225,3.8225,3.8225,3.8225,3.8225,3.8225,3.8225,3.8225,3.8225,3.8225,3.8225,3.8225,3.8225,3.8225,3.8225,3.8225,3.8225,3.8225,3.8191,3.8225,3.8191,3.8191,3.8378,3.8592,3.8616,3.8658,3.8651,3.8828,3.9006,3.904,3.8855,3.8931,3.8918,3.9095,3.9224,3.9231,3.9166,3.9136,3.9309,3.9278,3.9085,3.9007,3.8902,3.9176,3.9429,3.9321,3.9518,3.9806,3.9714,3.957,3.9409,3.9409,3.9301,3.9228,3.923,3.9466,3.9237,3.9027,3.875,3.859,3.8393,3.8105,3.7793,3.7519,3.7285,3.7031,3.6894,3.6797,3.6543,3.6465,3.6543,3.6582,3.6523,3.6699,3.7031,3.707,3.707,3.7051,3.7051,3.6758,3.6523,3.666,3.6738,3.6582,3.6562,3.6758,3.6875,3.6719,3.6797,3.7344,3.7363,3.7285,3.7617,3.7952,3.8242,3.8552,3.8591,3.8552,3.8611,3.8611,3.8611,3.8611,3.8611,3.8611,3.8611,3.8611,3.8611,3.8611,3.8611,3.8611,3.8225,3.8225,3.8225,3.8225,3.8225,3.8225,3.8225,3.8225,3.8225,3.8225,3.8225,3.8225,3.8225,3.8225,3.8225,3.8225,3.8225,3.8225,3.8225,3.8225,3.8225,3.8158,3.8037,3.7971,3.7904,3.7924,3.8022,3.8214,3.8351,3.8466,3.8722,3.9022,3.9359,3.9353,3.9101,3.93,3.9271,3.9118,3.9175,3.9227,3.9323,3.9185,3.9138,3.9152,3.9063,3.8882,3.8756,3.8683,3.8865,3.9103,3.9139,3.9192,3.9373,3.9389,3.9228,3.9119,3.8994,3.8885,3.8829,3.8974,3.9245,3.8974,3.8829,3.8647,3.8611,3.8611,3.834,3.8184,3.8008,3.7793,3.7461,3.7305,3.7129,3.6875,3.6855,3.6934,3.7031,3.7051,3.7344,3.7637,3.7519,3.7305,3.7363,3.7324,3.7246,3.6992,3.6953,3.7012,3.6953,3.6992,3.7207,3.7285,3.7246,3.7422,3.7656,3.7637,3.7656,3.7988,3.8281,3.832,3.8496,3.8591,3.8611,3.8611,3.8611,3.8611,3.8611,3.8611,3.8611,3.8611,3.8611,3.8611,3.8611,3.8611,3.8611,3.8225,3.8225,3.8225,3.8225,3.8225,3.8225,3.8225,3.8225,3.8225,3.8225,3.8225,3.8225,3.8225,3.8225,3.8225,3.8225,3.8225,3.8225,3.8225,3.8225,3.8125,3.7937,3.7791,3.7657,3.7658,3.7321,3.7637,3.7988,3.7966,3.8522,3.8925,3.9111,3.9307,3.9282,3.8567,3.8904,3.9121,3.9146,3.9433,3.9517,3.9414,3.9201,3.9116,3.9047,3.8829,3.8647,3.8611,3.8611,3.8793,3.8994,3.8829,3.8902,3.9139,3.8902,3.8756,3.8683,3.8683,3.8647,3.8611,3.8647,3.8683,3.872,3.8647,3.8611,3.8611,3.8611,3.8591,3.8379,3.8203,3.7972,3.7757,3.7617,3.748,3.7305,3.7285,3.7305,3.7422,3.7461,3.7715,3.7988,3.7656,3.7363,3.75,3.7578,3.7617,3.75,3.7344,3.7285,3.7305,3.75,3.7715,3.7754,3.7773,3.7871,3.8027,3.7969,3.8066,3.8379,3.8552,3.8552,3.8552,3.8591,3.8611,3.8611,3.8611,3.8611,3.8611,3.8611,3.8611,3.8611,3.8611,3.8611,3.8611,3.8611,3.8611,3.8225,3.8225,3.8225,3.8225,3.8225,3.8225,3.8225,3.8225,3.8225,3.8225,3.8225,3.8225,3.8225,3.8225,3.8225,3.8225,3.8225,3.8225,3.8225,3.8158,3.7971,3.775,3.761,3.7577,3.7549,3.7642,3.7909,3.8297,3.8683,3.8797,3.8915,3.9118,3.9089,3.9085,3.9249,3.9417,3.9441,3.921,3.9257,3.9264,3.9011,3.8865,3.8849,3.8849,3.8647,3.8611,3.8611,3.8611,3.8683,3.8849,3.8647,3.8683,3.8849,3.8611,3.8611,3.8611,3.8611,3.8611,3.8611,3.8611,3.8611,3.8611,3.8611,3.8611,3.8611,3.8611,3.8611,3.8611,3.8418,3.8301,3.8281,3.8262,3.8105,3.7793,3.7679,3.7679,3.7738,3.7738,3.7874,3.8242,3.8164,3.8102,3.8105,3.8027,3.8008,3.8066,3.793,3.7793,3.7773,3.8047,3.8337,3.8337,3.8356,3.8396,3.8435,3.8262,3.8242,3.8457,3.8591,3.8591,3.8611,3.8611,3.8611,3.8611,3.8611,3.8611,3.8611,3.8611,3.8611,3.8611,3.8611,3.8611,3.8611,3.8611,3.8611,3.8225,3.8225,3.8225,3.8225,3.8225,3.8225,3.8225,3.8225,3.8225,3.8225,3.8225,3.8225,3.8225,3.8225,3.8225,3.8225,3.8225,3.8225,3.8037,3.8004,3.777,3.757,3.7502,3.7533,3.7474,3.7678,3.7987,3.8385,3.8529,3.8533,3.8698,3.8823,3.8756,3.8862,3.9113,3.9169,3.9152,3.8971,3.8974,3.8902,3.872,3.8611,3.8611,3.8611,3.8611,3.8611,3.8611,3.8611,3.8611,3.8611,3.8611,3.8611,3.8611,3.8611,3.8611,3.8611,3.8611,3.8611,3.8611,3.8611,3.8611,3.8611,3.8611,3.8611,3.8611,3.8611,3.8611,3.8611,3.8611,3.8611,3.8591,3.8611,3.8457,3.8125,3.8105,3.8125,3.8125,3.8125,3.8144,3.8476,3.8611,3.8611,3.8611,3.8571,3.8474,3.8532,3.8571,3.8359,3.8184,3.8398,3.8611,3.8611,3.8591,3.8571,3.8552,3.8532,3.8552,3.8611,3.8611,3.8611,3.8611,3.8611,3.8611,3.8611,3.8611,3.8611,3.8611,3.8611,3.8611,3.8611,3.8611,3.8611,3.8611,3.8611,3.8611,3.8158,3.8171,3.8171,3.8158,3.8191,3.8125,3.8125,3.8191,3.8191,3.8225,3.8225,3.8225,3.8225,3.8171,3.8191,3.8199,3.8174,3.8174,3.8035,3.7799,3.7699,3.7541,3.7414,3.7352,3.749,3.7559,3.7802,3.8239,3.8044,3.839,3.8625,3.8647,3.8647,3.872,3.8756,3.8793,3.8756,3.872,3.872,3.8683,3.8611,3.8611,3.8611,3.8611,3.8611,3.8611,3.8611,3.8611,3.8611,3.8611,3.8611,3.8611,3.8611,3.8611,3.8611,3.8611,3.8611,3.8611,3.8611,3.8611,3.8611,3.8611,3.8611,3.8611,3.8611,3.8611,3.8611,3.8611,3.8611,3.8611,3.8611,3.8611,3.8611,3.8513,3.8532,3.8532,3.8532,3.8532,3.8532,3.8611,3.8611,3.8611,3.8611,3.8611,3.8611,3.8611,3.8611,3.8591,3.8418,3.8437,3.8611,3.8611,3.8611,3.8611,3.8611,3.8611,3.8611,3.8611,3.8611,3.8611,3.8611,3.8611,3.8611,3.8611,3.8611,3.8611,3.8611,3.8611,3.8611,3.8611,3.8611,3.8611,3.8611,3.8611,3.8611,3.7549,3.777,3.775,3.777,3.7716,3.7536,3.7549,3.7783,3.8058,3.8225,3.8225,3.8225,3.8145,3.8191,3.7904,3.8008,3.8071,3.8044,3.8097,3.7986,3.78,3.7704,3.7658,3.7645,3.7704,3.7868,3.8105,3.832,3.8415,3.8611,3.8611,3.8611,3.8611,3.8611,3.8611,3.8611,3.8611,3.8611,3.8611,3.8611,3.8611,3.8611,3.8611,3.8611,3.8611,3.8611,3.8611,3.8611,3.8611,3.8611,3.8611,3.8611,3.8611,3.8611,3.8611,3.8611,3.8611,3.8611,3.8611,3.8611,3.8611,3.8611,3.8611,3.8611,3.8611,3.8611,3.8611,3.8611,3.8611,3.8611,3.8611,3.8611,3.8611,3.8611,3.8611,3.8611,3.8611,3.8611,3.8611,3.8611,3.8611,3.8611,3.8611,3.8611,3.8611,3.8611,3.8611,3.8611,3.8611,3.8611,3.8611,3.8611,3.8611,3.8611,3.8611,3.8611,3.8611,3.8611,3.8611,3.8611,3.8611,3.8611,3.8611,3.8611,3.8611,3.8611,3.8611,3.8611,3.8611,3.8611,3.8611,3.8611,3.8611,3.8611,3.8611,3.7213,3.7381,3.7381,3.7314,3.718,3.7112,3.7146,3.7247,3.7603,3.777,3.777,3.7737,3.7872,3.7935,3.7787,3.7888,3.828,3.8162,3.8076,3.7953,3.7942,3.7861,3.7846,3.792,3.8005,3.8223,3.8398,3.8552,3.8611,3.8611,3.8611,3.8611,3.8611,3.8611,3.8611,3.8611,3.8611,3.8611,3.8611,3.8611,3.8611,3.8611,3.8611,3.8611,3.8611,3.8611,3.8611,3.8611,3.8611,3.8611,3.8611,3.8611,3.8611,3.8611,3.8611,3.8611,3.8611,3.8611,3.8611,3.8611,3.8611,3.8611,3.8611,3.8611,3.8611,3.8611,3.8611,3.8611,3.8611,3.8611,3.8611,3.8611,3.8611,3.8611,3.8611,3.8611,3.8611,3.8611,3.8611,3.8611,3.8611,3.8611,3.8611,3.8611,3.8611,3.8611,3.8611,3.8611,3.8611,3.8611,3.8611,3.8611,3.8611,3.8611,3.8611,3.8611,3.8611,3.8611,3.8611,3.8611,3.8611,3.8611,3.8611,3.8611,3.8611,3.8611,3.8611,3.8611,3.8611,3.8611,3.8611,3.8611,3.8611,3.8611,3.8611,3.7011,3.7045,3.7045,3.6876,3.6586,3.6823,3.6775,3.6539,3.6937,3.7105,3.7193,3.7173,3.7468,3.7825,3.7769,3.7995,3.8262,3.8242,3.8111,3.7861,3.8003,3.8019,3.8017,3.8008,3.8223,3.8457,3.8611,3.8611,3.8611,3.8611,3.8611,3.8611,3.8611,3.8611,3.8611,3.8611,3.8611,3.8611,3.8611,3.8611,3.8611,3.8611,3.8611,3.8611,3.8611,3.8611,3.8611,3.8611,3.8611,3.8611,3.8611,3.8611,3.8611,3.8611,3.8611,3.8611,3.8611,3.8611,3.8611,3.8611,3.8611,3.8611,3.8611,3.8611,3.8611,3.8611,3.8611,3.8611,3.8611,3.8611,3.8611,3.8611,3.8611,3.8611,3.8611,3.8611,3.8611,3.8611,3.8611,3.8611,3.8611,3.8611,3.8611,3.8611,3.8611,3.8611,3.8611,3.8611,3.8611,3.8611,3.8611,3.8611,3.8611,3.8611,3.8611,3.8611,3.8611,3.8611,3.8611,3.8611,3.8611,3.8611,3.8611,3.8611,3.8611,3.8611,3.8611,3.8611,3.8611,3.8611,3.8611,3.8611,3.8611,3.8611,3.8611,3.6403,3.6654,3.6654,3.6586,3.6485,3.6336,3.6253,3.6191,3.6573,3.7069,3.7479,3.7588,3.7754,3.8066,3.7863,3.8052,3.8354,3.8311,3.8239,3.8285,3.8344,3.8305,3.8396,3.834,3.8493,3.8552,3.8611,3.8611,3.8611,3.8611,3.8611,3.8611,3.8611,3.8611,3.8611,3.8611,3.8611,3.8611,3.8611,3.8611,3.8611,3.8611,3.8611,3.8611,3.8611,3.8611,3.8611,3.8611,3.8611,3.8611,3.8611,3.8611,3.8611,3.8611,3.8611,3.8611,3.8611,3.8611,3.8611,3.8611,3.8611,3.8611,3.8611,3.8611,3.8611,3.8611,3.8611,3.8611,3.8611,3.8611,3.8611,3.8611,3.8611,3.8611,3.8611,3.8611,3.8611,3.8611,3.8611,3.8611,3.8611,3.8611,3.8611,3.8611,3.8611,3.8611,3.8611,3.8611,3.8611,3.8611,3.8611,3.8611,3.8611,3.8611,3.8611,3.8611,3.8611,3.8611,3.8611,3.8611,3.8611,3.8611,3.8611,3.8611,3.8611,3.8611,3.8611,3.8611,3.8611,3.8611,3.8611,3.8611,3.8611,3.8611,3.8611,3.6118,3.6268,3.6268,3.6268,3.6234,3.6084,3.6133,3.6328,3.6616,3.7118,3.7689,3.7644,3.7763,3.814,3.7932,3.8114,3.8432,3.8311,3.8373,3.8532,3.8611,3.8571,3.8611,3.8611,3.8591,3.8611,3.8611,3.8611,3.8611,3.8611,3.8611,3.8611,3.8611,3.8611,3.8611,3.8611,3.8611,3.8611,3.8611,3.8611,3.8611,3.8611,3.8611,3.8611,3.8611,3.8611,3.8611,3.8611,3.8611,3.8611,3.8611,3.8611,3.8611,3.8611,3.8611,3.8611,3.8611,3.8611,3.8611,3.8611,3.8611,3.8611,3.8611,3.8611,3.8611,3.8611,3.8611,3.8611,3.8611,3.8611,3.8611,3.8611,3.8611,3.8611,3.8611,3.8611,3.8611,3.8611,3.8611,3.8611,3.8611,3.8611,3.8611,3.8611,3.8611,3.8611,3.8611,3.8611,3.8611,3.8611,3.8611,3.8611,3.8611,3.8611,3.8611,3.8611,3.8611,3.8611,3.8611,3.8611,3.8611,3.8611,3.8611,3.8611,3.8611,3.8611,3.8611,3.8611,3.8611,3.8611,3.8611,3.8611,3.8611,3.8611,3.8611,3.6016,3.6035,3.6016,3.6035,3.6035,3.6094,3.6328,3.6675,3.6832,3.7226,3.7809,3.7614,3.7715,3.7891,3.8027,3.8281,3.8437,3.8474,3.8591,3.8611,3.8611,3.8611,3.8611,3.8611,3.8611,3.8611,3.8611,3.8611,3.8611,3.8611,3.8611,3.8611,3.8611,3.8611,3.8611,3.8611,3.8611,3.8611,3.8611,3.8611,3.8611,3.8611,3.8611,3.8611,3.8611,3.8611,3.8611,3.8611,3.8611,3.8611,3.8611,3.8611,3.8611,3.8611,3.8611,3.8611,3.8611,3.8611,3.8611,3.8611,3.8611,3.8611,3.8611,3.8611,3.8611,3.8611,3.8611,3.8611,3.8611,3.8611,3.8611,3.8611,3.8611,3.8611,3.8611,3.8611,3.8611,3.8611,3.8611,3.8611,3.8611,3.8611,3.8611,3.8611,3.8611,3.8611,3.8611,3.8611,3.8611,3.8611,3.8611,3.8611,3.8611,3.8611,3.8611,3.8611,3.8611,3.8611,3.8611,3.8611,3.8611,3.8611,3.8611,3.8611,3.8611,3.8611,3.8611,3.8611,3.8611,3.8611,3.8611,3.8611,3.8611,3.8611,3.8611,3.6035,3.6035,3.6035,3.6035,3.604,3.6387,3.6636,3.6812,3.7383,3.7793,3.7969,3.8262,3.8435,3.8437,3.8457,3.8571,3.8571,3.8611,3.8611,3.8611,3.8611,3.8611,3.8611,3.8611,3.8611,3.8611,3.8611,3.8611,3.8611,3.8611,3.8611,3.8611,3.8611,3.8611,3.8611,3.8611,3.8611,3.8611,3.8611,3.8611,3.8611,3.8611,3.8611,3.8611,3.8611,3.8611,3.8611,3.8611,3.8611,3.8611,3.8611,3.8611,3.8611,3.8611,3.8611,3.8611,3.8611,3.8611,3.8611,3.8611,3.8611,3.8611,3.8611,3.8611,3.8611,3.8611,3.8611,3.8611,3.8611,3.8611,3.8611,3.8611,3.8611,3.8611,3.8611,3.8611,3.8611,3.8611,3.8611,3.8611,3.8611,3.8611,3.8611,3.8611,3.8611,3.8611,3.8611,3.8611,3.8611,3.8611,3.8611,3.8611,3.8611,3.8611,3.8611,3.8611,3.8611,3.8611,3.8611,3.8611,3.8611,3.8611,3.8611,3.8611,3.8611,3.8611,3.8611,3.8611,3.8611,3.8611,3.8611,3.8611,3.8611,3.8611,3.8611]},{"header":{"parameterUnit":"m.s-1","parameterCategory":1,"la1":31.0,"la2":29.5877,"lo1":-88.7671,"lo2":-86.6584,"dx":0.0162,"dy":0.0185,"nx":115,"ny":88,"refTime":"2022-11-22T18:00:00:Z","depth":0,"parameterNumber":3,"parameterNumberName":"V-component_of_WINDS"},"data":[0.0,0.0,0.0,0.0,0.0,0.0,0.0,0.0,0.0,0.0,0.0,0.0,0.0,0.0,0.0,0.0,0.0,0.0,0.0,0.0,0.0,0.0,0.0,0.0,0.0,0.0,0.0,0.0,0.0,0.0,0.0,0.0,0.0,0.0,0.0,0.0,0.0,0.0,0.0,0.0,0.0,0.0,0.0,0.0,0.0,0.0,0.0,0.0,0.0,0.0,0.0,0.0,0.0,0.0,0.0,0.0,0.0,0.0,0.0,0.0,0.0,0.0,0.0,0.0,0.0,0.0,0.0,0.0,0.0,0.0,0.0,0.0,0.0,0.0,0.0,0.0,0.0,0.0,0.0,0.0,0.0,0.0,0.0,0.0,0.0,0.0,0.0,0.0,0.0,0.0,0.0,0.0,0.0,0.0,0.0,0.0,0.0,0.0,0.0,0.0,0.0,0.0,0.0,0.0,0.0,0.0,0.0,0.0,0.0,0.0,0.0,0.0,0.0,0.0,0.0,0.0,0.0,0.0,0.0,0.0,0.0,0.0,0.0,0.0,0.0,0.0,0.0,0.0,0.0,0.0,0.0,0.0,0.0,0.0,0.0,0.0,0.0,0.0,0.0,0.0,0.0,0.0,0.0,0.0,0.0,0.0,0.0,0.0,0.0,0.0,0.0,0.0,0.0,0.0,0.0,0.0,0.0,0.0,0.0,0.0,0.0,0.0,0.0,0.0,0.0,0.0,0.0,0.0,0.0,0.0,0.0,0.0,0.0,0.0,0.0,0.0,0.0,0.0,0.0,0.0,0.0,0.0,0.0,0.0,0.0,0.0,0.0,0.0,0.0,0.0,0.0,0.0,0.0,0.0,0.0,0.0,0.0,0.0,0.0,0.0,0.0,0.0,0.0,0.0,0.0,0.0,0.0,0.0,0.0,0.0,0.0,0.0,0.0,0.0,0.0,0.0,0.0,0.0,0.0,0.0,0.0,0.0,0.0,0.0,0.0,0.0,0.0,0.0,0.0,0.0,0.0,0.0,0.0,0.0,0.0,0.0,0.0,0.0,0.0,0.0,0.0,0.0,0.0,0.0,0.0,0.0,0.0,0.0,0.0,0.0,0.0,0.0,0.0,0.0,0.0,0.0,0.0,0.0,0.0,0.0,0.0,0.0,0.0,0.0,0.0,0.0,0.0,0.0,0.0,0.0,0.0,0.0,0.0,0.0,0.0,0.0,0.0,0.0,0.0,0.0,0.0,0.0,0.0,0.0,0.0,0.0,0.0,0.0,0.0,0.0,0.0,0.0,0.0,0.0,0.0,0.0,0.0,0.0,0.0,0.0,0.0,0.0,0.0,0.0,0.0,0.0,0.0,0.0,0.0,0.0,0.0,0.0,0.0,0.0,0.0,0.0,0.0,0.0,0.0,0.0,0.0,0.0,0.0,0.0,0.0,0.0,0.0,0.0,0.0,0.0,0.0,0.0,0.0,0.0,0.0,0.0,0.0,0.0,0.0,0.0,0.0,0.0,0.0,0.0,0.0,0.0,0.0,0.0,0.0,0.0,0.0,0.0,0.0,0.0,0.0,0.0,0.0,0.0,0.0,0.0,0.0,0.0,0.0,0.0,0.0,0.0,0.0,0.0,0.0,0.0,0.0,0.0,0.0,0.0,0.0,0.0,0.0,0.0,0.0,0.0,0.0,0.0,0.0,0.0,0.0,0.0,0.0,0.0,0.0,0.0,0.0,0.0,0.0,0.0,0.0,0.0,0.0,0.0,0.0,0.0,0.0,0.0,0.0,0.0,0.0,0.0,0.0,0.0,0.0,0.0,0.0,0.0,0.0,0.0,0.0,0.0,0.0,0.0,0.0,0.0,0.0,0.0,0.0,0.0,0.0,0.0,0.0,0.0,0.0,0.0,0.0,0.0,0.0,0.0,0.0,0.0,0.0,0.0,0.0,0.0,0.0,0.0,0.0,0.0,0.0,0.0,0.0,0.0,0.0,0.0,0.0,0.0,0.0,0.0,0.0,0.0,0.0,0.0,0.0,0.0,0.0,0.0,0.0,0.0,0.0,0.0,0.0,0.0,0.0,0.0,0.0,0.0,0.0,0.0,0.0,0.0,0.0,0.0,0.0,0.0,0.0,0.0,0.0,0.0,0.0,0.0,0.0,0.0,0.0,0.0,0.0,0.0,0.0,0.0,0.0,0.0,0.0,0.0,0.0,0.0,0.0,0.0,0.0,0.0,0.0,0.0,0.0,0.0,0.0,0.0,0.0,0.0,0.0,0.0,0.0,0.0,0.0,0.0,0.0,0.0,0.0,0.0,0.0,0.0,0.0,0.0,0.0,0.0,0.0,0.0,0.0,0.0,0.0,0.0,0.0,0.0,0.0,0.0,0.0,0.0,0.0,0.0,0.0,0.0,0.0,0.0,0.0,0.0,0.0,0.0,0.0,0.0,0.0,0.0,0.0,0.0,0.0,0.0,0.0,0.0,0.0,0.0,0.0,0.0,0.0,0.0,0.0,0.0,0.0,0.0,0.0,0.0,0.0,0.0,0.0,0.0,0.0,0.0,0.0,0.0,0.0,0.0,0.0,0.0,0.0,0.0,0.0,0.0,0.0,0.0,0.0,0.0,0.0,0.0,0.0,0.0,0.0,0.0,0.0,0.0,0.0,0.0,0.0,0.0,0.0,0.0,0.0,0.0,0.0,0.0,0.0,0.0,0.0,0.0,0.0,0.0,0.0,0.0,0.0,0.0,0.0,0.0,0.0,0.0,0.0,0.0,0.0,0.0,0.0,0.0,0.0,0.0,0.0,0.0,0.0,0.0,0.0,0.0,0.0,0.0,0.0,0.0,0.0,0.0,0.0,0.0,0.0,0.0,0.0,0.0,0.0,0.0,0.0,0.0,0.0,0.0,0.0,0.0,0.0,0.0,0.0,0.0,0.0,0.0,0.0,0.0,0.0,0.0,0.0,0.0,0.0,0.0,0.0,0.0,0.0,0.0,0.0,0.0,0.0,0.0,0.0,0.0,0.0,0.0,0.0,0.0,0.0,0.0,0.0,0.0,0.0,0.0,0.0,0.0,0.0,0.0,0.0,0.0,0.0,0.0,0.0,0.0,0.0,0.0,0.0,0.0,0.0,0.0,0.0,0.0,0.0,0.0,0.0,0.0,0.0,0.0,0.0,0.0,0.0,0.0,0.0,0.0,0.0,0.0,0.0,0.0,0.0,0.0,0.0,0.0,0.0,0.0,0.0,0.0,0.0,0.0,0.0,0.0,0.0,0.0,0.0,0.0,0.0,0.0,0.0,0.0,0.0,0.0,0.0,0.0,0.0,0.0,0.0,0.0,0.0,0.0,0.0,0.0,0.0,0.0,0.0,0.0,0.0,0.0,0.0,0.0,0.0,0.0,0.0,0.0,0.0,0.0,0.0,0.0,0.0,0.0,0.0,0.0,0.0,0.0,0.0,0.0,0.0,0.0,0.0,0.0,0.0,0.0,0.0,0.0,0.0,0.0,0.0,0.0,0.0,0.0,0.0,0.0,0.0,0.0,0.0,0.0,0.0,0.0,0.0,0.0,0.0,0.0,0.0,0.0,0.0,0.0,0.0,0.0,0.0,0.0,0.0,0.0,0.0,0.0,0.0,0.0,0.0,0.0,0.0,0.0,0.0,0.0,0.0,0.0,0.0,0.0,0.0,0.0,0.0,0.0,0.0,0.0,0.0,0.0,0.0,0.0,0.0,0.0,0.0,0.0,0.0,0.0,0.0,0.0,0.0,0.0,0.0,0.0,0.0,0.0,0.0,0.0,0.0,0.0,0.0,0.0,0.0,0.0,0.0,0.0,0.0,0.0,0.0,0.0,0.0,0.0,0.0,0.0,0.0,0.0,0.0,0.0,0.0,0.0,0.0,0.0,0.0,0.0,0.0,0.0,0.0,0.0,0.0,0.0,0.0,0.0,0.0,0.0,0.0,0.0,0.0,0.0,0.0,0.0,0.0,0.0,0.0,0.0,0.0,0.0,0.0,0.0,0.0,0.0,0.0,0.0,0.0,0.0,0.0,0.0,0.0,0.0,0.0,0.0,0.0,0.0,0.0,0.0,0.0,0.0,0.0,0.0,0.0,0.0,0.0,0.0,0.0,0.0,0.0,0.0,0.0,0.0,0.0,0.0,0.0,0.0,0.0,0.0,0.0,0.0,0.0,0.0,0.0,0.0,0.0,0.0,0.0,0.0,0.0,0.0,0.0,0.0,0.0,0.0,0.0,0.0,0.5796,0.0,0.0,0.0,0.6175,0.0,0.0,0.0,0.0,0.0,0.0,0.0,0.0,0.0,0.0,0.0,0.0,0.0,0.0,0.0,0.0,0.0,0.0,0.0,0.0,0.0,0.0,0.0,0.0,0.0,0.0,0.0,0.0,0.0,0.0,0.0,0.0,0.0,0.0,0.0,0.0,0.0,0.0,0.0,0.0,0.0,0.0,0.0,0.0,0.0,0.0,0.0,0.0,0.0,0.0,0.0,0.0,0.0,0.0,0.0,0.0,0.0,0.0,0.0,0.0,0.0,0.0,0.0,0.0,0.0,0.0,0.0,0.0,0.0,0.0,0.0,0.0,0.0,0.0,0.0,0.0,0.0,0.0,0.0,0.0,0.0,0.0,0.0,0.0,0.0,0.0,0.0,0.0,0.0,0.0,0.0,0.0,0.0,0.0,0.0,0.0,0.0,0.0,0.0,0.0,0.0,0.0,0.0,0.0,0.0,0.0,0.0,0.0,0.0,0.0,0.5796,0.5796,0.5913,0.6052,0.6206,0.0,0.0,0.0,0.0,0.0,0.0,0.0,0.0,0.0,0.0,0.0,0.0,0.0,0.0,0.0,0.0,0.0,0.0,0.0,0.0,0.0,0.0,0.0,0.0,0.0,0.0,0.0,0.0,0.0,0.0,0.0,0.0,0.0,0.0,0.0,0.0,0.0,0.0,0.0,0.0,0.0,0.0,0.0,0.0,0.0,0.0,0.0,0.0,0.0,0.0,0.0,0.0,0.0,0.0,0.0,0.0,0.0,0.0,0.0,0.0,0.0,0.0,0.0,0.0,0.0,0.0,0.0,0.0,0.0,0.0,0.0,0.0,0.0,0.0,0.0,0.0,0.0,0.0,0.0,0.0,0.0,0.0,0.0,0.0,0.0,0.0,0.0,0.0,0.0,0.0,0.0,0.0,0.0,0.0,0.0,0.0,0.0,0.0,0.0,0.0,0.0,0.0,0.0,0.0,0.0,0.0,0.0,0.0,0.0,0.0,0.0,0.0,0.6108,0.6308,0.6481,0.0,0.0,0.0,0.0,0.0,0.0,0.0,0.0,0.0,0.0,0.0,0.0,0.0,0.0,0.0,0.0,0.0,0.0,0.0,0.0,0.0,0.0,0.0,0.0,0.0,0.0,0.0,0.0,0.0,0.0,0.0,0.0,0.0,0.0,0.0,0.0,0.0,0.0,0.0,0.0,0.0,0.0,0.0,0.0,0.0,0.0,0.0,0.0,0.0,0.0,0.0,0.0,0.0,0.0,0.0,0.0,0.0,0.0,0.0,0.0,0.0,0.0,0.0,0.0,0.0,0.0,0.0,0.0,0.0,0.0,0.0,0.0,0.0,0.0,0.0,0.0,0.0,0.0,0.0,0.0,0.0,0.0,0.0,0.0,0.0,0.0,0.0,0.0,0.0,0.0,0.0,0.0,0.0,0.0,0.0,0.0,0.0,0.0,0.0,0.0,0.0,0.0,0.0,0.0,0.0,0.0,0.0,0.0,0.0,0.0,0.6253,0.6261,0.6687,0.0,0.7287,0.0,0.0,0.0,0.0,0.0,0.0,0.0,0.0,0.0,0.0,0.0,0.0,0.0,0.0,0.0,0.0,0.0,0.0,0.0,0.0,0.0,0.0,0.0,0.0,0.0,0.0,0.0,0.0,0.0,0.0,0.0,0.0,0.0,0.0,0.0,0.0,0.0,0.0,0.0,0.0,0.0,0.0,0.0,0.0,0.0,0.0,0.0,0.0,0.0,0.0,0.0,0.0,0.0,0.0,0.0,0.0,0.0,0.0,0.0,0.0,0.0,0.0,0.0,0.0,0.0,0.0,0.0,0.0,0.0,0.0,0.0,0.0,0.0,0.0,0.0,0.0,0.0,0.0,0.0,0.0,0.0,0.0,0.0,0.0,0.0,0.0,0.0,0.0,0.0,0.0,0.0,0.0,0.0,0.0,0.0,0.0,0.0,0.0,0.0,0.0,0.0,0.0,0.0,0.0,0.0,0.0,0.0,0.0,0.0,0.0,0.6383,0.6532,0.7038,0.7393,0.0,0.0,0.0,0.0,0.0,0.0,0.0,0.0,0.0,0.0,0.0,0.0,0.0,0.0,0.0,0.0,0.0,0.0,0.0,0.0,0.0,0.0,0.0,0.0,0.0,0.0,0.0,0.0,0.0,0.0,0.0,0.0,0.0,0.0,0.0,0.0,0.0,0.0,0.0,0.0,0.0,0.0,0.0,0.0,0.0,0.0,0.0,0.0,0.0,0.0,0.0,0.0,0.0,0.0,0.0,0.0,0.0,0.0,0.0,0.0,0.0,0.0,0.0,0.0,0.0,0.0,0.0,0.0,0.0,0.0,0.0,0.0,0.0,0.0,0.0,0.0,0.0,0.0,0.0,0.0,0.0,0.0,0.0,0.0,0.0,0.0,0.0,0.0,0.0,0.0,0.0,0.0,0.0,0.0,0.0,0.0,0.0,0.0,0.0,0.0,0.0,0.0,0.0,0.0,0.0,0.0,0.0,0.0,0.0,0.0,0.6368,0.6644,0.7102,0.7374,0.7627,0.7841,0.0,0.0,0.0,0.0,0.0,0.0,0.0,0.0,0.0,0.0,0.0,0.0,0.0,0.0,0.0,0.0,0.0,0.0,0.0,0.0,0.0,0.0,0.0,0.0,0.0,0.0,0.0,0.0,0.0,0.0,0.0,0.0,0.0,0.0,0.0,0.0,0.0,0.0,0.0,0.0,0.0,0.0,0.0,0.0,0.0,0.0,0.0,0.0,0.0,0.0,0.0,0.0,0.0,0.0,0.0,0.0,0.0,0.0,0.0,0.0,0.0,0.0,0.0,0.0,0.0,0.0,0.0,0.0,0.0,0.0,0.0,0.0,0.0,0.0,0.0,0.0,0.0,0.0,0.0,0.0,0.0,0.0,0.0,0.0,0.0,0.0,0.0,0.0,0.0,0.0,0.0,0.0,0.0,0.0,0.0,0.0,0.0,0.0,0.0,0.0,0.0,0.0,0.0,0.0,0.0,0.0,0.0,0.0,0.6288,0.6552,0.7137,0.8074,0.7787,0.778,0.0,0.0,0.0,0.0,0.0,0.0,0.0,0.0,0.0,0.0,0.0,0.0,0.0,0.0,0.0,0.0,0.0,0.0,0.0,0.0,0.0,0.0,0.0,0.0,0.0,0.0,0.0,0.0,0.0,0.0,0.0,0.0,0.0,0.0,0.0,0.0,0.0,0.0,0.0,0.0,0.0,0.0,0.0,0.0,0.0,0.0,0.0,0.0,0.0,0.0,0.0,0.0,0.0,0.0,0.0,0.0,0.0,0.0,0.0,0.0,0.0,0.0,0.0,0.0,0.0,0.0,0.0,0.0,0.0,0.0,0.0,0.0,0.0,0.0,0.0,0.0,0.0,0.0,0.0,0.0,0.0,0.0,0.0,0.0,0.0,0.0,0.0,0.0,0.0,0.0,0.0,0.0,0.0,0.0,0.0,0.0,0.0,0.0,0.0,0.0,0.0,0.0,0.0,0.0,0.0,0.0,0.0,0.0,0.0,0.6552,0.7068,0.7514,0.7872,0.7852,0.7842,0.0,0.0,0.0,0.0,0.0,0.0,0.0,0.0,0.0,0.0,0.0,0.0,0.0,0.0,0.0,0.0,0.0,0.0,0.0,0.0,0.0,0.0,0.0,0.0,0.0,0.0,0.0,0.0,0.0,0.0,0.0,0.0,0.0,0.0,0.0,0.0,0.0,0.0,0.0,0.0,0.0,0.0,0.0,0.0,0.0,0.0,0.0,0.0,0.0,0.0,0.0,0.0,0.0,0.0,0.0,0.0,0.0,0.0,0.0,0.0,0.0,0.0,0.0,0.0,0.0,0.0,0.0,0.0,0.0,0.0,0.0,0.0,0.0,0.0,0.0,0.0,0.0,0.0,0.0,0.0,0.0,0.0,0.0,0.0,0.0,0.0,0.0,0.0,0.0,0.0,0.0,0.0,0.0,0.0,0.0,0.0,0.0,0.0,0.0,0.0,0.0,0.0,0.0,0.0,0.0,0.0,0.0,0.0,0.0,0.7067,0.7538,0.789,0.8072,0.799,0.7869,0.0,0.0,0.0,0.0,0.0,0.0,0.0,0.0,0.0,0.0,0.0,0.0,0.0,0.0,0.0,0.0,0.0,0.0,0.0,0.0,0.0,0.0,0.0,0.0,0.0,0.0,0.0,0.0,0.0,0.0,0.0,0.0,0.0,0.0,0.0,0.0,0.0,0.0,0.0,0.0,0.0,0.0,0.0,0.0,0.0,0.0,0.0,0.0,0.0,0.0,0.0,0.0,0.0,0.0,0.0,0.0,0.0,0.0,0.0,0.0,0.0,0.0,0.0,0.0,0.0,0.0,0.0,0.0,0.0,0.0,0.0,0.0,0.0,0.0,0.0,0.0,0.0,0.0,0.0,0.0,0.0,0.0,0.0,0.0,0.0,0.0,0.0,0.0,0.0,0.0,0.0,0.0,0.0,0.0,0.0,0.0,0.0,0.0,0.0,0.0,0.0,0.0,0.0,0.0,0.0,0.0,0.0,0.0,0.6715,0.7849,0.7997,0.8358,0.8876,0.824,0.7937,0.0,0.0,0.0,0.0,0.0,0.0,0.0,0.0,0.0,0.0,0.0,0.0,0.0,0.0,0.0,0.0,0.0,0.0,0.0,0.0,0.0,0.0,0.0,0.0,0.0,0.0,0.0,0.0,0.0,0.0,0.0,0.0,0.0,0.0,0.0,0.0,0.0,0.0,0.0,0.0,0.0,0.0,0.0,0.0,0.0,0.0,0.0,0.0,0.0,0.0,0.0,0.0,0.0,0.0,0.0,0.0,0.0,0.0,0.0,0.0,0.0,0.0,0.0,0.0,0.0,0.0,0.0,0.0,0.0,0.0,0.0,0.0,0.0,0.0,0.0,0.0,0.0,0.0,0.0,0.0,0.0,0.0,0.0,0.0,0.0,0.0,0.0,0.0,0.0,0.0,0.0,0.0,0.0,0.0,0.0,0.0,0.0,0.0,0.0,0.0,0.0,0.0,0.0,0.0,0.0,0.0,0.0,0.0,0.0,0.8448,0.912,0.95,0.9585,0.9325,0.8885,0.0,0.0,0.0,0.0,0.0,0.0,0.0,0.0,0.0,0.0,0.0,0.0,0.0,0.0,0.0,0.0,0.0,0.0,0.0,0.0,0.0,0.0,0.0,0.0,0.0,0.0,0.0,0.0,0.0,0.0,0.0,0.0,0.0,0.0,0.0,0.0,0.0,0.0,0.0,0.0,0.0,0.0,0.0,0.0,0.0,0.0,0.0,0.0,0.0,0.0,0.0,0.0,0.0,0.0,0.0,0.0,0.0,0.0,0.0,0.0,0.0,0.0,0.0,0.0,0.0,0.0,0.0,0.0,0.0,0.0,0.0,0.0,0.0,0.0,0.0,0.0,0.0,0.0,0.0,0.0,0.0,0.0,0.0,0.0,0.0,0.0,0.0,0.0,0.0,0.0,0.0,0.0,0.0,0.0,0.0,0.0,0.0,0.0,0.0,0.0,0.0,0.0,0.0,0.0,0.0,0.0,0.0,0.0,0.0,1.0838,1.1249,1.1476,1.1493,1.1313,1.0618,0.9319,0.0,0.0,0.0,0.0,0.0,0.0,0.0,0.0,0.0,0.0,0.0,0.0,0.0,0.0,0.0,0.0,0.0,0.0,0.0,0.0,0.0,0.0,0.0,0.0,0.0,0.0,0.0,0.0,0.0,0.0,0.0,0.0,0.0,0.0,0.0,0.0,0.0,0.0,0.0,0.0,0.0,0.0,0.0,0.0,0.0,0.0,0.0,0.0,0.0,0.0,0.0,0.0,0.0,0.0,0.0,0.0,0.0,0.0,0.0,0.0,0.0,0.0,0.0,0.0,0.0,0.0,0.0,0.0,0.0,0.0,0.0,0.0,0.0,0.0,0.0,0.0,0.0,0.0,0.0,0.0,0.0,0.0,0.0,0.0,0.0,0.0,0.0,0.0,0.0,0.0,0.0,0.0,0.0,0.0,0.0,0.0,0.0,0.0,0.0,0.0,0.0,0.0,0.0,0.0,0.0,0.0,0.0,0.0,1.4658,1.4378,1.4322,1.4483,1.401,1.2893,0.0,0.0,0.0,0.0,0.0,0.0,0.0,0.0,0.0,0.0,0.0,0.0,0.0,0.0,0.0,0.0,0.0,0.0,0.0,0.0,0.0,0.0,0.0,0.0,0.0,0.0,0.0,0.0,0.0,0.0,0.0,0.0,0.0,0.0,0.0,0.0,0.0,0.0,0.0,0.0,0.0,0.0,0.0,0.0,0.0,0.0,0.0,0.0,0.0,0.0,0.0,0.0,0.0,0.0,0.0,0.0,0.0,0.0,0.0,0.0,0.0,0.0,0.0,0.0,0.0,0.0,0.0,0.0,0.0,0.0,0.0,0.0,0.0,0.0,0.0,0.0,0.0,0.0,0.0,0.0,0.0,0.0,0.0,0.0,0.0,0.0,0.0,0.0,0.0,0.0,0.0,0.0,0.0,0.0,0.0,0.0,0.0,0.0,0.0,0.0,0.0,0.0,0.0,0.0,0.0,0.0,0.0,0.0,0.0,1.7197,1.9243,1.9573,1.8065,1.6348,1.4837,0.0,0.0,0.0,0.0,0.0,0.0,0.0,0.0,0.0,0.0,0.0,0.0,0.0,0.0,0.0,0.0,0.0,0.0,0.0,0.0,0.0,0.0,0.0,0.0,0.0,0.0,0.0,0.0,0.0,0.0,0.0,0.0,0.0,0.0,0.0,0.0,0.0,0.0,0.0,0.0,0.0,0.0,0.0,0.0,0.0,0.0,0.0,0.0,0.0,0.0,0.0,0.0,0.0,0.0,0.0,0.0,0.0,0.0,0.0,0.0,0.0,0.0,0.0,0.0,0.0,0.0,0.0,0.0,0.0,0.0,0.0,0.0,0.0,0.0,0.0,0.0,0.0,0.0,0.0,0.0,0.0,0.0,0.0,0.0,0.0,0.0,0.0,0.0,0.0,0.0,0.0,0.0,0.0,0.0,0.0,0.0,0.0,0.0,0.0,0.0,0.0,0.0,0.0,0.0,0.0,0.0,0.0,0.0,1.6265,1.9226,2.2413,2.3641,2.283,1.9878,1.7367,0.0,0.0,0.0,0.0,0.0,0.0,0.0,0.0,0.0,0.0,0.0,0.0,0.0,0.0,0.0,0.0,0.0,0.0,0.0,0.0,0.0,0.0,0.0,0.0,0.0,0.0,0.0,0.0,0.0,0.0,0.0,0.0,0.0,0.0,0.0,0.0,0.0,0.0,0.0,0.0,0.0,0.0,0.0,0.0,0.0,0.0,0.0,0.0,0.0,0.0,0.0,0.0,0.0,0.0,0.0,0.0,0.0,0.0,0.0,0.0,0.0,0.0,0.0,0.0,0.0,0.0,0.0,0.0,0.0,0.0,0.0,0.0,0.0,0.0,0.0,0.0,0.0,0.0,0.0,0.0,0.0,0.0,0.0,0.0,0.0,0.0,0.0,0.0,0.0,0.0,0.0,0.0,0.0,0.0,0.0,0.0,0.0,0.0,0.0,0.0,0.0,0.0,0.0,0.0,0.0,0.0,0.0,0.0,1.867,2.1076,2.448,2.6695,2.7453,2.368,2.0098,0.0,0.0,0.0,0.0,0.0,0.0,0.0,0.0,0.0,0.0,0.0,0.0,0.0,0.0,0.0,0.0,0.0,0.0,0.0,0.0,0.0,0.0,0.0,0.0,0.0,0.0,0.0,0.0,0.0,0.0,0.0,0.0,0.0,0.0,0.0,0.0,0.0,0.0,0.0,0.0,0.0,0.0,0.0,0.0,0.0,0.0,0.0,0.0,0.0,0.0,0.0,0.0,0.0,0.0,0.0,0.0,0.0,0.0,0.0,0.0,0.0,0.0,0.0,0.0,0.0,0.0,0.0,0.0,0.0,0.0,0.0,0.0,0.0,0.0,0.0,0.0,0.0,0.0,0.0,0.0,0.0,0.0,0.0,0.0,0.0,0.0,0.0,0.0,0.0,0.0,0.0,0.0,0.0,0.0,0.0,0.0,0.0,0.0,0.0,0.0,0.0,0.0,0.0,0.0,0.0,0.0,0.0,0.0,2.1123,2.4325,2.6761,2.8152,2.8355,2.4621,2.1754,0.0,0.0,0.0,0.0,0.0,0.0,0.0,0.0,0.0,0.0,0.0,0.0,0.0,0.0,0.0,0.0,0.0,0.0,0.0,0.0,0.0,0.0,0.0,0.0,0.0,0.0,0.0,0.0,0.0,0.0,0.0,0.0,0.0,0.0,0.0,0.0,0.0,0.0,0.0,0.0,0.0,0.0,0.0,0.0,0.0,0.0,0.0,0.0,1.2776,0.0,0.0,0.0,0.0,0.0,0.0,0.0,0.0,0.0,0.0,0.0,0.0,0.0,0.0,0.0,0.0,0.0,0.0,0.0,0.0,0.0,0.0,0.0,0.0,0.0,0.0,0.0,0.0,0.0,0.0,0.0,0.0,0.0,0.0,0.0,0.0,0.0,0.0,0.0,0.0,0.0,0.0,0.0,0.0,0.0,0.0,0.0,0.0,0.0,0.0,0.0,0.0,0.0,0.0,0.0,0.0,0.0,0.0,0.0,2.3172,2.6479,2.8664,2.965,2.9325,2.7308,2.4547,0.0,0.0,0.0,0.0,0.0,0.0,0.0,0.0,0.0,0.0,0.0,0.0,0.0,0.0,0.0,0.0,0.0,0.0,0.0,0.0,0.0,0.0,0.0,0.0,0.0,0.0,0.0,0.0,0.0,0.0,0.0,0.0,0.0,0.0,0.0,0.0,0.0,0.0,0.0,0.0,0.0,0.0,0.0,0.0,0.0,0.0,0.0,0.0,0.0,0.0,0.0,0.0,0.0,0.0,0.0,0.0,0.0,0.0,0.0,0.0,0.0,0.0,0.0,0.0,0.0,0.0,0.0,0.0,0.0,0.0,0.0,0.0,0.0,0.0,0.0,0.0,0.0,0.0,0.0,0.0,0.0,0.0,0.0,0.0,0.0,0.0,0.0,0.0,0.0,0.0,0.0,0.0,0.0,0.0,0.0,0.0,0.0,0.0,0.0,0.0,0.0,0.0,0.0,0.0,0.0,0.0,0.0,2.1438,2.5043,2.8298,3.0274,3.1032,3.0523,3.0181,2.7361,2.1834,0.0,0.0,0.0,0.0,0.0,0.0,0.0,0.0,0.0,0.0,0.0,0.0,0.0,0.0,0.0,0.0,0.0,0.0,0.0,0.0,0.0,0.0,0.0,0.0,0.0,0.0,0.0,0.0,0.0,0.0,0.0,0.0,0.0,0.0,0.0,0.0,0.0,0.0,0.9949,1.2068,0.0,0.0,0.0,0.0,0.0,0.0,0.0,0.0,1.4305,0.0,0.0,0.0,0.0,0.0,0.0,0.0,0.0,0.0,0.0,0.0,0.0,0.0,0.0,0.0,0.0,0.0,0.0,0.0,0.0,0.0,0.0,0.0,0.0,0.0,0.0,0.0,0.0,0.0,0.0,0.0,0.0,0.0,0.0,0.0,0.0,0.0,0.0,0.0,0.0,0.0,0.0,0.0,0.0,0.0,0.0,0.0,0.0,0.0,0.0,0.0,0.0,0.0,0.0,0.0,0.0,2.0446,2.3752,2.7089,3.0495,3.1514,3.1828,3.1474,3.0826,2.8386,2.3983,0.0,0.0,0.0,0.0,0.0,0.0,0.0,0.0,0.0,0.0,0.0,0.0,0.0,0.0,0.0,0.0,0.0,0.0,0.0,0.0,0.0,0.0,0.0,0.0,0.0,0.0,0.0,0.0,0.0,0.0,0.0,0.0,0.0,0.0,0.0,0.0,0.0,0.0,0.0,1.4091,1.4793,0.0,0.0,0.0,0.0,0.0,0.0,0.0,0.0,1.6529,0.0,0.0,0.0,0.0,0.0,0.0,0.0,0.0,0.0,0.0,0.0,0.0,0.0,0.0,0.0,0.0,0.0,0.0,0.0,0.0,0.0,0.0,0.0,0.0,0.0,0.0,0.0,0.0,0.0,0.0,0.0,0.0,0.0,0.0,0.0,0.0,0.0,0.0,0.0,0.0,0.0,0.0,0.0,0.0,0.0,0.0,0.0,0.0,0.0,0.0,0.0,0.0,0.0,0.0,0.0,2.2037,2.577,2.9118,3.2047,3.2937,3.3111,3.2653,3.2011,2.9545,0.0,0.0,0.0,0.0,0.0,0.0,0.0,0.0,0.0,0.0,0.0,0.0,0.0,0.0,0.0,0.0,0.0,0.0,0.0,0.0,0.0,0.0,0.0,0.0,0.0,0.0,0.0,0.0,0.0,0.0,0.0,0.0,0.0,0.0,0.0,0.0,0.0,0.0,0.0,0.0,1.5764,1.6985,1.8464,0.0,0.0,0.0,0.0,0.0,0.0,1.8719,1.8577,0.0,0.0,0.0,0.0,0.0,0.0,0.0,0.0,0.0,0.0,0.0,0.0,0.0,0.0,0.0,0.0,0.0,0.0,0.0,0.0,0.0,0.0,0.0,0.0,0.0,0.0,0.0,0.0,0.0,0.0,0.0,0.0,0.0,0.0,0.0,0.0,0.0,0.0,0.0,0.0,0.0,0.0,0.0,0.0,0.0,0.0,0.0,0.0,0.0,0.0,0.0,0.0,0.0,0.0,0.0,2.3243,2.7396,3.074,3.3224,3.4042,3.4275,3.3987,3.2843,3.0138,0.0,0.0,0.0,0.0,0.0,0.0,0.0,0.0,0.0,0.0,0.0,0.0,0.0,0.0,0.0,0.0,0.0,0.0,0.0,0.0,0.0,0.0,0.0,0.0,0.0,0.0,0.0,0.0,0.0,0.0,0.0,0.0,0.0,0.0,0.0,0.0,0.0,0.0,0.0,0.0,0.0,1.9062,2.0763,1.9984,0.0,0.0,0.0,0.0,1.9803,2.0845,0.0,0.0,0.0,0.0,0.0,0.0,0.0,0.0,0.0,0.0,0.0,0.0,0.0,0.0,0.0,0.0,0.0,0.0,0.0,0.0,0.0,0.0,0.0,0.0,0.0,0.0,0.0,0.0,0.0,0.0,0.0,0.0,0.0,0.0,0.0,0.0,0.0,0.0,0.0,0.0,0.0,0.0,0.0,0.0,0.0,0.0,0.0,0.0,0.0,0.0,0.0,0.0,0.0,0.0,0.0,0.0,2.4197,2.8143,3.1485,3.409,3.4335,3.48,3.5633,3.2379,2.9242,0.0,0.0,0.0,0.0,0.0,0.0,0.0,0.0,0.0,0.0,0.0,0.0,0.0,0.0,0.0,0.0,0.0,0.0,0.0,0.0,0.0,0.0,0.0,0.0,0.0,0.0,0.0,0.0,0.0,0.0,0.0,0.0,0.0,0.0,0.0,0.0,0.0,0.0,0.0,0.0,0.0,2.0132,2.2459,2.1901,2.1069,0.0,0.0,2.2981,2.3047,2.4545,0.0,0.0,0.0,0.0,0.0,0.0,0.0,0.0,0.0,0.0,0.0,0.0,0.0,0.0,0.0,0.0,0.0,0.0,0.0,0.0,0.0,0.0,0.0,0.0,0.0,0.0,0.0,0.0,0.0,0.0,0.0,0.0,0.0,0.0,0.0,0.0,0.0,0.0,0.0,0.0,0.0,0.0,0.0,0.0,0.0,0.0,0.0,0.0,0.0,0.0,0.0,0.0,0.0,0.0,0.0,2.1374,2.4895,2.9998,3.3218,3.4371,3.5338,3.6077,3.6635,3.3327,3.0304,0.0,0.0,0.0,0.0,0.0,0.0,0.0,0.0,0.0,0.0,0.0,0.0,0.0,0.0,0.0,0.0,0.0,0.0,0.0,0.0,0.0,0.0,0.0,0.0,0.0,0.0,0.0,0.0,0.0,0.0,0.0,0.0,0.0,0.0,0.0,0.0,0.0,0.0,0.0,0.0,0.0,0.0,2.3855,2.4288,0.0,0.0,0.0,2.6138,2.5633,0.0,0.0,0.0,0.0,0.0,0.0,0.0,0.0,0.0,0.0,0.0,0.0,0.0,0.0,0.0,0.0,0.0,0.0,0.0,0.0,0.0,0.0,0.0,0.0,0.0,0.0,0.0,0.0,0.0,0.0,0.0,0.0,0.0,0.0,0.0,0.0,0.0,0.0,0.0,0.0,0.0,0.0,0.0,0.0,0.0,0.0,0.0,0.0,0.0,0.0,0.0,0.0,0.0,0.0,0.0,0.0,0.0,2.5791,3.1447,3.4605,3.5032,3.6235,3.7058,3.7386,3.4683,0.0,0.0,0.0,0.0,0.0,0.0,0.0,0.0,0.0,0.0,0.0,0.0,0.0,0.0,0.0,0.0,0.0,0.0,0.0,0.0,0.0,0.0,0.0,0.0,0.0,0.0,0.0,0.7107,0.0,0.0,0.0,0.0,0.0,0.0,0.0,0.0,0.0,0.0,0.0,0.0,0.0,0.0,2.3657,2.5699,2.6906,2.7677,0.0,0.0,2.898,2.8402,3.0205,3.0347,0.0,0.0,0.0,0.0,0.0,0.0,0.0,0.0,0.0,0.0,0.0,0.0,0.0,0.0,0.0,0.0,0.0,0.0,0.0,0.0,0.0,0.0,0.0,0.0,0.0,0.0,0.0,0.0,0.0,0.0,0.0,0.0,0.0,0.0,0.0,0.0,0.0,0.0,0.0,0.0,0.0,0.0,0.0,0.0,0.0,0.0,0.0,0.0,0.0,0.0,0.0,0.0,0.0,0.0,0.0,2.7244,3.1946,3.5202,3.6677,3.6825,3.7318,3.8079,3.6097,3.2928,0.0,0.0,0.0,0.0,0.0,0.0,0.0,0.0,0.0,0.0,0.0,0.0,0.0,0.0,0.0,0.0,0.0,0.0,0.0,0.0,0.0,0.0,0.0,0.0,0.0,0.0,0.0,0.0,0.0,0.0,0.0,0.0,0.0,0.0,0.0,0.0,0.0,0.0,0.0,0.0,0.0,2.5958,2.8307,2.9697,3.0833,0.0,0.0,3.0949,3.1801,3.372,3.3304,2.7862,0.0,0.0,0.0,0.0,0.0,0.0,0.0,0.0,0.0,0.0,0.0,0.0,0.0,0.0,0.0,0.0,0.0,0.0,0.0,0.0,0.0,0.0,0.0,0.0,0.0,0.0,0.0,0.0,0.0,0.0,0.0,0.0,0.0,0.0,0.0,0.0,0.0,0.0,0.0,0.0,0.0,0.0,0.0,0.0,0.0,0.0,0.0,0.0,0.0,0.0,0.0,0.0,0.0,2.5044,2.846,3.4212,3.7468,3.8123,3.864,3.8909,3.9002,3.7313,3.4531,0.0,0.0,0.0,0.0,0.0,0.0,0.0,0.0,0.0,0.0,0.0,0.0,0.0,0.0,0.0,0.0,0.0,0.0,0.0,0.0,0.0,0.0,0.0,0.0,0.0,0.0,0.0,0.0,1.5264,1.5959,1.5178,0.0,0.0,0.0,0.0,0.0,0.0,0.0,0.0,0.0,0.0,2.7749,3.092,3.227,0.0,0.0,3.3182,3.291,3.2812,3.3548,3.2785,2.8779,2.6742,0.0,0.0,0.0,0.0,0.0,0.0,0.0,0.0,0.0,0.0,0.0,0.0,0.0,0.0,0.0,0.0,0.0,0.0,0.0,0.0,0.0,0.0,0.0,0.0,0.0,0.0,0.0,0.0,0.0,0.0,0.0,0.0,0.0,0.0,0.0,0.0,0.0,0.0,0.0,0.0,0.0,0.0,0.0,0.0,0.0,0.0,0.0,0.0,0.0,0.0,0.0,0.0,2.6434,2.9851,3.5841,3.9009,3.9252,3.9812,3.9964,3.9663,3.8537,3.6295,0.0,0.0,0.0,0.0,0.0,0.0,0.0,0.0,0.0,0.0,0.0,0.0,0.0,0.0,0.0,0.0,0.0,0.0,0.0,0.0,0.0,0.0,0.0,0.0,0.0,0.0,0.0,0.0,1.6863,1.6743,1.4887,0.0,0.0,0.0,0.0,0.0,0.0,0.0,0.0,0.0,0.0,3.0175,3.2864,3.4056,3.4677,3.4677,3.4398,3.4002,3.3431,3.3483,3.2666,2.9953,0.0,0.0,0.0,0.0,0.0,0.0,0.0,0.0,0.0,0.0,0.0,0.0,0.0,0.0,0.0,0.0,0.0,0.0,0.0,0.0,0.0,0.0,0.0,0.0,0.0,0.0,0.0,0.0,0.0,0.0,0.0,0.0,0.0,0.0,0.0,0.0,0.0,0.0,0.0,0.0,0.0,0.0,0.0,0.0,0.0,0.0,0.0,0.0,0.0,0.0,0.0,0.0,0.0,2.7226,3.1612,3.6484,3.93,4.0039,4.0118,4.0118,4.008,3.9865,3.8274,3.5073,0.0,0.0,0.0,0.0,0.0,0.0,0.0,0.0,0.0,0.0,0.0,0.0,0.0,0.0,0.0,0.0,0.0,0.0,0.0,0.0,0.0,0.0,0.0,0.0,0.0,0.0,1.5408,1.6837,1.7045,0.0,0.0,0.0,0.0,0.0,0.0,0.0,0.0,0.0,0.0,3.0475,3.3452,3.3994,3.4858,3.5475,3.5475,3.4656,3.4017,3.397,3.4122,3.3575,0.0,0.0,0.0,0.0,0.0,0.0,0.0,0.0,0.0,0.0,0.0,0.0,0.0,0.0,0.0,0.0,0.0,0.0,0.0,0.0,0.0,0.0,0.0,0.0,0.0,0.0,0.0,1.2839,1.2039,0.0,0.0,0.0,0.0,0.0,0.0,0.0,0.0,0.0,0.0,0.0,2.4602,2.5466,0.0,0.0,0.0,0.0,0.0,0.0,0.0,0.0,0.0,0.0,0.0,0.0,2.9483,3.2974,3.8261,4.1159,4.1424,4.1424,4.1221,4.0786,4.0949,3.9295,3.5456,0.0,0.0,0.0,0.0,0.0,0.0,0.0,0.0,0.0,0.0,0.0,0.0,0.0,0.0,0.0,0.0,0.0,0.0,0.0,0.0,0.0,0.0,0.0,0.0,0.0,1.7553,0.0,0.0,0.0,0.0,0.0,0.0,0.0,0.0,0.0,0.0,0.0,2.6762,2.9959,3.1655,3.3203,3.48,3.5425,3.6017,0.0,0.0,0.0,0.0,0.0,0.0,0.0,0.0,0.0,0.0,0.0,0.0,0.0,0.0,2.592,2.3333,2.3628,2.418,2.3852,0.0,0.0,0.0,0.0,0.0,0.0,0.0,0.0,0.0,0.0,0.0,0.0,0.0,0.0,0.0,0.0,1.5899,0.0,0.0,0.0,0.0,0.0,0.0,0.0,0.0,2.5535,2.792,2.9293,3.036,3.0539,0.0,2.9264,2.6966,0.0,0.0,0.0,0.0,0.0,0.0,0.0,0.0,3.1523,3.4657,3.9963,4.276,4.276,4.2528,4.225,4.1896,4.1832,4.037,3.7403,3.43,3.0872,0.0,0.0,0.0,0.0,0.0,0.0,0.0,0.0,0.0,0.0,0.0,0.0,0.0,0.0,0.0,0.0,0.0,0.0,0.0,0.0,0.0,0.0,0.0,2.0089,0.0,0.0,0.0,0.0,0.0,0.0,0.0,0.0,0.0,2.3693,2.6954,3.0256,3.2995,3.3885,3.4522,3.537,0.0,0.0,0.0,0.0,0.0,0.0,0.0,3.2563,3.1773,3.2375,3.2904,3.2733,3.2668,3.2733,3.3159,0.0,0.0,2.8773,2.8761,2.9301,2.9009,2.9231,2.9541,2.9673,3.0692,3.1793,0.0,0.0,0.0,0.0,0.0,0.0,0.0,0.0,2.2526,2.1646,0.0,2.0752,0.0,0.0,0.0,0.0,0.0,0.0,0.0,0.0,3.1791,3.4232,3.4285,3.5401,3.5984,3.5834,3.3576,3.2827,3.3157,2.8522,0.0,0.0,0.0,0.0,0.0,0.0,3.3366,3.6733,4.1506,4.4001,4.3972,4.3362,4.3126,4.3278,4.2483,4.1616,4.0645,3.7688,3.5446,3.4041,2.7668,0.0,0.0,0.0,0.0,0.0,0.0,0.0,0.0,0.0,0.0,0.0,0.0,0.0,0.0,0.0,0.0,0.0,0.0,0.0,0.0,2.1715,0.0,0.0,0.0,0.0,0.0,0.0,0.0,0.0,0.0,0.0,2.7746,3.0549,3.335,3.5345,0.0,0.0,0.0,0.0,3.7395,3.5732,3.5533,3.5335,3.4469,3.4944,3.5786,3.665,0.0,0.0,3.8215,3.7253,3.6505,3.6495,3.7583,3.7354,3.3878,3.3203,3.3147,3.3147,3.3494,3.3753,3.3993,3.5059,3.6149,2.7586,0.0,0.0,0.0,0.0,2.3793,2.4912,2.6894,2.6876,2.6371,2.5521,2.5308,0.0,0.0,0.0,0.0,0.0,0.0,2.7637,3.0947,3.3953,3.6109,3.7538,3.8482,3.8612,3.8041,3.7914,3.7905,3.7926,3.7101,3.3561,2.7589,0.0,0.0,0.0,0.0,3.5628,3.9195,4.2365,4.4065,4.4216,4.3891,4.3677,4.3595,4.3018,4.2347,4.1646,4.0321,3.8153,3.505,3.2266,0.0,0.0,0.0,0.0,0.0,0.0,0.0,0.0,0.0,0.0,0.0,0.0,0.0,0.0,0.0,0.0,0.0,0.0,0.0,2.2453,2.4281,2.4326,0.0,0.0,0.0,0.0,0.0,0.0,0.0,0.0,0.0,3.4847,3.4914,3.5311,0.0,0.0,3.6366,3.6163,3.7214,3.8303,3.9136,0.0,0.0,0.0,3.8977,3.865,3.8638,4.0081,4.1397,4.1825,4.1933,4.1964,4.1943,4.2207,4.1995,4.1036,3.9644,3.8792,3.8763,3.9183,3.9622,3.9748,4.0493,4.1203,3.1719,2.9076,2.7408,2.7301,2.8186,2.8045,2.9167,3.1073,3.1073,3.0648,2.9884,2.9799,2.8127,2.5352,2.4804,0.0,0.0,0.0,3.1713,3.5514,3.7064,3.8781,4.0505,4.1369,4.1484,4.0946,4.1244,4.1467,4.1573,4.153,3.9341,3.5037,0.0,0.0,3.3642,3.6133,3.8697,4.1264,4.3784,4.512,4.5214,4.4849,4.4432,4.3957,4.3826,4.3375,4.2552,4.2159,4.0679,3.7948,3.5886,3.2632,0.0,0.0,0.0,0.0,0.0,0.0,0.0,0.0,0.0,0.0,0.0,1.4708,1.4888,0.0,0.0,0.0,2.1837,2.4292,2.7782,2.7895,0.0,0.0,0.0,0.0,0.0,0.0,0.0,2.9543,3.3452,3.684,3.8866,3.8522,3.8359,3.9198,3.8822,3.8399,3.8323,0.0,4.0547,4.1398,4.1275,4.1339,4.1949,4.183,4.1605,4.1735,4.273,4.3646,4.3977,4.4356,4.4507,4.4336,4.428,4.4237,4.4151,4.3611,4.2998,4.2395,4.264,4.2965,4.2973,4.3855,4.4691,3.5201,3.4858,3.1945,3.1523,3.2772,3.2605,3.3356,3.4791,3.4791,3.4215,3.3291,3.3834,3.2307,2.9282,2.8831,0.0,0.0,3.3889,3.6292,4.002,4.0647,4.1732,4.31,4.3945,4.4266,4.4102,4.3754,4.3918,4.4491,4.319,4.2961,4.3738,4.075,3.864,3.7774,4.0236,4.2086,4.3119,4.5566,4.6739,4.6602,4.6108,4.5344,4.4432,4.4849,4.4575,4.3508,4.3365,4.2882,4.1745,3.8719,3.6184,3.4237,0.0,0.0,0.0,0.0,0.0,0.0,0.0,0.0,0.0,0.0,0.0,0.0,0.0,0.0,0.0,2.912,0.0,3.4314,3.2032,0.0,0.0,0.0,2.7619,2.9406,3.1467,3.344,3.5216,0.0,0.0,0.0,0.0,4.2225,4.3214,4.2845,4.2239,4.1502,4.2673,4.3543,4.2928,4.3022,4.3173,4.3401,4.3908,4.4578,4.5251,4.5594,4.563,4.5618,4.5555,4.5306,4.5268,4.5107,4.5272,4.4937,4.614,4.6475,4.4993,4.4752,4.4787,4.4969,4.5989,4.6976,3.9559,3.8577,3.7412,3.6279,3.5254,3.5185,3.5396,3.5737,3.5785,3.5237,3.4394,3.5223,3.5137,3.4364,3.4739,3.5927,3.7747,3.8401,3.9837,4.1834,4.2223,4.2961,4.4004,4.4405,4.4843,4.5263,4.521,4.5732,4.6749,4.6262,4.6196,4.6535,4.5625,4.4233,4.2505,4.2954,4.4073,4.5827,4.6459,4.6789,4.6781,4.7325,4.688,4.5344,4.5594,4.5404,4.4617,4.4089,4.3395,4.2502,4.1341,3.9205,3.585,3.1695,0.0,0.0,0.0,0.0,0.0,0.0,0.0,0.0,0.0,1.953,1.9975,0.0,2.5383,0.0,3.1705,3.4731,3.4594,3.4741,0.0,0.0,3.2558,3.2661,3.3744,3.6628,3.8655,3.8984,4.1136,4.3125,4.4531,4.4828,4.5624,4.7418,4.4828,4.2815,4.3069,4.3992,4.4819,4.5154,4.5747,4.6203,4.6245,4.6813,4.7339,4.7549,4.8011,4.8539,4.9142,4.9151,4.9194,4.9706,4.979,4.9727,4.9508,4.9963,5.0003,4.9599,4.9026,4.8558,4.8588,4.9004,4.9422,4.1379,4.0754,4.0914,4.0309,3.9136,3.7127,3.6667,3.7393,3.7329,3.7464,3.7742,3.7905,3.7976,3.8025,3.8345,3.9316,4.0719,4.1229,4.2289,4.3735,4.4316,4.4981,4.5786,4.6343,4.6668,4.6793,4.7015,4.7421,4.7988,4.7995,4.8227,4.8757,4.8591,4.7899,4.6704,4.5873,4.5895,4.6841,4.7247,4.7564,4.7737,4.7993,4.7502,4.6261,4.5957,4.5238,4.4045,4.3712,4.29,4.1489,4.1154,3.9732,3.6946,3.3611,3.0243,0.0,0.0,0.0,0.0,0.0,0.0,0.0,0.0,0.0,0.0,0.0,2.9828,0.0,3.5498,0.0,3.6751,3.7405,3.7604,3.6967,3.7396,3.8103,3.9064,4.1682,4.3419,4.3389,4.514,4.665,4.7366,4.7817,4.8482,4.9711,4.7803,4.6241,4.6207,4.6615,4.7068,4.7448,4.7872,4.8345,4.8685,4.9096,4.947,4.9889,5.0273,5.0682,5.1141,5.1119,5.1183,5.1528,5.1611,5.157,5.1466,5.178,5.2167,5.253,5.2503,5.1934,5.0894,5.1113,5.1511,4.267,4.2602,4.3383,4.3598,4.3158,3.8998,3.8135,3.9612,3.9458,4.0256,4.1676,4.0835,4.0549,4.0661,4.0748,4.1529,4.2867,4.3152,4.4062,4.55,4.6351,4.7074,4.7745,4.8549,4.8761,4.8488,4.8873,4.8994,4.8854,4.9038,4.9505,5.0166,5.0173,5.005,4.977,4.8413,4.754,4.7133,4.8052,4.8589,4.8839,4.8261,4.7577,4.682,4.6054,4.4815,4.3144,4.3019,4.213,4.0337,4.0043,3.9341,3.8011,3.5009,3.2447,0.0,2.7304,0.0,0.0,0.0,0.0,0.0,0.0,0.0,0.0,3.2336,3.4487,3.6807,3.9412,4.0703,3.9996,4.0248,4.0738,4.143,4.2374,4.3369,4.4445,4.6164,4.7352,4.7527,4.8588,4.9329,4.9359,5.0095,5.0515,5.0612,5.0629,5.0249,4.9808,4.9337,4.9097,4.9299,4.9412,4.9689,5.0473,5.081,5.1159,5.1904,5.2145,5.2299,5.2465,5.2486,5.2433,5.2402,5.2649,5.2617,5.2277,5.3013,5.3745,5.4518,5.5,5.4571,5.2835,5.2733,5.3238,4.7291,4.6325,4.6022,4.5308,4.4207,4.2378,4.1937,4.2505,4.2483,4.2628,4.2874,4.1926,4.1988,4.2739,4.3093,4.3779,4.4778,4.5145,4.5747,4.6544,4.7137,4.7723,4.8342,4.8946,4.9433,4.9802,4.9924,5.0216,5.0677,5.0536,5.0375,5.0196,5.0034,4.9796,4.9418,0.0,0.0,0.0,4.9143,4.9261,4.8617,4.8358,4.7575,4.6218,4.5997,0.0,4.4801,4.3665,4.2842,4.2476,4.1291,0.0,0.0,0.0,0.0,0.0,0.0,0.0,0.0,0.0,0.0,0.0,3.5349,3.534,3.3583,3.577,3.8292,4.0514,4.1435,4.2258,4.3264,4.4102,4.4624,4.4822,4.604,4.7014,4.7272,4.8246,4.8873,4.8917,4.9149,4.9509,5.0064,5.0192,5.0532,5.116,5.1766,5.2116,5.1996,5.0524,4.9404,4.9322,5.002,5.0734,5.1612,5.2209,5.2618,5.2849,5.3292,5.384,5.4461,5.4604,5.4972,5.543,5.5771,5.5699,5.566,5.5903,5.5877,5.6197,5.6315,5.606,5.4875,5.4744,5.4841,4.8907,0.0,4.7998,4.7531,0.0,4.6269,4.6108,4.6145,4.4447,4.4396,4.541,4.5222,4.5434,4.592,4.6127,4.6483,4.6969,4.7218,4.7519,4.7864,4.8531,4.904,4.9344,4.9947,5.0322,5.0481,5.0627,5.0807,5.1011,5.0988,5.0879,5.0697,5.0581,5.0455,5.0242,5.0242,4.9947,4.9344,4.9839,4.9965,4.9812,4.9447,4.8738,4.7694,0.0,0.0,0.0,0.0,0.0,0.0,0.0,0.0,0.0,0.0,0.0,3.7299,3.6178,3.5821,3.6466,3.7149,3.8311,4.0058,4.191,4.1716,3.878,4.0867,4.2958,4.4515,4.5047,4.5603,4.6359,4.6963,4.7443,4.7932,4.8736,4.9435,4.995,5.0676,5.111,5.1172,5.1418,5.1766,5.2052,5.247,5.2835,5.3168,5.3601,5.3902,5.3806,5.2635,5.1634,5.1634,5.193,5.2586,5.3432,5.3862,5.4335,5.4705,5.5086,5.5495,5.5908,5.5988,5.6146,5.6622,5.6699,5.6699,5.6699,5.6699,5.6699,5.6699,5.6699,5.6583,5.6067,5.5988,5.5988,4.9636,4.9636,4.9636,4.9636,4.9636,4.9516,4.9396,4.9089,0.0,0.0,0.0,4.8472,4.8709,4.8732,4.8663,4.864,4.8663,4.88,4.8899,4.9047,4.9789,5.0209,5.0329,5.0913,5.1082,5.0893,5.1082,5.1082,5.0864,5.1082,5.1206,5.1206,5.1206,5.1206,5.1206,5.1206,5.0936,5.0398,5.0255,5.0458,5.0996,5.0368,4.9763,4.9127,4.841,4.7175,4.5437,4.525,4.4344,4.2511,4.2285,4.1861,4.1163,4.0795,4.0432,4.0067,3.9939,4.0438,4.1798,4.2187,4.3491,4.617,4.737,4.6941,4.4464,4.5801,4.7057,4.7941,4.8565,4.8885,4.8885,4.9359,4.9904,5.0694,5.1046,5.1536,5.2239,5.2838,5.3081,5.3229,5.3555,5.3976,5.3902,5.4453,5.5087,5.5067,5.4973,5.5414,5.5393,5.4484,5.3786,5.3946,5.402,5.4484,5.528,5.549,5.5868,5.6381,5.6569,5.6699,5.6699,5.6699,5.6699,5.668,5.6699,5.6699,5.6699,5.6699,5.6699,5.6699,5.6699,5.6699,5.6699,5.668,5.6661,5.093,5.093,5.0907,5.0936,5.0877,5.0308,4.9793,4.9277,4.8775,4.8745,4.9067,4.9157,4.9186,4.9186,4.8983,4.8839,4.8869,4.8709,4.8913,0.0,4.9772,5.0216,5.0721,5.1052,5.1206,5.1159,5.1182,5.1182,5.1159,5.1206,5.1206,5.1229,5.1206,5.1206,5.1206,5.1206,5.1146,5.1056,5.0488,5.0226,5.0315,4.9733,4.9127,4.8498,4.8334,4.7776,4.6694,4.633,4.5692,4.4768,4.4368,4.3973,4.3542,4.3456,4.3695,4.4346,4.4375,4.4783,4.5748,4.7083,4.8612,5.0213,4.99,4.9367,4.8991,4.8529,4.8624,4.9483,4.9921,5.0083,5.0157,5.1444,5.2386,5.2629,5.3175,5.3607,5.3703,5.3851,5.3936,5.3936,5.3935,5.4062,5.419,5.4253,5.4443,5.438,5.5067,5.5595,5.5988,5.5046,5.4443,5.489,5.5096,5.5515,5.6179,5.6505,5.6525,5.6661,5.6699,5.6699,5.6699,5.6699,5.6699,5.6699,5.6699,5.6699,5.6699,5.6699,5.6699,5.6699,5.6699,5.6699,5.6699,5.6699,5.6699,5.1206,5.1206,5.1206,5.1206,5.1176,5.0877,5.0578,5.0331,5.0354,5.0122,4.9853,5.0152,5.0331,5.0331,5.0186,5.014,5.014,5.0047,5.0156,5.0424,5.0547,5.0743,5.1035,5.1159,5.1206,5.1206,5.1206,5.1456,5.1865,5.1456,5.1456,5.1888,5.1456,5.1206,5.1206,5.1206,5.1206,5.1176,5.0907,5.0727,5.0727,5.0481,5.0182,4.9883,4.9883,4.9515,4.8745,4.8425,4.7941,4.7251,4.6748,4.6416,4.6214,4.6243,4.6456,4.6855,4.7451,4.7959,4.8347,4.9999,5.1243,5.1957,5.2077,5.2338,5.2797,5.1534,5.1186,5.2027,5.224,5.2305,5.2305,5.3058,5.3735,5.4214,5.4523,5.489,5.5385,5.5466,5.5466,5.5466,5.5466,5.5466,5.5466,5.5466,5.5466,5.5507,5.5868,5.6257,5.6622,5.604,5.5568,5.5968,5.6047,5.6238,5.6622,5.6699,5.6699,5.6699,5.6699,5.6699,5.6699,5.6699,5.6699,5.6699,5.6699,5.6699,5.6699,5.6699,5.6699,5.6699,5.6699,5.6699,5.6699,5.6699,5.6699,5.1206,5.1206,5.1206,5.1206,5.1206,5.1206,5.1206,5.1206,5.1176,5.0907,5.0548,5.0966,5.1206,5.1206,5.1206,5.1206,5.1206,5.1206,5.1206,5.1206,5.1206,5.1206,5.1253,5.1386,5.1526,5.1549,5.1734,5.22,5.2762,5.2185,5.2094,5.2448,5.1635,5.1206,5.1206,5.1206,5.1206,5.1206,5.1206,5.1206,5.1206,5.1206,5.1206,5.1206,5.1176,5.092,5.0272,5.0179,4.9825,4.9212,4.8851,4.8577,4.8453,4.8685,4.8847,4.8985,4.9912,5.0712,5.1178,5.2215,5.3102,5.35,5.3988,5.4642,5.5349,5.4367,5.3701,5.4221,5.4211,5.4232,5.4242,5.4516,5.4881,5.5515,5.5616,5.5868,5.6564,5.6699,5.6699,5.6699,5.6699,5.6661,5.6699,5.6699,5.6622,5.6583,5.6699,5.6699,5.6699,5.6699,5.6699,5.6699,5.6699,5.6661,5.6699,5.6699,5.6699,5.6699,5.6699,5.6699,5.6699,5.6699,5.6699,5.6699,5.6699,5.6699,5.6699,5.6699,5.6799,5.6912,5.7031,5.7064,5.7296,5.7329,5.7064,5.1206,5.1206,5.1206,5.1206,5.1206,5.1206,5.1206,5.1206,5.1206,5.1176,5.1086,5.1176,5.1206,5.1206,5.1206,5.1206,5.1206,5.1206,5.1206,5.1206,5.1206,5.1229,5.14,5.2124,5.2471,5.2614,5.3355,5.3779,5.3995,5.3813,5.3359,5.2583,5.1688,5.1206,5.1206,5.1206,5.1206,5.1206,5.1206,5.1206,5.1206,5.1206,5.1206,5.1206,5.1206,5.0964,5.0496,5.0645,5.049,5.0055,5.0145,5.0005,4.9539,5.0154,5.0765,5.0989,5.185,5.306,5.4519,5.4221,5.4566,5.606,5.5563,5.5555,5.6414,5.6367,5.5962,5.5414,5.521,5.519,5.5251,5.5868,5.6297,5.6375,5.6453,5.6622,5.6661,5.6699,5.6699,5.6699,5.6699,5.6699,5.6699,5.6699,5.6699,5.6699,5.6699,5.6699,5.6699,5.6699,5.6699,5.6699,5.6699,5.6699,5.6699,5.6699,5.6699,5.6699,5.6699,5.6732,5.6766,5.6799,5.6732,5.713,5.6898,5.6931,5.6865,5.6732,5.7031,5.7541,5.774,5.7873,5.8469,5.8568,5.8138,5.1206,5.1206,5.1206,5.1206,5.1206,5.1206,5.1206,5.1206,5.1206,5.1206,5.1206,5.1206,5.1206,5.1206,5.1206,5.1206,5.1206,5.1206,5.1206,5.1306,5.222,5.2673,5.2795,5.4098,5.4733,5.4755,5.5153,5.5557,5.5879,5.546,5.4527,5.3244,5.2285,5.1594,5.1236,5.1206,5.1206,5.1206,5.1206,5.1206,5.1206,5.1206,5.1206,5.1206,5.1206,5.1135,5.0923,5.0846,5.0728,5.0513,5.0519,5.0639,5.0866,5.1357,5.1966,5.2629,5.3608,5.4765,5.6014,5.5789,5.5908,5.6661,5.6355,5.6316,5.6641,5.6699,5.6525,5.6238,5.6106,5.6139,5.6159,5.6472,5.6699,5.6699,5.6699,5.6699,5.6699,5.6699,5.6699,5.6699,5.6699,5.6699,5.6699,5.6699,5.6699,5.6699,5.6699,5.6699,5.6699,5.6699,5.6699,5.6699,5.6699,5.6699,5.6732,5.6699,5.6732,5.6732,5.6699,5.6766,5.7263,5.7342,5.7475,5.7873,5.7873,5.7906,5.8071,5.8005,5.8138,5.8436,5.8469,5.8568,5.8866,5.8899,5.8535,5.1206,5.1206,5.1206,5.1206,5.1206,5.1206,5.1206,5.1206,5.1206,5.1206,5.1206,5.1206,5.1206,5.1206,5.1206,5.1206,5.1206,5.1385,5.1633,5.1997,5.3339,5.4105,5.453,5.5832,5.6547,5.6601,5.683,5.7291,5.7693,5.6549,5.535,5.4078,5.2819,5.1858,5.1265,5.1206,5.1206,5.1206,5.1206,5.1206,5.1206,5.1206,5.1206,5.1206,5.1206,5.1182,5.1082,5.1146,5.1163,5.1193,5.1286,5.1681,5.2342,5.2812,5.3461,5.4369,5.521,5.5968,5.6661,5.6699,5.6699,5.6699,5.6699,5.6699,5.6732,5.6898,5.6998,5.7011,5.7196,5.7224,5.6732,5.6699,5.6699,5.6699,5.6832,5.6964,5.6713,5.6812,5.6912,5.6766,5.6699,5.6699,5.6699,5.6699,5.6699,5.6699,5.6699,5.6699,5.6699,5.6699,5.6699,5.6732,5.6865,5.7031,5.6998,5.7064,5.7031,5.7296,5.7428,5.7627,5.8005,5.8071,5.8138,5.8436,5.8767,5.8833,5.8634,5.8734,5.9032,5.9198,5.933,5.9463,5.9694,5.9562,5.9529,5.1206,5.1206,5.1206,5.1206,5.1206,5.1206,5.1206,5.1206,5.1206,5.1206,5.1206,5.1206,5.1206,5.1306,5.1383,5.1229,5.1319,5.1905,5.2688,5.3538,5.4414,5.5198,5.6119,5.7023,5.7514,5.7719,5.8412,5.8789,5.8744,5.697,5.5683,5.4983,5.3237,5.1917,5.1385,5.1295,5.1236,5.1289,5.1236,5.1253,5.1253,5.1253,5.1299,5.1339,5.1253,5.1176,5.1052,5.1712,5.2139,5.2169,5.2909,5.3545,5.3912,5.4642,5.5515,5.6336,5.6564,5.6622,5.668,5.6766,5.6766,5.6766,5.6865,5.6766,5.6945,5.7428,5.776,5.774,5.827,5.8138,5.7077,5.6998,5.6898,5.6931,5.7376,5.7428,5.6865,5.7442,5.7376,5.6945,5.6832,5.6898,5.6799,5.6699,5.6732,5.6766,5.6732,5.6732,5.6832,5.6799,5.6799,5.6998,5.7362,5.776,5.7773,5.776,5.8038,5.8237,5.8336,5.8701,5.88,5.8866,5.8933,5.8999,5.9198,5.9231,5.8999,5.9098,5.9429,5.9794,6.039,6.0601,6.0456,6.0833,6.0788,5.1206,5.1206,5.1206,5.1206,5.1206,5.1206,5.1206,5.1206,5.1206,5.1206,5.1206,5.1206,5.176,5.2803,5.2803,5.2432,5.1952,5.2751,5.3591,5.4506,5.6289,5.7393,5.7828,5.9139,5.9802,5.9864,6.0147,6.0324,6.0084,5.833,5.7033,5.6149,5.4419,5.3144,5.2516,5.2067,5.1828,5.1798,5.1439,5.1479,5.2048,5.2094,5.2358,5.2909,5.2381,5.2336,5.2843,5.3165,5.3371,5.3349,5.3697,5.4168,5.484,5.5708,5.6336,5.6641,5.6699,5.6699,5.6766,5.7163,5.7376,5.7428,5.7839,5.8071,5.8138,5.8336,5.8502,5.8568,5.8701,5.8568,5.8303,5.8104,5.8124,5.8157,5.8303,5.8403,5.8204,5.8336,5.8369,5.8071,5.774,5.7574,5.774,5.7296,5.6898,5.7263,5.7031,5.6998,5.7296,5.7409,5.7561,5.8005,5.8336,5.8668,5.9198,5.8734,5.8601,5.8734,5.8899,5.9198,5.9363,5.9562,5.9661,6.0026,6.0092,6.0059,6.0026,6.0059,6.0291,6.0498,6.1073,6.1053,6.1065,6.1119,6.1119,5.1206,5.1206,5.1206,5.1206,5.1236,5.1445,5.1535,5.1558,5.1768,5.2017,5.2275,5.2322,5.3139,5.4355,5.4476,5.4313,5.3842,5.4521,5.5195,5.6104,5.8029,5.9101,5.9562,6.0583,6.1098,6.1065,6.1098,6.1098,6.0919,5.9411,5.8101,5.7006,5.5439,5.4176,5.3277,5.2725,5.266,5.2802,5.2534,5.2711,5.3334,5.3654,5.3941,5.4316,5.4236,5.4072,5.4029,5.4274,5.4443,5.4464,5.4694,5.5128,5.5749,5.6336,5.6832,5.7031,5.7064,5.7196,5.7428,5.7892,5.8157,5.8171,5.8568,5.8899,5.8899,5.9131,5.9231,5.9297,5.9529,5.9628,5.9628,5.9628,5.9429,5.9098,5.9098,5.9131,5.8966,5.9098,5.9098,5.8833,5.8436,5.8436,5.8668,5.7972,5.7773,5.8104,5.7674,5.7674,5.8005,5.819,5.829,5.88,5.9065,5.9396,5.9794,5.9661,5.9661,5.9794,5.9694,5.9893,6.0013,6.0212,6.0444,6.092,6.1119,6.1119,6.1119,6.1119,6.1107,6.1169,6.1127,6.1086,6.114,6.1161,6.1161,5.1236,5.1349,5.1236,5.1355,5.1468,5.2096,5.2258,5.245,5.3002,5.3743,5.4383,5.4607,5.5127,5.6072,5.6205,5.6477,5.6996,5.7159,5.757,5.8421,5.9274,6.0097,6.0894,6.099,6.1098,6.1098,6.1098,6.1098,6.1002,5.999,5.8693,5.7299,5.6326,5.5167,5.338,5.3622,5.3843,5.4467,5.4553,5.4756,5.5165,5.5708,5.5857,5.5683,5.6598,5.6327,5.4369,5.4987,5.5409,5.5479,5.6185,5.6674,5.6729,5.6859,5.7097,5.7693,5.7826,5.8138,5.8701,5.8833,5.8899,5.8933,5.8966,5.9131,5.9297,5.9694,6.0026,6.0092,6.0523,6.0953,6.092,6.0866,6.0423,5.9297,5.9661,5.9728,5.9363,5.9595,5.9761,5.9198,5.8999,5.8933,5.8933,5.8767,5.8701,5.88,5.8734,5.8701,5.8833,5.8899,5.8899,5.9131,5.9595,6.0092,6.0324,6.0556,6.0821,6.0966,6.0821,6.0788,6.075,6.087,6.0899,6.1231,6.1272,6.1272,6.1293,6.1293,6.1314,6.1301,6.1252,6.121,6.1293,6.1334,6.121,5.2157,5.257,5.2576,5.2576,5.2696,5.3543,5.391,5.4004,5.4846,5.5434,5.5714,5.5736,5.6525,5.7633,5.785,5.8594,5.9814,5.9847,5.9664,5.9502,6.0204,6.0771,6.1023,6.1098,6.1098,6.1098,6.1098,6.1098,6.0919,6.0109,5.9282,5.8713,5.7814,5.7121,5.6443,5.614,5.6098,5.6242,5.5956,5.6046,5.6659,5.697,5.7286,5.7768,5.8252,5.8076,5.7393,5.7157,5.7014,5.7014,5.7304,5.7674,5.8071,5.8204,5.8303,5.8502,5.8568,5.8601,5.8899,5.9363,5.9661,5.9761,6.0092,6.039,6.0423,6.0589,6.0701,6.0755,6.0966,6.1098,6.1098,6.1098,6.0854,6.0456,6.0622,6.0655,6.039,6.0589,6.0622,6.0423,5.9993,5.9926,6.0059,5.9728,5.9231,5.9529,5.9297,5.9131,5.9529,5.9661,5.9926,6.0324,6.0655,6.0655,6.0755,6.0821,6.0974,6.1161,6.1148,6.1169,6.1231,6.1314,6.1375,6.1417,6.1458,6.1478,6.1478,6.1499,6.1486,6.1486,6.1424,6.1465,6.1547,6.1506,6.1396,5.2839,5.3247,5.3634,5.3771,5.3897,5.5039,5.5602,5.5703,5.6523,5.7121,5.741,5.7486,5.8237,5.9315,5.9509,6.01,6.1044,6.1098,6.0739,6.0281,6.0717,6.1098,6.1098,6.1098,6.1098,6.1098,6.1098,6.1098,6.1077,6.0484,5.9968,5.9521,5.8957,5.8405,5.8099,5.7751,5.7612,5.7886,5.7678,5.7785,5.8339,5.8692,5.8864,5.8984,5.9429,5.9429,5.8966,5.8668,5.8469,5.829,5.8204,5.8436,5.8866,5.8866,5.8999,5.9264,5.933,5.9429,5.9728,6.0191,6.0423,6.0523,6.0833,6.1065,6.1065,6.1098,6.1098,6.1098,6.1098,6.1098,6.1098,6.1098,6.1098,6.1098,6.1065,6.1098,6.1098,6.1098,6.1065,6.0899,6.0634,6.0701,6.0688,6.049,5.9893,6.0258,6.0026,5.9794,6.0291,6.039,6.0755,6.0953,6.0966,6.0966,6.1032,6.1086,6.1127,6.119,6.1252,6.1293,6.1322,6.1445,6.1526,6.1547,6.1621,6.1621,6.1621,6.1628,6.1648,6.1628,6.1669,6.1689,6.1709,6.1628,6.1547,5.3434,5.3579,5.4503,5.4993,5.5194,5.6589,5.725,5.7367,5.7979,5.8774,5.9468,5.9512,6.0043,6.0886,6.0841,6.0936,6.1098,6.1098,6.1077,6.0981,6.1098,6.1098,6.1098,6.1098,6.1098,6.1098,6.1098,6.1098,6.1098,6.0981,6.0633,5.986,5.9729,5.9278,5.8677,5.8337,5.8825,5.9457,5.9577,5.9716,6.0002,6.0572,6.0395,5.9264,6.0258,6.039,5.9496,5.9694,5.9661,5.9065,5.9032,5.9164,5.9098,5.9032,5.9463,6.0026,6.0059,6.039,6.0866,6.0933,6.102,6.0966,6.1032,6.1098,6.1098,6.1098,6.1098,6.1098,6.1098,6.1098,6.1098,6.1098,6.1098,6.1098,6.1098,6.1098,6.1098,6.1098,6.1098,6.1098,6.1065,6.1098,6.1098,6.0986,6.0933,6.0966,6.0899,6.0866,6.092,6.0941,6.1073,6.1161,6.119,6.1252,6.1314,6.1314,6.1355,6.1417,6.1478,6.1526,6.1567,6.1689,6.179,6.181,6.1823,6.177,6.179,6.185,6.1911,6.1971,6.1951,6.1877,6.1817,6.181,6.179,5.5748,5.6809,5.7119,5.718,5.7373,5.848,5.8944,5.9065,5.9892,6.0323,6.0654,6.0696,6.0814,6.1077,6.1098,6.1098,6.1098,6.1098,6.1098,6.1098,6.1098,6.1098,6.1098,6.1098,6.1098,6.1098,6.1098,6.1098,6.1098,6.1098,6.094,6.0717,6.0612,6.0569,6.0323,6.0195,6.0409,6.0654,6.0675,6.0706,6.0804,6.0933,6.0953,6.0688,6.092,6.0899,6.0523,6.0688,6.049,5.9827,6.0258,6.0502,6.0423,6.0423,6.0523,6.0688,6.0788,6.0833,6.1032,6.1098,6.1098,6.1098,6.1098,6.1098,6.1098,6.1098,6.1098,6.1098,6.1098,6.1098,6.1098,6.1098,6.1098,6.1098,6.1098,6.1098,6.1098,6.1098,6.1098,6.1098,6.1098,6.1098,6.1098,6.1098,6.1098,6.1098,6.1098,6.1119,6.1127,6.1231,6.1272,6.1375,6.1458,6.1506,6.1547,6.1547,6.1567,6.1628,6.1729,6.189,6.1951,6.205,6.2183,6.2243,6.2144,6.2104,6.2164,6.2243,6.2302,6.2229,6.213,6.1997,6.211,6.211,6.209,5.7253,5.8131,5.8551,5.8732,5.8867,5.9816,6.0238,6.0323,6.0814,6.1098,6.1098,6.1098,6.1098,6.1098,6.1098,6.1098,6.1098,6.1098,6.1098,6.1098,6.1098,6.1098,6.1098,6.1098,6.1098,6.1098,6.1098,6.1098,6.1098,6.1098,6.1098,6.1077,6.1098,6.1098,6.0981,6.1098,6.1098,6.1098,6.1098,6.1098,6.1098,6.1098,6.1098,6.1119,6.1098,6.1098,6.1065,6.1098,6.0866,6.0622,6.0887,6.1098,6.1098,6.1098,6.1098,6.1098,6.1098,6.1098,6.1098,6.1098,6.1098,6.1098,6.1098,6.1098,6.1098,6.1098,6.1098,6.1098,6.1098,6.1098,6.1098,6.1098,6.1098,6.1098,6.1098,6.1098,6.1098,6.1098,6.1098,6.1098,6.1098,6.1098,6.1098,6.1098,6.1098,6.1098,6.1098,6.1148,6.1231,6.1322,6.1445,6.1547,6.1608,6.1669,6.1689,6.1689,6.177,6.185,6.2004,6.213,6.2169,6.2302,6.2322,6.2361,6.2381,6.2415,6.2415,6.2415,6.2361,6.2302,6.2209,6.2189,6.2268,6.2302,6.2268,5.8346,5.8505,5.9389,5.974,5.9881,6.0696,6.0981,6.1044,6.1077,6.1098,6.1098,6.1098,6.1098,6.1098,6.1098,6.1098,6.1098,6.1098,6.1098,6.1098,6.1098,6.1098,6.1098,6.1098,6.1098,6.1098,6.1098,6.1098,6.1098,6.1098,6.1098,6.1098,6.1098,6.1098,6.1098,6.1098,6.1098,6.1098,6.1098,6.1098,6.1098,6.1098,6.1098,6.1098,6.1098,6.1098,6.1098,6.1098,6.1032,6.1065,6.1098,6.1098,6.1098,6.1098,6.1098,6.1098,6.1098,6.1098,6.1098,6.1098,6.1098,6.1098,6.1098,6.1098,6.1098,6.1098,6.1098,6.1098,6.1098,6.1098,6.1098,6.1098,6.1098,6.1119,6.1119,6.1127,6.1107,6.1119,6.1098,6.1098,6.1098,6.1098,6.1098,6.1098,6.1098,6.1119,6.1161,6.1231,6.1342,6.1506,6.1628,6.175,6.177,6.179,6.181,6.181,6.1931,6.203,6.2203,6.2322,6.2302,6.2361,6.2381,6.2415,6.2415,6.2415,6.2415,6.2415,6.2415,6.2381,6.2322,6.2341,6.2415,6.2361,6.2361,5.9751,6.0484,6.0675,6.0793,6.0814,6.1002,6.1098,6.1098,6.1098,6.1098,6.1098,6.1098,6.1098,6.1098,6.1098,6.1098,6.1098,6.1098,6.1098,6.1098,6.1098,6.1098,6.1098,6.1098,6.1098,6.1098,6.1098,6.1098,6.1098,6.1098,6.1098,6.1098,6.1098,6.1098,6.1098,6.1098,6.1098,6.1098,6.1098,6.1098,6.1098,6.1098,6.1098,6.1098,6.1098,6.1098,6.1098,6.1098,6.1098,6.1098,6.1098,6.1098,6.1098,6.1098,6.1098,6.1098,6.1098,6.1098,6.1098,6.1098,6.1098,6.1098,6.1098,6.1098,6.1098,6.1098,6.1098,6.1098,6.1098,6.1098,6.1119,6.1098,6.114,6.1181,6.1252,6.1355,6.1334,6.119,6.1161,6.114,6.114,6.1119,6.1119,6.114,6.114,6.114,6.121,6.1322,6.1506,6.1709,6.183,6.1931,6.201,6.2084,6.2084,6.2084,6.209,6.2169,6.2322,6.2415,6.2415,6.2415,6.2415,6.2415,6.2415,6.2415,6.2415,6.2415,6.2415,6.2415,6.2415,6.2448,6.2482,6.2448,6.255,6.0612,6.1098,6.1098,6.1098,6.1098,6.1098,6.1098,6.1098,6.1098,6.1098,6.1098,6.1098,6.1098,6.1098,6.1098,6.1098,6.1098,6.1098,6.1098,6.1098,6.1098,6.1098,6.1098,6.1098,6.1098,6.1098,6.1098,6.1098,6.1098,6.1098,6.1098,6.1098,6.1098,6.1098,6.1098,6.1098,6.1098,6.1098,6.1098,6.1098,6.1098,6.1098,6.1098,6.1098,6.1098,6.1098,6.1098,6.1098,6.1098,6.1098,6.1098,6.1098,6.1098,6.1098,6.1098,6.1098,6.1098,6.1098,6.1098,6.1098,6.1098,6.1098,6.1098,6.1098,6.1098,6.1098,6.1098,6.1098,6.1098,6.1098,6.1119,6.1314,6.1314,6.1293,6.1404,6.1526,6.1526,6.1424,6.1375,6.1355,6.1314,6.1334,6.1334,6.1272,6.1334,6.1396,6.1478,6.1567,6.1696,6.1897,6.203,6.215,6.2282,6.2341,6.2341,6.2341,6.2302,6.2341,6.2361,6.2415,6.2415,6.2415,6.2415,6.2415,6.2415,6.2415,6.2415,6.2415,6.2482,6.2516,6.255,6.2584,6.2685,6.2854,6.299,6.1098,6.1098,6.1098,6.1098,6.1098,6.1098,6.1098,6.1098,6.1098,6.1098,6.1098,6.1098,6.1098,6.1098,6.1098,6.1098,6.1098,6.1098,6.1098,6.1098,6.1098,6.1098,6.1098,6.1098,6.1098,6.1098,6.1098,6.1098,6.1098,6.1098,6.1098,6.1098,6.1098,6.1098,6.1098,6.1098,6.1098,6.1098,6.1098,6.1098,6.1098,6.1098,6.1098,6.1098,6.1098,6.1098,6.1098,6.1098,6.1098,6.1098,6.1098,6.1098,6.1098,6.1098,6.1098,6.1098,6.1098,6.1098,6.1098,6.1098,6.1098,6.1098,6.1098,6.1098,6.1098,6.1098,6.1098,6.1107,6.1107,6.1148,6.1148,6.1437,6.1547,6.1526,6.1628,6.1729,6.175,6.177,6.179,6.1628,6.1506,6.1486,6.1526,6.1526,6.1588,6.1648,6.1729,6.181,6.1937,6.211,6.2189,6.2249,6.2361,6.2381,6.2415,6.2415,6.2415,6.2415,6.2415,6.2415,6.2415,6.2415,6.2415,6.2415,6.2415,6.2482,6.2618,6.2787,6.2821,6.2753,6.3024,6.3396,6.3429,6.3362,6.3497,6.1098,6.1098,6.1098,6.1098,6.1098,6.1098,6.1098,6.1098,6.1098,6.1098,6.1098,6.1098,6.1098,6.1098,6.1098,6.1098,6.1098,6.1098,6.1098,6.1098,6.1098,6.1098,6.1098,6.1098,6.1098,6.1098,6.1098,6.1098,6.1098,6.1098,6.1098,6.1098,6.1098,6.1098,6.1098,6.1098,6.1098,6.1098,6.1098,6.1098,6.1098,6.1098,6.1098,6.1098,6.1185,6.1131,6.1119,6.1098,6.1098,6.1098,6.1098,6.1098,6.1098,6.1098,6.1098,6.1098,6.1098,6.1098,6.1098,6.1098,6.1098,6.1098,6.1098,6.1098,6.1098,6.1119,6.1119,6.1148,6.1272,6.1375,6.1342,6.1608,6.1689,6.1709,6.183,6.1971,6.201,6.207,6.2104,6.183,6.1729,6.1669,6.175,6.177,6.177,6.185,6.1931,6.1971,6.207,6.2189,6.2341,6.2361,6.2381,6.2415,6.2415,6.2415,6.2415,6.2415,6.2415,6.2415,6.2415,6.2415,6.2415,6.2618,6.2719,6.2787,6.2956,6.3207,6.3497,6.3666,6.4005,6.4377,6.4174,6.4038,6.4275,6.1098,6.1098,6.1098,6.1098,6.1098,6.1098,6.1098,6.1098,6.1098,6.1098,6.1098,6.1098,6.1098,6.1098,6.1098,6.1098,6.1098,6.1098,6.1098,6.1098,6.1098,6.1098,6.1098,6.1098,6.1098,6.1098,6.1098,6.1098,6.1098,6.1098,6.1098,6.1098,6.1098,6.1098,6.1098,6.1098,6.1098,6.1098,6.1098,6.1098,6.1098,6.1098,6.1098,6.1185,6.1417,6.145,6.1218,6.155,6.145,6.1185,6.1098,6.1098,6.1131,6.1131,6.1131,6.1131,6.1098,6.1098,6.1098,6.1098,6.1098,6.1098,6.1131,6.1098,6.1098,6.1119,6.1181,6.1272,6.1437,6.1547,6.1567,6.1884,6.1951,6.1931,6.207,6.2169,6.2229,6.2341,6.2223,6.2044,6.1951,6.1951,6.2084,6.203,6.1971,6.203,6.213,6.2169,6.2189,6.2282,6.2415,6.2415,6.2415,6.2415,6.2415,6.2415,6.255,6.255,6.255,6.255,6.2685,6.2821,6.2922,6.3057,6.3159,6.3362,6.37,6.4072,6.4343,6.4613,6.4884,6.5053,6.485,6.4783,6.5053,6.1098,6.1098,6.1098,6.1098,6.1098,6.1098,6.1098,6.1098,6.1098,6.1098,6.1098,6.1098,6.1098,6.1098,6.1098,6.1098,6.1098,6.1098,6.1098,6.1098,6.1098,6.1098,6.1098,6.1098,6.1098,6.1098,6.1098,6.1098,6.1098,6.1098,6.1098,6.1098,6.1098,6.1098,6.1098,6.1098,6.1098,6.1098,6.1098,6.1098,6.1098,6.1098,6.1218,6.1318,6.1902,6.1968,6.1815,6.2197,6.2209,6.1857,6.1691,6.1679,6.1583,6.155,6.155,6.1516,6.1264,6.1185,6.1318,6.1384,6.1516,6.1748,6.1616,6.1604,6.16,6.175,6.1534,6.1511,6.1648,6.177,6.181,6.2164,6.2209,6.2189,6.2282,6.2415,6.2361,6.2381,6.2381,6.2263,6.2169,6.2203,6.2277,6.2263,6.2183,6.2183,6.2282,6.2302,6.2322,6.2322,6.2415,6.2415,6.2415,6.2415,6.2415,6.2415,6.2618,6.2888,6.2956,6.299,6.3226,6.3429,6.3599,6.3903,6.4106,6.4377,6.4647,6.4884,6.5121,6.5392,6.5662,6.5764,6.5696,6.5696,6.5865,6.1098,6.1098,6.1098,6.1098,6.1098,6.1098,6.1098,6.1098,6.1098,6.1098,6.1098,6.1098,6.1098,6.1098,6.1098,6.1098,6.1098,6.1098,6.1098,6.1098,6.1098,6.1098,6.1098,6.1098,6.1098,6.1098,6.1098,6.1098,6.1098,6.1098,6.1098,6.1098,6.1098,6.1098,6.1098,6.1098,6.1098,6.1098,6.1098,6.1098,6.1164,6.1164,6.1516,6.1956,6.2288,6.2562,6.2849,6.3188,6.3188,6.2993,6.31,6.3166,6.3105,6.3029,6.3029,6.2664,6.2013,6.1384,6.1935,6.2068,6.2288,6.2652,6.2851,6.3102,6.2952,6.2687,6.2323,6.1682,6.1884,6.1991,6.2064,6.2243,6.2341,6.2361,6.2361,6.2415,6.2415,6.2415,6.2415,6.2516,6.2417,6.2437,6.2496,6.2429,6.2361,6.2381,6.2415,6.2415,6.2415,6.2415,6.2415,6.2415,6.2415,6.2415,6.2415,6.2415,6.2753,6.3125,6.326,6.3429,6.3802,6.414,6.4681,6.4952,6.5121,6.5256,6.5459,6.5696,6.5899,6.6102,6.6271,6.6474,6.6622,6.6656,6.6542,6.1098,6.1098,6.1098,6.1098,6.1098,6.1098,6.1098,6.1098,6.1098,6.1098,6.1098,6.1098,6.1098,6.1098,6.1098,6.1098,6.1098,6.1098,6.1098,6.1098,6.1098,6.1098,6.1098,6.1098,6.1098,6.1098,6.1098,6.1098,6.1098,6.1098,6.1098,6.1098,6.1098,6.1098,6.1098,6.1098,6.1098,6.1098,6.1131,6.1318,6.1583,6.1803,6.2143,6.2967,6.3354,6.3617,6.3757,6.4155,6.4012,6.3663,6.3572,6.3508,6.3358,6.3282,6.3304,6.342,6.2934,6.2692,6.2785,6.2851,6.3147,6.3344,6.352,6.3506,6.3718,6.3609,6.3252,6.2629,6.2643,6.2542,6.2324,6.2341,6.2361,6.2415,6.2415,6.2468,6.2468,6.2415,6.2448,6.2584,6.2685,6.2618,6.2584,6.2482,6.2415,6.2415,6.2415,6.2415,6.2415,6.2415,6.2415,6.2415,6.2415,6.2415,6.2415,6.2415,6.2922,6.326,6.3497,6.3748,6.4377,6.485,6.5392,6.5764,6.5899,6.6068,6.6237,6.6305,6.6406,6.6576,6.6791,6.6791,6.6791,6.6791,6.669,6.1098,6.1098,6.1098,6.1098,6.1098,6.1098,6.1098,6.1098,6.1098,6.1098,6.1098,6.1098,6.1098,6.1098,6.1098,6.1098,6.1098,6.1098,6.1098,6.1098,6.1098,6.1098,6.1098,6.1098,6.1098,6.1098,6.1098,6.1098,6.1185,6.1285,6.1351,6.1098,6.1098,6.1098,6.1098,6.1098,6.1185,6.1483,6.1682,6.2034,6.2387,6.2529,6.3067,6.3772,6.4379,6.4686,6.4635,6.5021,6.4914,6.4457,6.4464,6.4488,6.4218,6.4251,6.4304,6.4412,6.4267,6.4224,6.4105,6.4017,6.395,6.4124,6.4264,6.4559,6.4351,6.4367,6.4148,6.3593,6.3276,6.3053,6.2761,6.255,6.2381,6.2415,6.2415,6.2536,6.2603,6.255,6.2685,6.2888,6.2922,6.2685,6.2618,6.2516,6.2448,6.2415,6.2415,6.2448,6.2448,6.2516,6.2685,6.2719,6.2516,6.2719,6.3125,6.3125,6.3429,6.3599,6.3835,6.4356,6.5189,6.5595,6.6,6.6339,6.6508,6.6542,6.6542,6.6656,6.6791,6.6791,6.6791,6.6791,6.6791,6.6791,6.6791,6.1098,6.1098,6.1098,6.1098,6.1098,6.1098,6.1098,6.1098,6.1098,6.1098,6.1098,6.1098,6.1098,6.1098,6.1098,6.1098,6.1098,6.1098,6.1098,6.1098,6.1098,6.1098,6.1098,6.1098,6.1098,6.1098,6.1098,6.1098,6.1285,6.1811,6.1604,6.1251,6.1483,6.1251,6.1264,6.1516,6.1736,6.2155,6.2607,6.3005,6.3268,6.3454,6.3936,6.4533,6.4929,6.5237,6.5883,6.6143,6.6045,6.5477,6.5715,6.5682,6.5301,6.5377,6.543,6.555,6.5572,6.555,6.5483,6.5118,6.5261,6.5715,6.5945,6.5749,6.5375,6.5483,6.5215,6.4552,6.4126,6.3674,6.3308,6.2922,6.2821,6.2618,6.2719,6.2854,6.2888,6.2719,6.2854,6.3193,6.3294,6.326,6.3226,6.326,6.2888,6.2821,6.3024,6.3057,6.2787,6.2821,6.3125,6.3159,6.2787,6.3125,6.4106,6.4275,6.4072,6.4444,6.485,6.5527,6.6284,6.6576,6.6474,6.6576,6.669,6.6757,6.6791,6.6791,6.6791,6.6791,6.6791,6.6791,6.6791,6.6791,6.6791,6.1098,6.1098,6.1098,6.1098,6.1098,6.1098,6.1098,6.1098,6.1098,6.1098,6.1098,6.1098,6.1098,6.1098,6.1098,6.1098,6.1098,6.1098,6.1098,6.1098,6.1098,6.1098,6.1098,6.1119,6.1098,6.1119,6.1119,6.1417,6.1836,6.2327,6.2623,6.2535,6.2517,6.2498,6.2477,6.2408,6.2683,6.2967,6.3409,6.3696,6.4333,6.4464,6.4893,6.5746,6.5856,6.6106,6.647,6.6622,6.6507,6.6357,6.6421,6.6259,6.6086,6.6095,6.6182,6.6323,6.6323,6.6388,6.643,6.6021,6.5926,6.6198,6.6503,6.653,6.6171,6.6331,6.6,6.5459,6.4986,6.458,6.414,6.3903,6.3734,6.3294,6.3159,6.3294,6.3362,6.326,6.3565,6.414,6.4208,6.4208,6.4174,6.4174,6.3666,6.326,6.3497,6.3632,6.3362,6.3328,6.3666,6.3869,6.3599,6.3734,6.4681,6.4715,6.458,6.5155,6.5818,6.6237,6.669,6.6757,6.669,6.6791,6.6791,6.6791,6.6791,6.6791,6.6791,6.6791,6.6791,6.6791,6.6791,6.6791,6.6791,6.1098,6.1098,6.1098,6.1098,6.1098,6.1098,6.1098,6.1098,6.1098,6.1098,6.1098,6.1098,6.1098,6.1098,6.1098,6.1098,6.1098,6.1098,6.1098,6.1098,6.1098,6.114,6.1169,6.121,6.1252,6.1285,6.1592,6.1979,6.2353,6.2924,6.35,6.3912,6.4071,6.3983,6.3496,6.3741,6.385,6.3991,6.4321,6.4564,6.5283,6.5457,6.5621,6.6385,6.6482,6.6588,6.6707,6.6749,6.6643,6.655,6.6528,6.6452,6.6345,6.629,6.643,6.6495,6.6613,6.6677,6.6665,6.658,6.6375,6.658,6.6665,6.677,6.6791,6.6791,6.6406,6.6136,6.5831,6.5459,6.4884,6.4613,6.4309,6.3869,6.3835,6.3971,6.414,6.4174,6.4681,6.5189,6.4986,6.4613,6.4715,6.4647,6.4512,6.4072,6.4005,6.4106,6.4005,6.4072,6.4444,6.458,6.4512,6.4816,6.5222,6.5189,6.5222,6.5797,6.6305,6.6373,6.6677,6.6757,6.6791,6.6791,6.6791,6.6791,6.6791,6.6791,6.6791,6.6791,6.6791,6.6791,6.6791,6.6791,6.6791,6.1098,6.1098,6.1098,6.1098,6.1098,6.1098,6.1098,6.1098,6.1098,6.1098,6.1098,6.1098,6.1098,6.1098,6.1098,6.1098,6.1098,6.1098,6.1098,6.1098,6.1161,6.1231,6.1368,6.145,6.1678,6.1883,6.233,6.2757,6.2953,6.4032,6.4701,6.5091,6.5337,6.5216,6.4187,6.4668,6.4948,6.507,6.5627,6.5849,6.6002,6.622,6.6406,6.6537,6.6665,6.677,6.6791,6.6791,6.6686,6.6613,6.6665,6.6622,6.6528,6.6622,6.6707,6.6749,6.6749,6.677,6.6791,6.677,6.6749,6.6728,6.677,6.6791,6.6791,6.6791,6.6757,6.6474,6.617,6.5852,6.548,6.5155,6.4918,6.4613,6.458,6.4613,6.4816,6.4884,6.5324,6.5797,6.5222,6.4715,6.4952,6.5087,6.5155,6.4952,6.4681,6.458,6.4613,6.4952,6.5324,6.5392,6.5425,6.5595,6.5865,6.5764,6.5933,6.6474,6.669,6.669,6.669,6.6757,6.6791,6.6791,6.6791,6.6791,6.6791,6.6791,6.6791,6.6791,6.6791,6.6791,6.6791,6.6791,6.6791,6.1098,6.1098,6.1098,6.1098,6.1098,6.1098,6.1098,6.1098,6.1098,6.1098,6.1098,6.1098,6.1098,6.1098,6.1098,6.1098,6.1098,6.1098,6.1098,6.114,6.121,6.1301,6.1524,6.2001,6.2338,6.2647,6.317,6.3894,6.43,6.5051,6.5572,6.5997,6.6195,6.6106,6.5646,6.5682,6.5804,6.5987,6.6232,6.6409,6.6558,6.6643,6.6698,6.6698,6.677,6.6791,6.6791,6.6791,6.6749,6.6698,6.677,6.6749,6.6698,6.6791,6.6791,6.6791,6.6791,6.6791,6.6791,6.6791,6.6791,6.6791,6.6791,6.6791,6.6791,6.6791,6.6791,6.6791,6.6542,6.6339,6.6305,6.6271,6.6,6.5459,6.5344,6.5344,6.5446,6.5446,6.5683,6.6237,6.6102,6.5912,6.6,6.5865,6.5831,6.5933,6.5696,6.5459,6.5425,6.5899,6.6318,6.6318,6.6352,6.6419,6.6487,6.6271,6.6237,6.6609,6.6757,6.6757,6.6791,6.6791,6.6791,6.6791,6.6791,6.6791,6.6791,6.6791,6.6791,6.6791,6.6791,6.6791,6.6791,6.6791,6.6791,6.1098,6.1098,6.1098,6.1098,6.1098,6.1098,6.1098,6.1098,6.1098,6.1098,6.1098,6.1098,6.1098,6.1098,6.1098,6.1098,6.1098,6.1098,6.1169,6.119,6.1334,6.1686,6.2184,6.2621,6.3066,6.3489,6.4169,6.4841,6.5165,6.5661,6.6108,6.6487,6.6707,6.6555,6.6317,6.633,6.6385,6.6491,6.658,6.6622,6.6728,6.6791,6.6791,6.6791,6.6791,6.6791,6.6791,6.6791,6.6791,6.6791,6.6791,6.6791,6.6791,6.6791,6.6791,6.6791,6.6791,6.6791,6.6791,6.6791,6.6791,6.6791,6.6791,6.6791,6.6791,6.6791,6.6791,6.6791,6.6791,6.6791,6.6757,6.6791,6.6609,6.6034,6.6,6.6034,6.6034,6.6034,6.6068,6.6643,6.6791,6.6791,6.6791,6.6724,6.6555,6.6656,6.6724,6.644,6.6136,6.6508,6.6791,6.6791,6.6757,6.6724,6.669,6.6656,6.669,6.6791,6.6791,6.6791,6.6791,6.6791,6.6791,6.6791,6.6791,6.6791,6.6791,6.6791,6.6791,6.6791,6.6791,6.6791,6.6791,6.6791,6.6791,6.114,6.1086,6.1086,6.114,6.1119,6.1161,6.1161,6.1119,6.1119,6.1098,6.1098,6.1098,6.1098,6.1086,6.1119,6.1206,6.1314,6.1314,6.1538,6.1683,6.1973,6.2479,6.2965,6.341,6.3964,6.4647,6.5228,6.5652,6.5811,6.6242,6.6648,6.677,6.677,6.6728,6.6707,6.6686,6.6707,6.6728,6.6728,6.6749,6.6791,6.6791,6.6791,6.6791,6.6791,6.6791,6.6791,6.6791,6.6791,6.6791,6.6791,6.6791,6.6791,6.6791,6.6791,6.6791,6.6791,6.6791,6.6791,6.6791,6.6791,6.6791,6.6791,6.6791,6.6791,6.6791,6.6791,6.6791,6.6791,6.6791,6.6791,6.6791,6.6791,6.6622,6.6656,6.6656,6.6656,6.6656,6.6656,6.6791,6.6791,6.6791,6.6791,6.6791,6.6791,6.6791,6.6791,6.6757,6.6542,6.6576,6.6791,6.6791,6.6791,6.6791,6.6791,6.6791,6.6791,6.6791,6.6791,6.6791,6.6791,6.6791,6.6791,6.6791,6.6791,6.6791,6.6791,6.6791,6.6791,6.6791,6.6791,6.6791,6.6791,6.6791,6.6791,6.1424,6.1334,6.1301,6.1334,6.1322,6.1478,6.1424,6.128,6.1202,6.1098,6.1098,6.1098,6.1194,6.1119,6.1252,6.1646,6.1975,6.2312,6.2782,6.2986,6.3144,6.3611,6.4091,6.4551,6.5059,6.5506,6.6,6.6373,6.6453,6.6791,6.6791,6.6791,6.6791,6.6791,6.6791,6.6791,6.6791,6.6791,6.6791,6.6791,6.6791,6.6791,6.6791,6.6791,6.6791,6.6791,6.6791,6.6791,6.6791,6.6791,6.6791,6.6791,6.6791,6.6791,6.6791,6.6791,6.6791,6.6791,6.6791,6.6791,6.6791,6.6791,6.6791,6.6791,6.6791,6.6791,6.6791,6.6791,6.6791,6.6791,6.6791,6.6791,6.6791,6.6791,6.6791,6.6791,6.6791,6.6791,6.6791,6.6791,6.6791,6.6791,6.6791,6.6791,6.6791,6.6791,6.6791,6.6791,6.6791,6.6791,6.6791,6.6791,6.6791,6.6791,6.6791,6.6791,6.6791,6.6791,6.6791,6.6791,6.6791,6.6791,6.6791,6.6791,6.6791,6.6791,6.6791,6.6791,6.6791,6.6791,6.6791,6.6791,6.6791,6.6791,6.6791,6.1628,6.1526,6.1526,6.1567,6.1648,6.1689,6.1669,6.1608,6.1437,6.1334,6.1334,6.1355,6.1501,6.1829,6.1965,6.2361,6.3083,6.32,6.3525,6.3872,6.4332,6.4516,6.4977,6.5431,6.5743,6.6203,6.6508,6.669,6.6791,6.6791,6.6791,6.6791,6.6791,6.6791,6.6791,6.6791,6.6791,6.6791,6.6791,6.6791,6.6791,6.6791,6.6791,6.6791,6.6791,6.6791,6.6791,6.6791,6.6791,6.6791,6.6791,6.6791,6.6791,6.6791,6.6791,6.6791,6.6791,6.6791,6.6791,6.6791,6.6791,6.6791,6.6791,6.6791,6.6791,6.6791,6.6791,6.6791,6.6791,6.6791,6.6791,6.6791,6.6791,6.6791,6.6791,6.6791,6.6791,6.6791,6.6791,6.6791,6.6791,6.6791,6.6791,6.6791,6.6791,6.6791,6.6791,6.6791,6.6791,6.6791,6.6791,6.6791,6.6791,6.6791,6.6791,6.6791,6.6791,6.6791,6.6791,6.6791,6.6791,6.6791,6.6791,6.6791,6.6791,6.6791,6.6791,6.6791,6.6791,6.6791,6.6791,6.6791,6.6791,6.6791,6.6791,6.175,6.1729,6.1729,6.183,6.1957,6.1817,6.189,6.203,6.1931,6.183,6.1823,6.1789,6.2204,6.2719,6.2935,6.3391,6.3915,6.4199,6.4459,6.4516,6.484,6.5192,6.56,6.5831,6.6203,6.6609,6.6791,6.6791,6.6791,6.6791,6.6791,6.6791,6.6791,6.6791,6.6791,6.6791,6.6791,6.6791,6.6791,6.6791,6.6791,6.6791,6.6791,6.6791,6.6791,6.6791,6.6791,6.6791,6.6791,6.6791,6.6791,6.6791,6.6791,6.6791,6.6791,6.6791,6.6791,6.6791,6.6791,6.6791,6.6791,6.6791,6.6791,6.6791,6.6791,6.6791,6.6791,6.6791,6.6791,6.6791,6.6791,6.6791,6.6791,6.6791,6.6791,6.6791,6.6791,6.6791,6.6791,6.6791,6.6791,6.6791,6.6791,6.6791,6.6791,6.6791,6.6791,6.6791,6.6791,6.6791,6.6791,6.6791,6.6791,6.6791,6.6791,6.6791,6.6791,6.6791,6.6791,6.6791,6.6791,6.6791,6.6791,6.6791,6.6791,6.6791,6.6791,6.6791,6.6791,6.6791,6.6791,6.6791,6.6791,6.6791,6.6791,6.211,6.1917,6.1917,6.1957,6.2017,6.215,6.2243,6.237,6.287,6.2852,6.2608,6.2634,6.2989,6.3667,6.388,6.4358,6.495,6.5202,6.5652,6.5896,6.5998,6.593,6.6419,6.6406,6.6588,6.669,6.6791,6.6791,6.6791,6.6791,6.6791,6.6791,6.6791,6.6791,6.6791,6.6791,6.6791,6.6791,6.6791,6.6791,6.6791,6.6791,6.6791,6.6791,6.6791,6.6791,6.6791,6.6791,6.6791,6.6791,6.6791,6.6791,6.6791,6.6791,6.6791,6.6791,6.6791,6.6791,6.6791,6.6791,6.6791,6.6791,6.6791,6.6791,6.6791,6.6791,6.6791,6.6791,6.6791,6.6791,6.6791,6.6791,6.6791,6.6791,6.6791,6.6791,6.6791,6.6791,6.6791,6.6791,6.6791,6.6791,6.6791,6.6791,6.6791,6.6791,6.6791,6.6791,6.6791,6.6791,6.6791,6.6791,6.6791,6.6791,6.6791,6.6791,6.6791,6.6791,6.6791,6.6791,6.6791,6.6791,6.6791,6.6791,6.6791,6.6791,6.6791,6.6791,6.6791,6.6791,6.6791,6.6791,6.6791,6.6791,6.6791,6.2322,6.2189,6.2189,6.2189,6.2209,6.2341,6.2584,6.2922,6.3342,6.3728,6.3983,6.3827,6.4029,6.4669,6.4881,6.5273,6.5901,6.6107,6.6297,6.6656,6.6791,6.6724,6.6791,6.6791,6.6757,6.6791,6.6791,6.6791,6.6791,6.6791,6.6791,6.6791,6.6791,6.6791,6.6791,6.6791,6.6791,6.6791,6.6791,6.6791,6.6791,6.6791,6.6791,6.6791,6.6791,6.6791,6.6791,6.6791,6.6791,6.6791,6.6791,6.6791,6.6791,6.6791,6.6791,6.6791,6.6791,6.6791,6.6791,6.6791,6.6791,6.6791,6.6791,6.6791,6.6791,6.6791,6.6791,6.6791,6.6791,6.6791,6.6791,6.6791,6.6791,6.6791,6.6791,6.6791,6.6791,6.6791,6.6791,6.6791,6.6791,6.6791,6.6791,6.6791,6.6791,6.6791,6.6791,6.6791,6.6791,6.6791,6.6791,6.6791,6.6791,6.6791,6.6791,6.6791,6.6791,6.6791,6.6791,6.6791,6.6791,6.6791,6.6791,6.6791,6.6791,6.6791,6.6791,6.6791,6.6791,6.6791,6.6791,6.6791,6.6791,6.6791,6.6791,6.2381,6.2415,6.2381,6.2415,6.2415,6.2516,6.2922,6.3443,6.3714,6.4478,6.5405,6.5067,6.5324,6.5628,6.5865,6.6305,6.6576,6.6555,6.6757,6.6791,6.6791,6.6791,6.6791,6.6791,6.6791,6.6791,6.6791,6.6791,6.6791,6.6791,6.6791,6.6791,6.6791,6.6791,6.6791,6.6791,6.6791,6.6791,6.6791,6.6791,6.6791,6.6791,6.6791,6.6791,6.6791,6.6791,6.6791,6.6791,6.6791,6.6791,6.6791,6.6791,6.6791,6.6791,6.6791,6.6791,6.6791,6.6791,6.6791,6.6791,6.6791,6.6791,6.6791,6.6791,6.6791,6.6791,6.6791,6.6791,6.6791,6.6791,6.6791,6.6791,6.6791,6.6791,6.6791,6.6791,6.6791,6.6791,6.6791,6.6791,6.6791,6.6791,6.6791,6.6791,6.6791,6.6791,6.6791,6.6791,6.6791,6.6791,6.6791,6.6791,6.6791,6.6791,6.6791,6.6791,6.6791,6.6791,6.6791,6.6791,6.6791,6.6791,6.6791,6.6791,6.6791,6.6791,6.6791,6.6791,6.6791,6.6791,6.6791,6.6791,6.6791,6.6791,6.6791,6.2415,6.2415,6.2415,6.2415,6.2502,6.3024,6.3376,6.368,6.4749,6.5459,6.5764,6.6271,6.6487,6.6576,6.6609,6.6724,6.6724,6.6791,6.6791,6.6791,6.6791,6.6791,6.6791,6.6791,6.6791,6.6791,6.6791,6.6791,6.6791,6.6791,6.6791,6.6791,6.6791,6.6791,6.6791,6.6791,6.6791,6.6791,6.6791,6.6791,6.6791,6.6791,6.6791,6.6791,6.6791,6.6791,6.6791,6.6791,6.6791,6.6791,6.6791,6.6791,6.6791,6.6791,6.6791,6.6791,6.6791,6.6791,6.6791,6.6791,6.6791,6.6791,6.6791,6.6791,6.6791,6.6791,6.6791,6.6791,6.6791,6.6791,6.6791,6.6791,6.6791,6.6791,6.6791,6.6791,6.6791,6.6791,6.6791,6.6791,6.6791,6.6791,6.6791,6.6791,6.6791,6.6791,6.6791,6.6791,6.6791,6.6791,6.6791,6.6791,6.6791,6.6791,6.6791,6.6791,6.6791,6.6791,6.6791,6.6791,6.6791,6.6791,6.6791,6.6791,6.6791,6.6791,6.6791,6.6791,6.6791,6.6791,6.6791,6.6791,6.6791,6.6791,6.6791]}]]